[[{"header":{"parameterUnit":"m.s-1","parameterCategory":1,"la1":30.6,"la2":28.766,"lo1":-90.7593,"lo2":-88.6598,"dy":0.0162,"dx":0.0183,"nx":116,"ny":114,"refTime":"2023-09-12T18:00:00:Z","depth":0,"parameterNumber":2,"parameterNumberName":"U-component_of_WINDS"},"data":[0.0,0.0,0.0,0.0,0.0,0.0,0.0,0.0,0.0,0.0,0.0,0.0,0.0,0.0,0.0,0.0,0.0,0.0,0.0,0.0,0.0,0.0,0.0,0.0,0.0,0.0,0.0,0.0,0.0,0.0,0.0,0.0,0.0,0.0,0.0,0.0,0.0,0.0,0.0,0.0,0.0,0.0,0.0,0.0,0.0,0.0,0.0,0.0,0.0,0.0,0.0,0.0,0.0,0.0,0.0,0.0,0.0,0.0,0.0,0.0,0.0,0.0,0.0,0.0,0.0,0.0,0.0,0.0,0.0,0.0,0.0,0.0,0.0,0.0,0.0,0.0,0.0,0.0,0.0,0.0,0.0,0.0,0.0,0.0,0.0,0.0,0.0,0.0,0.0,0.0,0.0,0.0,0.0,0.0,0.0,0.0,0.0,0.0,0.0,0.0,0.0,0.0,0.0,0.0,0.0,0.0,0.0,0.0,0.0,0.0,0.0,0.0,0.0,0.0,0.0,0.0,0.0,0.0,0.0,0.0,0.0,0.0,0.0,0.0,0.0,0.0,0.0,0.0,0.0,0.0,0.0,0.0,0.0,0.0,0.0,0.0,0.0,0.0,0.0,0.0,0.0,0.0,0.0,0.0,0.0,0.0,0.0,0.0,0.0,0.0,0.0,0.0,0.0,0.0,0.0,0.0,0.0,0.0,0.0,0.0,0.0,0.0,0.0,0.0,0.0,0.0,0.0,0.0,0.0,0.0,0.0,0.0,0.0,0.0,0.0,0.0,0.0,0.0,0.0,0.0,0.0,0.0,0.0,0.0,0.0,0.0,0.0,0.0,0.0,0.0,0.0,0.0,0.0,0.0,0.0,0.0,0.0,0.0,0.0,0.0,0.0,0.0,0.0,0.0,0.0,0.0,0.0,0.0,0.0,0.0,0.0,0.0,0.0,0.0,0.0,0.0,0.0,0.0,0.0,0.0,0.0,0.0,0.0,0.0,0.0,0.0,0.0,0.0,0.0,0.0,0.0,0.0,0.0,0.0,0.0,0.0,0.0,0.0,0.0,0.0,0.0,0.0,0.0,0.0,0.0,0.0,0.0,0.0,0.0,0.0,0.0,0.0,0.0,0.0,0.0,0.0,0.0,0.0,0.0,0.0,0.0,0.0,0.0,0.0,0.0,0.0,0.0,0.0,0.0,0.0,0.0,0.0,0.0,0.0,0.0,0.0,0.0,0.0,0.0,0.0,0.0,0.0,0.0,0.0,0.0,0.0,0.0,0.0,0.0,0.0,0.0,0.0,0.0,0.0,0.0,0.0,0.0,0.0,0.0,0.0,0.0,0.0,0.0,0.0,0.0,0.0,0.0,0.0,0.0,0.0,0.0,0.0,0.0,0.0,0.0,0.0,0.0,0.0,0.0,0.0,0.0,0.0,0.0,0.0,0.0,0.0,0.0,0.0,0.0,0.0,0.0,0.0,0.0,0.0,0.0,0.0,0.0,0.0,0.0,0.0,0.0,0.0,0.0,0.0,0.0,0.0,0.0,0.0,0.0,0.0,0.0,0.0,0.0,0.0,0.0,0.0,0.0,0.0,0.0,0.0,0.0,0.0,0.0,0.0,0.0,0.0,0.0,0.0,0.0,0.0,0.0,0.0,0.0,0.0,0.0,0.0,0.0,0.0,0.0,0.0,0.0,0.0,0.0,0.0,0.0,0.0,0.0,0.0,0.0,0.0,0.0,0.0,0.0,0.0,0.0,0.0,0.0,0.0,0.0,0.0,0.0,0.0,0.0,0.0,0.0,0.0,0.0,0.0,0.0,0.0,0.0,0.0,0.0,0.0,0.0,0.0,0.0,0.0,0.0,0.0,0.0,0.0,0.0,0.0,0.0,0.0,0.0,0.0,0.0,0.0,0.0,0.0,0.0,0.0,0.0,0.0,0.0,0.0,0.0,0.0,0.0,0.0,0.0,0.0,0.0,0.0,0.0,0.0,0.0,0.0,0.0,0.0,0.0,0.0,0.0,0.0,0.0,0.0,0.0,0.0,0.0,0.0,0.0,0.0,0.0,0.0,0.0,0.0,0.0,0.0,0.0,0.0,0.0,0.0,0.0,0.0,0.0,0.0,0.0,0.0,0.0,0.0,0.0,0.0,0.0,0.0,0.0,0.0,0.0,0.0,0.0,0.0,0.0,0.0,0.0,0.0,0.0,0.0,0.0,0.0,0.0,0.0,0.0,0.0,0.0,0.0,0.0,0.0,0.0,0.0,0.0,0.0,0.0,0.0,0.0,0.0,0.0,0.0,0.0,0.0,0.0,0.0,0.0,0.0,0.0,0.0,0.0,0.0,0.0,0.0,0.0,0.0,0.0,0.0,0.0,0.0,0.0,0.0,0.0,0.0,0.0,0.0,0.0,0.0,0.0,0.0,0.0,0.0,0.0,0.0,0.0,0.0,0.0,0.0,0.0,0.0,0.0,0.0,0.0,0.0,0.0,0.0,0.0,0.0,0.0,0.0,0.0,0.0,0.0,0.0,0.0,0.0,0.0,0.0,0.0,0.0,0.0,0.0,0.0,0.0,0.0,0.0,0.0,0.0,0.0,0.0,0.0,0.0,0.0,0.0,0.0,0.0,0.0,0.0,0.0,0.0,0.0,0.0,0.0,0.0,0.0,0.0,0.0,0.0,0.0,0.0,0.0,0.0,0.0,0.0,0.0,0.0,0.0,0.0,0.0,0.0,0.0,0.0,0.0,0.0,0.0,0.0,0.0,0.0,0.0,0.0,0.0,0.0,0.0,0.0,0.0,0.0,0.0,0.0,0.0,0.0,0.0,0.0,0.0,0.0,0.0,0.0,0.0,0.0,0.0,0.0,0.0,0.0,0.0,0.0,0.0,0.0,0.0,0.0,0.0,0.0,0.0,0.0,0.0,0.0,0.0,0.0,0.0,0.0,0.0,0.0,0.0,0.0,0.0,0.0,0.0,0.0,0.0,0.0,0.0,0.0,0.0,0.0,0.0,0.0,0.0,0.0,0.0,0.0,0.0,0.0,0.0,0.0,0.0,0.0,0.0,0.0,0.0,0.0,0.0,0.0,0.0,0.0,0.0,0.0,0.0,0.0,0.0,0.0,0.0,0.0,0.0,0.0,0.0,0.0,0.0,0.0,0.0,0.0,0.0,0.0,0.0,0.0,0.0,0.0,0.0,0.0,0.0,0.0,0.0,0.0,0.0,0.0,0.0,0.0,0.0,0.0,0.0,0.0,0.0,0.0,0.0,0.0,0.0,0.0,0.0,0.0,0.0,0.0,0.0,0.0,0.0,0.0,0.0,0.0,0.0,0.0,0.0,0.0,0.0,0.0,0.0,0.0,0.0,0.0,0.0,0.0,0.0,0.0,0.0,0.0,0.0,0.0,0.0,0.0,0.0,0.0,0.0,0.0,0.0,0.0,0.0,0.0,0.0,0.0,0.0,0.0,0.0,0.0,0.0,0.0,0.0,0.0,0.0,0.0,0.0,0.0,0.0,0.0,0.0,0.0,0.0,0.0,0.0,0.0,0.0,0.0,0.0,0.0,0.0,0.0,0.0,0.0,0.0,0.0,0.0,0.0,0.0,0.0,0.0,0.0,0.0,0.0,0.0,0.0,0.0,0.0,0.0,0.0,0.0,0.0,0.0,0.0,0.0,0.0,0.0,0.0,0.0,0.0,0.0,0.0,0.0,0.0,0.0,0.0,0.0,0.0,0.0,0.0,0.0,0.0,0.0,0.0,0.0,0.0,0.0,0.0,0.0,0.0,0.0,0.0,0.0,0.0,0.0,0.0,0.0,0.0,0.0,0.0,0.0,0.0,0.0,0.0,0.0,0.0,0.0,0.0,0.0,0.0,0.0,0.0,0.0,0.0,0.0,0.0,0.0,0.0,0.0,0.0,0.0,0.0,0.0,0.0,0.0,0.0,0.0,0.0,0.0,0.0,0.0,0.0,0.0,0.0,0.0,0.0,0.0,0.0,0.0,0.0,0.0,0.0,0.0,0.0,0.0,0.0,0.0,0.0,0.0,0.0,0.0,0.0,0.0,0.0,0.0,0.0,0.0,0.0,0.0,0.0,0.0,0.0,0.0,0.0,0.0,0.0,0.0,0.0,0.0,0.0,0.0,0.0,0.0,0.0,0.0,0.0,0.0,0.0,0.0,0.0,0.0,0.0,0.0,0.0,0.0,0.0,0.0,0.0,0.0,0.0,0.0,0.0,0.0,0.0,0.0,0.0,0.0,0.0,0.0,0.0,0.0,0.0,0.0,0.0,0.0,0.0,0.0,0.0,0.0,0.0,0.0,0.0,0.0,0.0,0.0,0.0,0.0,0.0,0.0,0.0,0.0,0.0,0.0,0.0,0.0,0.0,0.0,0.0,0.0,0.0,0.0,0.0,0.0,0.0,0.0,0.0,0.0,0.0,0.0,0.0,0.0,0.0,0.0,0.0,0.0,0.0,0.0,0.0,0.0,0.0,0.0,0.0,0.0,0.0,0.0,0.0,0.0,0.0,0.0,0.0,0.0,0.0,0.0,0.0,0.0,0.0,0.0,0.0,0.0,0.0,0.0,0.0,0.0,0.0,0.0,0.0,0.0,0.0,0.0,0.0,0.0,0.0,0.0,0.0,0.0,0.0,0.0,0.0,0.0,0.0,0.0,0.0,0.0,0.0,0.0,0.0,0.0,0.0,0.0,0.0,0.0,0.0,0.0,0.0,0.0,0.0,0.0,0.0,0.0,0.0,0.0,0.0,0.0,0.0,0.0,0.0,0.0,0.0,0.0,0.0,0.0,0.0,0.0,0.0,0.0,0.0,0.0,0.0,0.0,0.0,0.0,0.0,0.0,0.0,0.0,0.0,0.0,0.0,0.0,0.0,0.0,0.0,0.0,0.0,0.0,0.0,0.0,0.0,0.0,0.0,0.0,0.0,0.0,0.0,0.0,0.0,0.0,0.0,0.0,0.0,0.0,0.0,0.0,0.0,0.0,0.0,0.0,0.0,0.0,0.0,0.0,0.0,0.0,0.0,0.0,0.0,0.0,0.0,0.0,0.0,0.0,0.0,0.0,0.0,0.0,0.0,0.0,0.0,0.0,0.0,0.0,0.0,0.0,0.0,0.0,0.0,0.0,0.0,0.0,0.0,0.0,0.0,0.0,0.0,0.0,0.0,0.0,0.0,0.0,0.0,0.0,0.0,0.0,0.0,0.0,0.0,0.0,0.0,0.0,0.0,0.0,0.0,0.0,0.0,0.0,0.0,0.0,0.0,0.0,0.0,0.0,0.0,0.0,0.0,0.0,0.0,0.0,0.0,0.0,0.0,0.0,0.0,0.0,0.0,0.0,0.0,0.0,0.0,0.0,0.0,0.0,0.0,0.0,0.0,0.0,0.0,0.0,0.0,0.0,0.0,0.0,0.0,0.0,0.0,0.0,0.0,0.0,0.0,0.0,0.0,0.0,0.0,0.0,0.0,0.0,0.0,0.0,0.0,0.0,0.0,0.0,0.0,0.0,0.0,0.0,0.0,0.0,0.0,0.0,0.0,0.0,0.0,0.0,0.0,0.0,0.0,0.0,0.0,0.0,0.0,0.0,0.0,0.0,0.0,0.0,0.0,0.0,0.0,0.0,0.0,0.0,0.0,0.0,0.0,0.0,0.0,0.0,0.0,0.0,0.0,0.0,0.0,0.0,0.0,0.0,0.0,0.0,0.0,0.0,0.0,0.0,0.0,0.0,0.0,0.0,0.0,0.0,0.0,0.0,0.0,0.0,0.0,0.0,0.0,0.0,0.0,0.0,0.0,0.0,0.0,0.0,0.0,0.0,0.0,0.0,0.0,0.0,0.0,0.0,0.0,0.0,0.0,0.0,0.0,0.0,0.0,0.0,0.0,0.0,0.0,0.0,0.0,0.0,0.0,0.0,0.0,0.0,0.0,0.0,0.0,0.0,0.0,0.0,0.0,0.0,0.0,0.0,0.0,0.0,0.0,0.0,0.0,0.0,0.0,0.0,0.0,0.0,0.0,0.0,0.0,0.0,0.0,0.0,0.0,0.0,0.0,0.0,0.0,0.0,0.0,0.0,0.0,0.0,0.0,0.0,0.0,2.901,0.0,0.0,0.0,0.0,0.0,0.0,0.0,0.0,0.0,0.0,0.0,0.0,0.0,0.0,0.0,0.0,0.0,0.0,0.0,0.0,0.0,0.0,0.0,0.0,0.0,0.0,0.0,0.0,0.0,0.0,0.0,0.0,0.0,0.0,0.0,0.0,0.0,0.0,0.0,0.0,0.0,0.0,0.0,0.0,0.0,0.0,0.0,0.0,0.0,0.0,0.0,0.0,0.0,0.0,0.0,0.0,0.0,0.0,0.0,0.0,0.0,0.0,0.0,0.0,0.0,0.0,0.0,0.0,0.0,0.0,0.0,0.0,0.0,0.0,0.0,0.0,0.0,0.0,0.0,0.0,0.0,0.0,0.0,0.0,0.0,0.0,0.0,0.0,0.0,0.0,0.0,0.0,0.0,0.0,0.0,0.0,0.0,0.0,0.0,0.0,0.0,0.0,0.0,0.0,0.0,0.0,0.0,0.0,0.0,0.0,0.0,0.0,0.0,0.0,0.0,0.0,2.9435,0.0,0.0,0.0,0.0,0.0,0.0,0.0,0.0,0.0,0.0,0.0,0.0,0.0,0.0,0.0,0.0,0.0,0.0,0.0,0.0,0.0,0.0,0.0,0.0,0.0,0.0,0.0,0.0,0.0,0.0,0.0,0.0,0.0,0.0,0.0,0.0,0.0,0.0,0.0,0.0,0.0,0.0,0.0,0.0,0.0,0.0,0.0,0.0,0.0,0.0,0.0,0.0,0.0,0.0,0.0,0.0,0.0,0.0,0.0,0.0,0.0,0.0,0.0,0.0,0.0,0.0,0.0,0.0,0.0,0.0,0.0,0.0,0.0,0.0,0.0,0.0,0.0,0.0,0.0,0.0,0.0,0.0,0.0,0.0,0.0,0.0,0.0,0.0,0.0,0.0,0.0,0.0,0.0,0.0,0.0,0.0,0.0,0.0,0.0,0.0,0.0,0.0,0.0,0.0,0.0,0.0,0.0,0.0,2.7642,2.7701,2.776,2.8063,2.8309,2.8576,2.9034,2.9316,2.9476,0.0,0.0,0.0,0.0,0.0,0.0,0.0,0.0,0.0,0.0,0.0,0.0,0.0,0.0,0.0,0.0,0.0,0.0,0.0,0.0,0.0,0.0,0.0,0.0,0.0,0.0,0.0,0.0,0.0,0.0,0.0,0.0,0.0,0.0,0.0,0.0,0.0,0.0,0.0,2.9302,2.9289,2.9375,2.9551,2.957,0.0,0.0,0.0,0.0,0.0,0.0,0.0,0.0,0.0,0.0,0.0,0.0,0.0,0.0,0.0,0.0,0.0,0.0,0.0,0.0,0.0,0.0,0.0,0.0,0.0,0.0,0.0,0.0,0.0,0.0,0.0,0.0,0.0,0.0,0.0,0.0,0.0,0.0,0.0,0.0,0.0,0.0,0.0,3.0007,2.9851,0.0,0.0,0.0,0.0,0.0,0.0,0.0,0.0,0.0,0.0,0.0,0.0,0.0,2.7789,2.776,2.7569,2.7465,2.7434,2.7434,2.7496,2.7647,2.7968,2.8191,2.8362,2.8749,0.0,2.9355,2.9533,0.0,0.0,0.0,0.0,0.0,0.0,0.0,0.0,0.0,0.0,0.0,0.0,0.0,0.0,0.0,0.0,0.0,0.0,0.0,0.0,0.0,0.0,0.0,0.0,0.0,0.0,0.0,0.0,0.0,0.0,0.0,0.0,0.0,0.0,0.0,0.0,2.9412,2.9328,2.9349,2.9392,2.9513,2.9662,2.982,2.9937,3.0019,3.0194,0.0,0.0,0.0,0.0,0.0,0.0,0.0,0.0,0.0,0.0,0.0,0.0,0.0,0.0,0.0,0.0,0.0,0.0,0.0,0.0,0.0,0.0,0.0,0.0,0.0,0.0,0.0,0.0,0.0,0.0,0.0,0.0,0.0,0.0,0.0,0.0,0.0,0.0,0.0,2.9962,2.9732,2.9589,2.9453,2.9307,0.0,0.0,0.0,0.0,0.0,0.0,0.0,0.0,0.0,2.7864,2.7659,2.7478,2.7369,2.7293,2.7184,2.7137,2.7215,2.7293,2.7386,2.7777,2.8035,2.8255,2.8619,2.891,2.9097,2.9355,2.957,2.9736,0.0,0.0,0.0,0.0,2.9905,2.977,0.0,0.0,0.0,0.0,0.0,0.0,0.0,0.0,0.0,0.0,0.0,0.0,0.0,0.0,0.0,2.396,0.0,0.0,0.0,0.0,0.0,0.0,0.0,0.0,0.0,0.0,0.0,0.0,2.9532,2.9453,2.9453,2.9531,2.9626,2.9751,3.003,3.0185,3.0245,3.0547,3.1218,0.0,0.0,0.0,0.0,0.0,0.0,0.0,0.0,0.0,0.0,0.0,0.0,0.0,0.0,0.0,0.0,0.0,0.0,0.0,0.0,0.0,0.0,0.0,0.0,0.0,0.0,0.0,0.0,0.0,0.0,0.0,0.0,0.0,0.0,0.0,0.0,0.0,0.0,2.9753,2.9532,2.9353,2.9203,2.9044,0.0,0.0,0.0,0.0,0.0,0.0,2.8007,2.773,2.7552,2.7478,2.7341,2.7184,2.7038,2.6989,2.7043,2.7131,2.7281,2.7497,2.7784,2.8146,2.8476,2.8762,2.8897,2.9034,2.9179,2.9299,2.9412,2.9531,2.9644,2.9717,2.9718,2.9753,2.9662,2.9513,0.0,0.0,0.0,0.0,0.0,0.0,0.0,0.0,0.0,0.0,0.0,0.0,0.0,0.0,2.3035,2.4018,2.4982,2.5576,0.0,0.0,0.0,0.0,0.0,0.0,0.0,0.0,0.0,2.9888,2.9681,2.9589,2.9588,2.9664,2.977,2.9905,3.0166,3.0279,3.035,3.1317,3.2222,3.3103,0.0,0.0,0.0,0.0,0.0,0.0,0.0,0.0,0.0,0.0,0.0,0.0,0.0,0.0,0.0,0.0,0.0,0.0,0.0,0.0,0.0,0.0,0.0,0.0,0.0,0.0,0.0,0.0,0.0,0.0,0.0,0.0,0.0,0.0,0.0,0.0,0.0,0.0,0.0,2.9148,2.9007,0.0,0.0,0.0,0.0,2.776,2.773,2.7642,2.7465,2.7293,2.7181,2.7135,2.7007,2.6926,2.6926,2.6775,2.7063,2.7774,2.7878,2.8408,2.93,2.9655,2.998,3.0249,2.9836,2.9777,2.991,2.9402,2.9246,2.9314,2.9394,2.9472,2.9512,2.9453,2.9373,2.9332,0.0,0.0,0.0,0.0,0.0,0.0,0.0,0.0,0.0,0.0,0.0,0.0,0.0,2.2342,2.3237,2.4741,2.5277,2.5565,2.5639,0.0,0.0,0.0,0.0,0.0,0.0,0.0,3.0161,3.0034,2.9872,2.9753,2.9664,2.9771,2.9893,2.9972,3.0234,3.0691,3.13,3.17,3.2723,3.4096,3.4423,3.5094,0.0,0.0,0.0,0.0,0.0,0.0,0.0,0.0,0.0,0.0,0.0,0.0,0.0,0.0,0.0,0.0,0.0,0.0,0.0,0.0,0.0,0.0,0.0,0.0,0.0,0.0,0.0,0.0,0.0,0.0,0.0,0.0,0.0,0.0,0.0,0.0,0.0,2.8892,2.8676,0.0,2.8045,2.8335,2.8456,2.8227,2.8533,2.8694,2.8612,2.8494,2.8408,2.8373,2.8285,2.8267,2.8267,2.8198,2.8298,2.8569,2.8676,2.8918,2.9263,2.9574,2.9889,3.0203,3.0266,3.0441,3.0672,3.0045,2.9527,2.9181,2.9286,2.9328,2.9307,2.9347,2.9265,2.916,0.0,0.0,0.0,0.0,0.0,0.0,0.0,0.0,0.0,0.0,0.0,2.0248,2.216,2.2498,2.3301,2.5149,2.5406,2.5622,2.5985,0.0,0.0,0.0,0.0,0.0,0.0,3.0422,3.0304,3.0166,3.003,2.9905,2.9805,2.9926,2.9988,3.0079,3.0599,3.1369,3.2307,3.266,3.3495,3.4639,3.4937,3.5416,3.5938,0.0,0.0,0.0,0.0,0.0,0.0,0.0,0.0,0.0,0.0,0.0,0.0,0.0,0.0,0.0,0.0,0.0,0.0,0.0,0.0,0.0,0.0,0.0,0.0,0.0,0.0,0.0,0.0,0.0,0.0,0.0,0.0,0.0,0.0,0.0,2.9595,2.9432,2.9233,2.893,2.8521,2.8809,2.8912,2.8715,2.9007,2.9211,2.9175,2.9102,2.9083,2.9083,2.9011,2.9011,2.9011,2.9011,2.911,2.9364,2.9437,2.9612,2.9926,3.0159,3.0456,3.0821,3.0889,3.1081,3.1356,3.0717,3.0229,2.9816,2.9374,2.9175,2.9152,2.9175,2.9152,2.9085,0.0,0.0,0.0,0.0,0.0,0.0,0.0,0.0,0.0,0.0,1.9341,2.0158,2.2088,2.2426,2.3274,2.5118,2.5359,2.5793,2.6741,2.7678,0.0,0.0,0.0,0.0,3.061,3.053,3.0428,3.0292,3.0166,3.0064,2.9988,3.0064,3.0152,3.0305,3.1272,3.228,3.3308,3.4231,3.462,3.4723,3.5623,3.6001,3.5991,0.0,0.0,0.0,0.0,0.0,0.0,0.0,0.0,0.0,0.0,0.0,0.0,0.0,0.0,0.0,0.0,0.0,0.0,0.0,0.0,0.0,0.0,0.0,0.0,0.0,0.0,0.0,0.0,0.0,0.0,0.0,0.0,0.0,3.0732,3.045,3.0436,3.0757,3.0599,3.0305,2.9843,2.9677,2.9472,2.9153,2.9134,2.9151,2.9079,2.9096,2.9096,2.9096,2.9096,2.9096,2.9096,2.9096,2.9414,3.0142,3.0142,3.0535,3.1295,3.1504,3.1821,3.2162,3.1727,3.1737,3.1993,3.1456,3.1261,3.1174,2.9667,2.9067,2.9067,2.9067,2.9067,2.9067,0.0,0.0,0.0,0.0,0.0,0.0,0.0,0.0,0.0,0.0,1.9758,2.0748,2.2023,2.2846,2.3809,2.5061,2.5274,2.5743,2.6676,0.0,0.0,0.0,0.0,0.0,3.0678,3.0618,3.051,3.0374,3.0234,3.0138,3.0068,3.0152,3.054,3.1232,3.1611,3.2654,3.4165,3.4528,3.5032,3.5642,3.589,3.6005,3.5996,0.0,0.0,0.0,0.0,0.0,0.0,0.0,0.0,0.0,0.0,0.0,0.0,0.0,0.0,0.0,0.0,0.0,0.0,0.0,0.0,0.0,0.0,0.0,0.0,0.0,0.0,0.0,0.0,0.0,0.0,0.0,0.0,3.1396,3.1212,3.0965,3.073,3.0534,3.0256,2.9924,2.9541,2.9848,2.9992,2.9841,3.0315,3.062,3.0581,3.0581,3.0581,3.0581,3.0581,3.0581,3.0581,3.0581,3.07,3.0903,3.0903,3.0987,3.1213,3.1351,3.1579,3.1912,3.2004,3.2284,3.2673,3.2151,3.1992,3.2009,3.1096,3.0742,3.0742,3.0742,3.0742,3.0742,0.0,0.0,0.0,0.0,0.0,0.0,0.0,0.0,0.0,0.0,1.9843,2.0878,2.1943,2.2943,2.3925,2.4943,2.5138,2.5773,2.7122,0.0,0.0,0.0,0.0,3.0768,3.0691,3.0651,3.0577,3.0444,3.0343,3.0253,3.019,3.0644,3.1136,3.1719,3.2561,3.3538,3.4562,3.5046,3.5533,3.5994,3.6005,3.5995,3.5995,3.5991,3.5982,3.5949,3.589,3.5811,3.5746,3.5596,0.0,0.0,0.0,0.0,0.0,0.0,0.0,0.0,0.0,0.0,0.0,0.0,0.0,0.0,0.0,0.0,0.0,0.0,0.0,0.0,0.0,0.0,0.0,0.0,3.2097,3.2025,3.1953,3.1578,3.1272,3.1207,3.0935,3.0612,3.0328,3.0503,3.0628,3.0565,3.0954,3.119,3.119,3.1478,3.1647,3.1647,3.1952,3.2121,3.2121,3.2121,3.2121,3.2121,3.2121,3.2121,3.2121,3.2224,3.2212,0.0,3.2416,3.2616,3.2684,3.2583,3.2611,0.0,0.0,0.0,0.0,0.0,3.1378,3.1384,0.0,0.0,0.0,0.0,0.0,0.0,0.0,0.0,0.0,0.0,0.0,2.0786,2.1824,2.2856,2.3866,2.4757,2.4975,2.5868,0.0,0.0,0.0,3.0799,3.08,3.0769,3.0711,3.0691,3.0637,3.049,3.0425,3.0374,3.0312,3.1263,3.1799,3.2029,3.3749,3.4605,3.4801,3.565,3.5997,3.5996,3.5995,3.5994,3.5991,3.5995,3.595,3.5884,3.5825,3.5743,3.5662,3.5538,0.0,0.0,0.0,0.0,0.0,0.0,0.0,0.0,0.0,0.0,0.0,0.0,0.0,0.0,0.0,0.0,0.0,0.0,0.0,0.0,0.0,0.0,0.0,0.0,3.3054,3.2938,3.2663,3.2097,3.1849,3.2229,3.202,3.1765,3.15,3.1351,3.1274,3.119,3.1275,3.1309,3.1309,0.0,0.0,0.0,0.0,3.3406,3.3406,3.3406,3.3406,3.3406,3.3406,3.3406,3.3406,3.3507,3.3257,3.273,3.29,3.2767,3.2441,3.2787,3.3037,3.3076,3.1992,3.1524,3.1472,3.155,3.1627,3.1659,0.0,0.0,0.0,0.0,0.0,0.0,0.0,0.0,0.0,1.8526,2.0003,2.1148,2.148,2.3033,2.4171,2.4472,2.4682,2.5672,0.0,0.0,2.993,3.0768,3.0797,3.0796,3.0781,3.0728,3.0626,3.0501,3.0417,3.0367,3.0323,3.1253,3.2115,3.2897,3.4054,3.5003,3.5729,3.5914,3.5997,3.5996,3.5994,3.5999,3.5996,3.5999,3.5962,3.5883,3.5813,3.5714,3.5605,3.547,3.5354,3.5235,3.5089,0.0,0.0,0.0,0.0,0.0,0.0,0.0,0.0,0.0,0.0,0.0,0.0,0.0,0.0,0.0,0.0,0.0,0.0,0.0,0.0,3.2692,3.2615,3.2494,3.2246,3.2002,3.1882,3.1969,3.1737,3.1507,3.1355,3.1274,3.123,3.119,3.1732,3.211,3.211,3.278,3.3186,3.3186,3.3339,3.3406,3.3406,3.3406,3.3406,3.3406,0.0,0.0,3.3406,3.3406,3.3422,3.3376,3.2968,3.2855,3.3033,3.2753,3.2848,3.3111,3.3146,3.3186,3.3214,3.3241,3.3223,3.3268,0.0,0.0,0.0,0.0,0.0,0.0,0.0,0.0,0.0,0.0,1.9633,2.0686,2.1237,2.2553,2.362,2.4137,2.4893,0.0,0.0,2.8711,2.9719,3.0716,3.0786,3.0801,3.0796,3.0721,3.0646,3.0554,3.052,3.0458,3.0436,3.1765,3.2696,3.3254,3.4652,3.5527,3.5994,3.6009,3.5997,3.5996,3.5991,3.6001,3.6005,3.5965,3.5912,3.584,3.574,3.5618,3.5473,3.5343,3.5217,3.507,3.4889,3.4751,3.4628,0.0,0.0,0.0,0.0,0.0,0.0,0.0,0.0,0.0,0.0,0.0,0.0,0.0,0.0,3.2939,0.0,0.0,3.2473,3.2197,3.216,3.2067,3.1888,3.178,3.1709,3.1694,3.1511,3.1376,3.1257,3.1213,3.1343,3.1715,3.207,3.2442,3.2831,3.3541,3.3947,3.3947,3.432,3.4506,3.4506,3.4506,3.4506,3.4506,3.4506,3.4506,3.4506,3.4506,3.4363,3.4033,3.3809,3.3391,3.2852,3.2546,3.2588,3.2912,3.3081,3.328,3.3509,3.3509,3.352,3.3549,0.0,0.0,0.0,0.0,0.0,0.0,0.0,0.0,0.0,0.0,0.0,2.0038,2.0963,2.1913,2.287,0.0,0.0,0.0,0.0,2.8463,2.9516,3.0628,3.0765,3.0796,3.0808,3.0755,3.0695,3.061,3.0604,3.0559,3.0559,3.2299,3.3172,3.3382,3.5139,3.5943,3.5994,3.5999,3.6001,3.6003,3.601,3.5997,3.5968,3.5896,3.5825,3.5768,3.5628,3.5479,3.5333,3.5189,3.504,3.487,3.4668,3.4473,3.4269,3.4124,3.385,0.0,0.0,0.0,0.0,0.0,0.0,0.0,0.0,0.0,3.2603,3.2621,3.2506,3.2353,3.2144,3.2055,3.1929,3.1763,3.1726,3.1691,3.1568,3.1511,3.1462,3.1438,3.1363,3.1261,3.123,3.119,3.1512,3.2239,3.2425,3.2814,3.3533,3.4276,3.4682,3.4621,3.5166,3.5487,3.5487,3.5487,3.5532,3.5594,3.5594,3.5577,3.5622,3.5622,3.5284,3.4709,3.4694,3.3904,3.2581,3.2379,3.2406,3.2537,3.2537,3.2752,3.3042,3.3183,3.3244,3.3256,0.0,0.0,0.0,0.0,0.0,0.0,0.0,0.0,0.0,0.0,0.0,0.0,0.0,0.0,0.0,0.0,0.0,0.0,2.7191,2.7735,2.8771,3.0529,3.073,3.0804,3.0801,3.0799,3.0765,3.0691,3.0626,3.0593,3.0632,3.2377,3.3225,3.3373,3.5176,3.5997,3.5994,3.5993,3.5996,3.5996,3.6003,3.5952,3.5907,3.5778,3.5722,3.5694,3.5556,3.5393,3.5173,3.5003,3.4791,3.4604,3.434,3.4124,3.3895,3.3643,0.0,3.3142,3.2952,3.2798,3.2621,3.2454,3.2521,3.2639,0.0,0.0,3.2318,3.2284,3.2091,3.1948,3.1856,3.1746,3.1634,3.1555,3.1555,3.15,3.1372,3.1355,3.1278,3.1247,3.123,3.123,3.119,3.119,3.1489,3.2242,3.2908,3.355,3.4189,3.4981,3.5266,3.5065,3.5085,3.5135,3.5135,3.5135,3.5291,3.5492,3.5492,3.5566,3.5622,3.5622,3.5571,3.5453,3.4914,3.3928,3.2676,3.2668,3.2389,3.2002,3.2002,3.2056,3.2214,3.2798,3.2957,3.2876,0.0,0.0,0.0,0.0,0.0,0.0,0.0,0.0,0.0,0.0,0.0,0.0,0.0,0.0,0.0,0.0,0.0,0.0,2.694,2.745,2.8546,3.0458,3.0678,3.0755,3.0793,3.0797,3.0788,3.076,3.0691,3.0658,3.0697,3.1916,3.281,3.3405,3.4681,3.5529,3.5996,3.5996,3.6007,3.6007,3.6004,3.5966,3.5899,3.5744,3.5606,3.5452,3.5316,3.511,0.0,0.0,3.436,3.4147,3.3839,3.3588,3.3379,3.3032,3.2749,0.0,3.2231,3.2162,0.0,0.0,3.2091,3.2126,3.2161,3.202,3.1858,3.1839,3.1746,3.1634,3.1542,3.1449,3.1389,0.0,3.1325,3.1308,3.1252,3.1235,3.1235,3.119,3.1128,3.1128,3.119,3.119,3.1664,3.2838,3.3161,3.3741,3.4829,3.5061,3.5041,3.4899,3.4787,3.4739,3.4739,3.4851,3.4947,3.5152,3.5245,3.5337,3.5412,3.552,3.5549,3.5571,3.4888,3.4296,3.3816,3.2946,3.2483,3.2314,3.1883,3.1802,3.193,3.23,3.2368,3.2334,0.0,0.0,0.0,0.0,0.0,0.0,0.0,0.0,0.0,0.0,0.0,0.0,0.0,0.0,0.0,0.0,0.0,0.0,0.0,2.7085,2.8256,3.0007,3.0451,3.0681,3.0768,3.0799,3.0795,3.0807,3.0754,3.0725,3.0753,3.1629,3.2391,3.3083,3.396,3.4683,3.5302,3.554,3.5636,3.5666,3.5884,3.5938,3.5885,3.5708,3.5492,3.5237,3.5082,3.4832,0.0,0.0,3.3906,3.367,3.3296,3.3014,3.2731,3.2316,3.2021,3.1768,3.1507,0.0,0.0,3.1582,3.1579,3.1596,3.1711,3.1617,3.1504,3.1504,3.1445,3.1385,3.1274,3.1274,3.1252,3.119,3.119,3.119,3.1151,3.1151,3.1151,3.1112,3.0992,3.0952,3.1038,3.1095,3.1742,3.3228,3.3203,3.369,3.5068,3.4899,3.4594,3.4399,3.4234,3.4134,3.4134,3.4284,3.4448,3.4691,3.4851,3.4994,3.5152,3.5291,3.5429,3.5515,3.5003,3.4709,3.4498,3.3473,3.3002,3.2832,3.2303,3.2137,3.2252,3.2369,3.2204,3.1877,0.0,0.0,0.0,0.0,0.0,0.0,0.0,0.0,0.0,0.0,0.0,0.0,0.0,0.0,0.0,0.0,0.0,0.0,0.0,2.6447,2.7751,2.8994,2.9988,3.0576,3.0711,3.0768,3.0798,3.081,3.0799,3.0798,3.0818,3.1694,3.2104,3.2172,3.3048,3.3445,3.3535,3.4383,3.4741,3.4817,3.5587,3.5897,3.5865,3.5612,3.5379,3.5171,3.4887,0.0,0.0,0.0,3.3538,3.3244,3.2777,3.24,0.0,3.1568,3.1128,3.0845,3.0757,0.0,3.0845,3.0828,3.0942,3.1095,3.1257,3.1252,3.123,3.1312,3.1252,3.119,3.119,3.119,3.119,3.119,3.119,3.1151,3.1015,3.1015,3.0975,3.0912,3.0797,3.0707,0.0,3.0804,3.1532,3.2981,3.299,3.3458,3.4673,3.4448,3.4101,3.3555,3.3351,3.3245,3.3245,3.3435,3.3745,3.4151,3.4399,3.4594,3.4756,3.4994,3.5182,3.5337,3.5412,3.502,3.4297,3.4395,3.4015,3.3372,3.3339,3.3339,3.3339,3.338,3.261,3.1617,0.0,0.0,0.0,0.0,0.0,0.0,0.0,0.0,0.0,0.0,0.0,0.0,0.0,0.0,0.0,0.0,0.0,0.0,0.0,2.5538,2.6808,2.8651,2.9243,2.9834,3.0552,3.0686,3.0765,3.0797,3.08,3.0795,3.0806,3.1101,3.1552,3.2102,3.2418,3.285,3.3418,3.3707,3.417,3.4714,3.4954,3.5329,3.5736,3.5514,3.5249,3.4945,0.0,0.0,0.0,0.0,0.0,3.2354,3.1842,3.1442,3.106,3.051,3.0251,3.014,3.0113,3.0241,3.041,3.0477,3.0576,3.0733,3.0975,3.1055,3.1095,3.1213,3.123,3.119,3.119,3.119,3.119,3.119,3.119,3.1151,3.1015,3.0935,3.0871,3.0651,3.0468,0.0,0.0,0.0,0.0,3.2751,3.3086,3.3557,3.4251,3.3899,3.3419,3.3033,3.2819,3.2656,3.2656,3.2926,3.3124,3.3387,3.3882,3.4151,3.43,3.4594,3.4804,3.4899,3.5152,3.514,3.4947,3.4516,3.425,3.4083,3.3592,3.3406,3.3406,3.3406,3.3126,3.2808,0.0,0.0,0.0,0.0,0.0,0.0,0.0,0.0,0.0,0.0,0.0,0.0,0.0,0.0,0.0,0.0,0.0,0.0,0.0,0.0,2.6005,2.7832,2.8512,2.9346,3.0375,3.0548,3.0675,3.0762,3.0767,3.0776,3.08,3.0801,3.1093,3.1636,3.1636,3.1949,3.2497,3.2801,3.3418,3.4216,3.45,3.5034,3.5684,3.5446,3.5168,0.0,0.0,0.0,0.0,0.0,0.0,3.1739,3.1157,3.0616,3.0133,2.975,2.9544,2.9409,2.9483,2.9572,2.9705,2.9837,3.0027,3.0215,3.0568,3.0773,3.0935,3.1112,3.1151,3.119,3.119,3.119,3.119,3.119,3.1151,3.1055,3.0935,3.0757,3.0559,3.0269,3.0074,2.9858,0.0,0.0,0.0,3.2284,3.2757,3.3257,3.3684,3.3298,3.2888,3.2547,3.2287,3.2191,3.2191,3.2382,3.2641,3.2841,3.3282,3.361,3.3781,3.405,3.425,3.4448,3.4691,3.4899,3.5008,3.4647,3.4583,3.4684,3.4169,3.4088,3.4132,3.4132,3.4175,3.4117,0.0,0.0,0.0,0.0,0.0,0.0,0.0,0.0,0.0,0.0,0.0,0.0,0.0,0.0,0.0,0.0,0.0,0.0,0.0,0.0,0.0,2.6543,2.7838,2.9026,3.0087,3.0364,3.0552,3.07,3.0706,3.0735,3.0796,3.0786,3.0782,3.0794,3.0798,3.0785,3.0855,3.1672,3.2499,3.331,3.4185,3.4979,3.56,3.5374,0.0,0.0,0.0,0.0,0.0,0.0,0.0,3.1388,3.0749,2.9968,2.9305,2.9259,2.9029,2.8732,2.8811,2.8795,2.8748,2.9028,2.9273,2.9605,3.006,3.0443,3.0733,3.0935,3.1112,3.119,0.0,0.0,3.119,3.119,3.1095,3.0935,3.0733,3.0435,3.0168,0.0,0.0,0.0,0.0,0.0,0.0,3.1552,0.0,3.2588,3.2966,3.2703,3.2382,3.1981,3.1841,3.1784,3.1784,3.194,3.2191,3.2586,3.2695,3.2911,3.314,3.3382,3.3591,3.3848,3.4151,3.4349,3.4497,3.4739,3.4947,3.5041,3.5088,3.5245,3.5492,3.5492,3.5503,3.5374,0.0,0.0,0.0,0.0,0.0,0.0,0.0,0.0,0.0,0.0,0.0,0.0,0.0,0.0,0.0,0.0,0.0,0.0,0.0,0.0,0.0,0.0,0.0,0.0,0.0,0.0,0.0,0.0,0.0,3.0716,3.0739,3.0735,3.0735,3.0725,3.0726,3.0735,3.0739,3.1013,3.1592,3.2404,0.0,3.396,3.4633,0.0,0.0,0.0,0.0,0.0,0.0,0.0,0.0,0.0,3.0033,2.9576,2.9121,2.892,2.8748,2.8621,2.8525,2.8477,2.8525,2.8732,2.8997,2.9319,2.981,3.013,3.0401,3.0733,3.0814,3.0855,0.0,0.0,0.0,3.119,3.1083,0.0,3.0714,3.0352,0.0,2.947,0.0,2.8976,2.9143,2.99,0.0,0.0,3.2026,3.2571,3.2572,3.2284,3.2053,3.1853,3.164,3.1597,3.1597,3.1784,3.194,3.2135,3.2302,3.2398,3.2453,3.2711,3.2926,3.3124,3.3335,3.3713,3.405,3.425,3.4448,3.4643,3.4739,3.4899,3.5041,3.5152,3.5291,3.5316,0.0,0.0,0.0,0.0,0.0,0.0,0.0,0.0,0.0,0.0,0.0,0.0,0.0,0.0,0.0,0.0,0.0,0.0,0.0,0.0,0.0,0.0,0.0,0.0,0.0,0.0,0.0,0.0,0.0,0.0,0.0,3.0637,3.0671,3.0658,3.0691,3.0689,3.0695,0.0,0.0,0.0,0.0,0.0,0.0,0.0,0.0,0.0,0.0,0.0,0.0,0.0,0.0,3.013,2.9973,2.9576,2.9167,2.8967,0.0,2.8381,2.825,2.8152,2.8088,2.8268,2.8542,2.8873,2.9257,2.9633,3.0044,3.0342,3.051,3.0692,3.0895,3.0975,0.0,0.0,0.0,0.0,3.063,3.017,2.9636,0.0,2.8801,0.0,2.9012,2.9635,3.0213,0.0,3.1766,3.2267,3.2143,3.1977,3.1845,3.1682,3.1582,3.1482,3.1482,3.1597,3.1727,3.1754,3.1928,3.2,3.2057,3.2262,3.2398,3.2547,0.0,3.3033,3.3351,3.3455,3.3713,3.3917,3.4101,3.4349,3.4643,3.4851,3.5041,3.5198,0.0,0.0,0.0,0.0,0.0,0.0,0.0,0.0,0.0,0.0,0.0,0.0,0.0,0.0,0.0,0.0,0.0,0.0,0.0,0.0,0.0,0.0,0.0,0.0,0.0,0.0,0.0,0.0,0.0,0.0,0.0,0.0,0.0,0.0,0.0,0.0,0.0,0.0,0.0,0.0,0.0,0.0,0.0,0.0,0.0,0.0,0.0,0.0,0.0,0.0,3.1009,3.0351,3.0258,2.9842,2.9305,2.9182,2.8685,2.8186,2.8054,2.779,2.7625,2.779,2.8103,2.8381,2.8622,2.9074,2.9528,2.9837,0.0,3.0485,3.079,3.0895,3.1015,3.1134,0.0,3.0794,3.054,2.9987,2.9421,2.8974,2.8619,2.8527,2.8904,2.9451,2.9987,3.06,3.1437,3.188,3.1747,3.1754,3.1694,3.1539,3.1482,3.1482,3.1482,3.1482,3.1482,3.1482,3.1702,3.1747,3.1732,3.1872,3.1981,3.2135,3.2247,0.0,3.2547,3.2695,3.2857,3.314,3.3314,3.3745,3.425,3.4448,3.4739,3.4947,0.0,0.0,0.0,0.0,0.0,0.0,0.0,0.0,0.0,0.0,1.5799,0.0,0.0,0.0,0.0,0.0,0.0,0.0,0.0,0.0,0.0,0.0,0.0,0.0,0.0,0.0,0.0,0.0,0.0,0.0,0.0,0.0,0.0,0.0,0.0,0.0,0.0,0.0,0.0,0.0,0.0,0.0,0.0,0.0,0.0,0.0,0.0,0.0,0.0,0.0,3.1286,3.0593,3.0485,3.006,2.9592,2.935,2.8842,2.8299,2.8069,2.779,2.7625,2.779,2.7955,2.8152,2.8396,2.859,0.0,0.0,2.956,2.987,3.0468,3.0692,3.0797,3.0993,3.096,3.0784,3.0452,2.9966,2.9403,0.0,2.8517,2.861,0.0,0.0,0.0,0.0,0.0,3.1584,3.1569,3.1524,3.1524,3.1482,3.1482,3.1482,3.1482,3.1482,3.1482,3.1482,3.1554,3.1569,3.1569,3.1597,3.1712,3.1898,3.1898,0.0,3.2287,3.2287,3.2437,3.2695,3.2857,3.3208,3.3658,3.3813,3.405,3.425,0.0,0.0,0.0,0.0,0.0,0.0,0.0,0.0,0.0,0.0,1.561,1.5639,0.0,0.0,0.0,0.0,0.0,0.0,0.0,0.0,0.0,0.0,0.0,0.0,0.0,0.0,0.0,0.0,0.0,0.0,0.0,0.0,0.0,0.0,0.0,0.0,0.0,0.0,0.0,0.0,0.0,0.0,0.0,0.0,0.0,0.0,0.0,0.0,0.0,0.0,3.1511,3.0986,3.079,3.0359,2.9902,2.9515,2.8967,2.8365,2.8103,2.779,2.7625,2.7675,2.779,2.7955,2.8054,0.0,0.0,0.0,2.8659,2.9042,2.9741,2.9987,0.0,3.0909,3.0954,3.0771,3.0444,2.9913,0.0,2.8967,2.8488,2.8488,0.0,0.0,0.0,0.0,0.0,3.1482,3.1482,3.1482,3.1482,3.1482,3.1482,3.1482,3.1482,3.1482,3.1482,3.1482,3.1482,3.1482,3.1482,3.1482,3.1539,3.167,3.167,0.0,3.1868,3.1868,3.2023,3.2287,3.2453,3.278,3.3203,3.3398,3.3607,3.3797,0.0,0.0,0.0,0.0,0.0,0.0,0.0,1.5463,1.5403,1.5433,1.5403,1.5433,1.5683,1.5741,1.6293,0.0,0.0,0.0,0.0,0.0,0.0,0.0,0.0,0.0,0.0,0.0,0.0,0.0,0.0,0.0,0.0,0.0,0.0,0.0,0.0,0.0,0.0,0.0,0.0,0.0,0.0,0.0,0.0,0.0,0.0,0.0,0.0,0.0,0.0,0.0,3.1577,3.1252,3.0929,3.0485,3.0017,2.956,2.8997,2.8398,2.8103,2.779,2.7625,2.7625,2.7675,2.7695,2.756,2.7728,0.0,2.7457,2.7635,2.8104,2.8821,2.9294,2.9799,0.0,3.0807,3.0764,3.0427,2.9913,2.9476,0.0,2.8528,0.0,0.0,0.0,0.0,0.0,0.0,0.0,3.1482,3.1482,3.1482,3.1482,3.1482,3.1482,3.1482,3.1482,3.1482,3.1482,3.1482,3.1482,3.1482,3.1482,3.1482,3.1482,3.1482,0.0,0.0,3.1482,3.1655,3.194,3.2094,3.2373,3.2788,3.2989,3.3134,3.3277,0.0,0.0,0.0,0.0,0.0,0.0,0.0,1.5358,1.5283,1.5238,1.5208,1.5238,1.5343,1.5507,1.6159,0.0,0.0,0.0,0.0,0.0,0.0,0.0,0.0,0.0,0.0,0.0,0.0,0.0,0.0,0.0,0.0,0.0,0.0,0.0,0.0,0.0,0.0,0.0,0.0,0.0,0.0,0.0,0.0,0.0,0.0,0.0,0.0,0.0,0.0,0.0,0.0,3.1291,3.07,3.0199,2.9766,2.9425,0.0,0.0,2.8054,2.779,2.7625,2.7625,2.7625,2.746,2.6876,0.0,2.669,2.6398,2.6621,2.7028,2.7729,2.8779,2.9556,2.9705,0.0,3.0734,3.027,2.9989,2.9617,2.9152,0.0,0.0,0.0,0.0,0.0,0.0,0.0,0.0,3.1482,3.1482,3.1482,3.1482,3.1482,3.1482,3.1482,3.1482,3.1482,3.1482,3.1482,3.1482,3.1482,3.1482,3.1482,3.1482,3.1482,0.0,0.0,3.1482,3.1597,3.1841,3.1841,3.1996,3.2247,3.2302,3.2413,3.2508,0.0,0.0,0.0,0.0,0.0,0.0,0.0,1.4935,1.4842,1.4887,1.4825,1.4842,1.5027,1.5254,1.5961,0.0,0.0,0.0,0.0,0.0,0.0,0.0,0.0,0.0,0.0,0.0,0.0,0.0,0.0,0.0,0.0,0.0,0.0,0.0,0.0,0.0,0.0,0.0,0.0,0.0,0.0,0.0,0.0,0.0,0.0,0.0,0.0,0.0,0.0,0.0,0.0,0.0,2.9297,2.8656,0.0,0.0,2.8795,2.8348,2.8054,2.7855,2.774,2.774,2.7489,2.7127,2.6808,0.0,2.6012,2.5635,2.5746,2.6177,2.6961,2.762,2.8438,0.0,0.0,0.0,3.0303,0.0,2.9633,2.9167,0.0,0.0,0.0,0.0,0.0,0.0,0.0,0.0,3.1482,3.1482,3.1482,3.1482,3.1482,3.1482,3.1482,3.1482,3.1482,3.1482,3.1482,3.1482,3.1482,3.1482,3.1482,3.1482,3.1482,0.0,0.0,3.1482,3.1597,3.1799,3.1799,3.1883,3.2094,3.2094,3.2094,3.2135,0.0,0.0,0.0,0.0,0.0,0.0,1.4746,1.456,1.4452,1.4497,1.4465,1.4515,1.4735,1.498,1.5775,1.7415,0.0,0.0,0.0,0.0,0.0,0.0,0.0,0.0,0.0,0.0,0.0,0.0,0.0,0.0,0.0,0.0,0.0,0.0,0.0,0.0,0.0,0.0,0.0,0.0,0.0,0.0,0.0,0.0,0.0,0.0,0.0,0.0,0.0,0.0,0.0,0.0,0.0,0.0,0.0,0.0,2.8031,2.7653,2.7413,2.7267,2.7203,2.7203,2.6968,2.6622,0.0,0.0,2.5364,2.4846,2.4952,2.5347,2.603,2.6688,2.7613,0.0,0.0,2.9842,3.0303,3.0021,2.9585,0.0,0.0,0.0,0.0,0.0,0.0,0.0,0.0,0.0,0.0,3.1482,3.1482,3.1482,3.1482,3.1482,3.1482,3.1482,3.1482,3.1482,3.1482,3.1482,3.1482,3.1482,3.1482,3.1482,3.1482,0.0,0.0,3.1482,3.1597,3.1727,3.1727,3.1769,3.1883,3.1883,3.1883,3.1883,0.0,0.0,0.0,0.0,0.0,0.0,0.0,1.4365,1.4222,1.4032,1.4124,1.4254,1.4397,1.4704,1.559,1.728,0.0,0.0,0.0,0.0,0.0,0.0,0.0,0.0,0.0,0.0,0.0,0.0,0.0,0.0,0.0,0.0,0.0,0.0,0.0,0.0,0.0,0.0,0.0,0.0,0.0,0.0,0.0,0.0,0.0,0.0,0.0,0.0,0.0,0.0,0.0,0.0,0.0,0.0,0.0,0.0,2.6289,2.6001,2.5878,2.5831,2.5831,2.5831,2.5939,2.5803,0.0,0.0,2.4641,2.3947,2.4193,2.4595,2.4845,2.6108,2.7398,2.826,2.9122,0.0,3.0303,2.9913,0.0,0.0,0.0,0.0,0.0,0.0,0.0,0.0,0.0,0.0,0.0,3.1482,3.1482,3.1482,3.1482,3.1482,3.1482,3.1482,3.1482,3.1482,3.1482,3.1482,3.1482,3.1482,3.1482,0.0,0.0,0.0,0.0,3.1482,3.1482,3.1482,3.1482,3.1482,3.1539,3.1539,3.1539,3.1539,0.0,0.0,0.0,0.0,0.0,0.0,0.0,1.3894,1.3782,1.3735,1.3828,1.4007,1.4235,1.4948,1.5915,1.7209,0.0,0.0,0.0,0.0,0.0,0.0,0.0,0.0,0.0,0.0,0.0,0.0,0.0,0.0,0.0,0.0,0.0,0.0,0.0,0.0,0.0,0.0,0.0,0.0,0.0,0.0,0.0,0.0,0.0,0.0,0.0,0.0,0.0,0.0,0.0,0.0,0.0,0.0,0.0,0.0,0.0,0.0,2.5817,2.5879,2.594,2.594,2.5727,2.5422,2.5031,0.0,2.4172,2.396,2.4181,2.4554,2.5068,2.5715,2.6639,2.8207,2.8624,0.0,0.0,0.0,0.0,0.0,0.0,0.0,0.0,0.0,0.0,0.0,0.0,0.0,0.0,3.1482,3.1482,3.1482,3.1482,3.1482,3.1482,3.1482,3.1482,3.1482,3.1482,3.1482,3.1482,3.1482,3.1482,0.0,0.0,0.0,0.0,3.1482,3.1482,3.1482,3.1482,3.1482,3.1482,3.1482,3.1482,3.1482,0.0,0.0,0.0,0.0,0.0,0.0,0.0,1.3628,1.3547,1.3514,1.3628,1.3887,1.4379,1.5119,1.6092,1.7407,0.0,0.0,0.0,0.0,0.0,0.0,0.0,0.0,0.0,0.0,0.0,0.0,0.0,0.0,0.0,0.0,0.0,0.0,0.0,0.0,0.0,0.0,0.0,0.0,0.0,0.0,3.0398,0.0,0.0,0.0,0.0,0.0,0.0,0.0,0.0,0.0,0.0,0.0,0.0,0.0,2.4502,2.4972,0.0,2.5093,2.5153,2.5181,2.4981,0.0,0.0,0.0,2.3927,2.393,2.4173,2.4528,2.5045,2.5481,2.6363,2.8154,2.8334,0.0,0.0,0.0,0.0,0.0,0.0,0.0,0.0,0.0,0.0,0.0,0.0,0.0,0.0,3.1482,3.1482,3.1482,3.1482,3.1482,3.1482,3.1482,3.1482,3.1482,3.1482,3.1482,3.1482,3.1482,3.1482,0.0,0.0,0.0,0.0,3.1482,3.1482,3.1482,3.1482,3.1482,3.1482,3.1482,3.1482,3.1482,0.0,0.0,0.0,0.0,0.0,0.0,0.0,0.0,0.0,0.0,1.3552,1.3955,1.4713,1.5298,1.6243,0.0,0.0,0.0,0.0,0.0,0.0,0.0,0.0,0.0,0.0,0.0,0.0,2.5285,2.7228,2.8471,2.8993,0.0,0.0,0.0,0.0,0.0,0.0,0.0,0.0,0.0,0.0,0.0,0.0,0.0,0.0,0.0,0.0,0.0,0.0,0.0,0.0,0.0,0.0,0.0,0.0,0.0,0.0,0.0,0.0,2.3713,2.3814,2.3779,2.3914,0.0,0.0,0.0,0.0,2.3829,2.418,2.4591,2.4882,2.545,2.6416,2.8121,2.8223,0.0,0.0,0.0,0.0,0.0,0.0,0.0,0.0,0.0,0.0,0.0,0.0,0.0,0.0,3.1482,3.1482,3.1482,3.1482,3.1482,3.1482,3.1482,3.1482,3.1482,3.1482,3.1482,3.1482,3.1482,3.1482,0.0,0.0,0.0,0.0,3.1482,3.1482,3.1482,3.1482,3.1482,3.1482,3.1482,3.1482,3.1482,0.0,0.0,0.0,0.0,0.0,0.0,0.0,0.0,0.0,0.0,1.382,1.4339,1.4633,1.5924,1.7047,0.0,0.0,0.0,0.0,0.0,0.0,0.0,0.0,0.0,0.0,0.0,0.0,2.5005,2.7035,2.8334,2.8868,2.9144,0.0,0.0,0.0,0.0,0.0,0.0,0.0,0.0,0.0,0.0,0.0,0.0,0.0,0.0,3.0213,2.9981,0.0,0.0,0.0,0.0,0.0,0.0,0.0,0.0,2.4154,2.3728,2.3728,0.0,2.3786,2.3814,2.3891,2.3978,0.0,0.0,0.0,0.0,0.0,0.0,0.0,2.5494,2.6247,2.7984,2.7997,2.8255,0.0,0.0,0.0,0.0,0.0,0.0,0.0,0.0,0.0,0.0,0.0,0.0,0.0,3.1482,3.1482,3.1482,3.1482,3.1482,3.1482,3.1482,3.1482,3.1482,3.1482,3.1482,3.1482,3.1482,3.1482,0.0,0.0,0.0,3.1482,3.1482,3.1482,3.1482,3.1482,3.1482,3.1482,3.1482,3.1482,3.1482,0.0,0.0,0.0,0.0,0.0,0.0,0.0,0.0,0.0,0.0,0.0,0.0,0.0,0.0,0.0,0.0,0.0,0.0,0.0,0.0,0.0,0.0,0.0,0.0,0.0,0.0,0.0,0.0,0.0,2.8165,0.0,0.0,0.0,0.0,0.0,0.0,0.0,0.0,0.0,0.0,3.0402,0.0,0.0,0.0,0.0,0.0,3.0279,3.009,0.0,2.9265,2.8632,2.7885,0.0,0.0,0.0,0.0,2.4322,2.394,2.3917,2.3831,2.3801,2.3801,2.3885,2.3937,2.3819,0.0,0.0,0.0,0.0,0.0,0.0,0.0,0.0,0.0,2.8118,0.0,0.0,0.0,0.0,0.0,0.0,0.0,0.0,0.0,0.0,0.0,0.0,0.0,0.0,3.1482,3.1482,3.1482,3.1482,3.1482,3.1482,3.1482,3.1482,3.1482,3.1482,3.1482,3.1482,3.1482,3.1482,0.0,0.0,0.0,3.1482,3.1482,3.1482,3.1482,3.1482,3.1482,3.1482,3.1482,3.1482,3.1482,0.0,0.0,0.0,0.0,0.0,0.0,0.0,0.0,0.0,0.0,0.0,0.0,0.0,0.0,0.0,0.0,0.0,0.0,0.0,0.0,0.0,0.0,0.0,0.0,0.0,0.0,0.0,0.0,0.0,0.0,0.0,0.0,2.9141,0.0,0.0,0.0,0.0,0.0,0.0,0.0,3.0406,0.0,0.0,0.0,0.0,0.0,0.0,0.0,0.0,2.941,2.8753,2.8062,2.7313,0.0,0.0,0.0,0.0,0.0,2.4119,2.399,2.3887,2.3857,2.3902,2.3975,2.3842,0.0,0.0,0.0,0.0,0.0,0.0,2.6147,0.0,0.0,0.0,0.0,0.0,0.0,0.0,0.0,0.0,0.0,0.0,0.0,0.0,0.0,0.0,0.0,0.0,3.1482,3.1482,3.1482,3.1482,3.1482,3.1482,3.1482,3.1482,3.1482,3.1482,3.1482,3.1482,3.1482,3.1482,3.1482,0.0,0.0,3.1482,3.1482,3.1482,3.1482,3.1482,3.1482,3.1482,3.1482,3.1482,3.1482,0.0,0.0,0.0,0.0,0.0,0.0,0.0,0.0,0.0,0.0,0.0,0.0,0.0,0.0,0.0,0.0,0.0,0.0,0.0,0.0,0.0,0.0,0.0,0.0,0.0,0.0,0.0,0.0,0.0,0.0,2.8353,2.8619,2.9048,2.9607,0.0,3.0098,3.0213,3.0286,3.0336,3.041,3.0406,0.0,0.0,0.0,0.0,0.0,0.0,0.0,0.0,2.9473,2.8984,2.846,2.7669,0.0,0.0,0.0,0.0,0.0,2.4456,2.4399,2.4337,2.4044,2.3956,2.3941,2.3823,0.0,0.0,0.0,0.0,0.0,0.0,2.6265,2.6847,0.0,0.0,0.0,0.0,0.0,0.0,0.0,0.0,0.0,0.0,0.0,0.0,0.0,0.0,0.0,0.0,3.1482,3.1482,3.1482,3.1482,3.1482,3.1482,3.1482,3.1482,3.1482,3.1482,3.1482,3.1482,3.1482,3.1482,3.1482,0.0,3.1482,3.1482,3.1482,3.1482,3.1482,3.1482,3.1482,3.1482,3.1482,3.1482,3.1482,0.0,0.0,0.0,0.0,0.0,0.0,0.0,0.0,0.0,0.0,0.0,0.0,0.0,0.0,0.0,0.0,0.0,0.0,0.0,0.0,0.0,0.0,0.0,0.0,0.0,0.0,0.0,0.0,0.0,2.7535,2.8045,2.8551,2.903,2.9453,0.0,2.994,3.0098,3.0188,3.0279,3.0348,0.0,0.0,0.0,0.0,0.0,0.0,0.0,0.0,0.0,0.0,2.9147,2.8628,2.7988,0.0,0.0,0.0,0.0,0.0,2.482,2.4773,2.4701,2.448,2.4348,2.4214,2.3978,2.4055,0.0,0.0,0.0,0.0,0.0,0.0,0.0,0.0,0.0,0.0,0.0,0.0,0.0,0.0,0.0,0.0,0.0,0.0,0.0,0.0,0.0,0.0,0.0,0.0,3.1482,3.1482,3.1482,3.1482,3.1482,3.1482,3.1482,3.1482,3.1482,3.1482,3.1482,3.1482,3.1482,3.1482,0.0,3.1482,3.1482,3.1482,3.1482,3.1482,3.1482,3.1482,3.1482,3.1482,3.1482,3.1482,0.0,0.0,0.0,0.0,0.0,0.0,0.0,0.0,0.0,0.0,0.0,0.0,0.0,0.0,0.0,0.0,0.0,0.0,0.0,0.0,0.0,0.0,0.0,0.0,0.0,0.0,2.3652,2.4097,2.6126,2.7369,2.7858,2.8525,2.8984,0.0,0.0,2.977,2.9988,3.0138,3.0228,3.0316,0.0,0.0,0.0,0.0,0.0,0.0,0.0,0.0,0.0,0.0,0.0,0.0,0.0,0.0,0.0,2.6335,2.5889,2.5566,2.5242,2.5123,2.5075,2.4902,0.0,2.4436,2.4096,2.4173,0.0,0.0,0.0,0.0,0.0,0.0,0.0,0.0,0.0,0.0,0.0,0.0,0.0,0.0,0.0,0.0,0.0,0.0,0.0,0.0,0.0,0.0,0.0,0.0,3.1319,3.1482,3.1482,3.1482,3.1482,3.1482,3.1482,3.1482,3.1482,3.1482,3.1482,3.1482,3.1482,3.1482,3.1482,3.1482,3.1482,3.1482,3.1482,3.1482,3.1482,3.1482,3.1482,3.1482,3.1482,3.1482,0.0,0.0,0.0,0.0,0.0,0.0,0.0,0.0,0.0,0.0,0.0,0.0,0.0,0.0,0.0,0.0,0.0,0.0,0.0,0.0,0.0,0.0,0.0,0.0,0.0,2.2032,2.324,2.3835,2.5765,2.7147,2.7982,2.843,2.8791,2.9134,0.0,2.9663,2.9905,3.0128,3.0234,3.0316,3.0449,0.0,0.0,0.0,0.0,0.0,0.0,0.0,0.0,0.0,0.0,0.0,0.0,0.0,2.7447,2.6886,2.6497,2.6135,2.5745,2.5508,2.5341,2.5137,2.4823,0.0,2.4184,2.4189,0.0,2.4131,0.0,0.0,0.0,0.0,0.0,0.0,0.0,0.0,0.0,0.0,0.0,0.0,0.0,0.0,0.0,0.0,0.0,0.0,0.0,0.0,0.0,0.0,0.0,3.1467,3.1482,3.1482,3.1482,3.1482,3.1482,3.1482,3.1482,3.1482,3.1482,3.1482,3.1482,3.1482,3.1482,3.1482,3.1482,3.1482,3.1482,3.1482,3.1482,3.1482,3.1482,3.1482,3.1482,3.1482,0.0,0.0,0.0,0.0,0.0,0.0,0.0,0.0,0.0,0.0,0.0,0.0,0.0,0.0,0.0,0.0,0.0,0.0,0.0,0.0,0.0,0.0,0.0,1.9716,2.054,2.2051,2.3287,2.4235,2.6051,2.7213,2.776,2.8228,0.0,0.0,0.0,2.9494,2.9734,3.0034,3.018,3.0254,3.0439,3.0492,0.0,0.0,0.0,0.0,0.0,0.0,0.0,0.0,2.9644,2.9217,0.0,2.8324,2.7805,2.7282,2.6839,2.6445,2.6007,2.575,2.5542,2.5282,2.5044,0.0,0.0,2.4189,2.4255,2.4059,2.4834,0.0,0.0,0.0,0.0,0.0,0.0,0.0,0.0,0.0,0.0,0.0,0.0,0.0,0.0,0.0,0.0,0.0,0.0,0.0,0.0,0.0,3.0075,3.0322,3.0337,3.0498,3.0878,3.0878,3.107,3.1482,3.1482,3.1482,3.1482,3.1482,3.1482,3.1467,3.104,3.0878,3.0863,3.0483,3.0337,3.0352,3.0746,3.0878,3.0908,3.1334,3.1482,3.1482,0.0,0.0,0.0,0.0,0.0,0.0,0.0,0.0,0.0,0.0,0.0,0.0,0.0,0.0,0.0,0.0,0.0,0.0,0.0,0.0,0.0,0.0,0.0,1.9773,2.0991,2.204,2.3175,2.4301,2.6067,2.7117,2.7478,0.0,0.0,0.0,0.0,0.0,2.9589,2.9902,3.009,3.0234,3.0417,3.0501,0.0,0.0,0.0,0.0,0.0,0.0,0.0,0.0,2.9786,0.0,0.0,0.0,0.0,2.7642,2.7168,2.6724,2.626,2.5928,2.5628,0.0,0.0,0.0,2.4266,2.4219,2.4344,2.4368,2.525,0.0,0.0,0.0,0.0,0.0,0.0,0.0,0.0,0.0,0.0,0.0,0.0,0.0,0.0,0.0,0.0,0.0,0.0,0.0,0.0,2.9039,2.9374,2.9618,2.9618,2.9792,3.0197,3.0216,3.0468,3.0893,3.0893,3.101,3.1172,3.101,3.0893,3.0878,3.0454,3.0243,3.0182,2.9778,2.9618,2.9648,3.0052,3.0196,3.0322,3.0923,3.1172,3.1187,0.0,0.0,0.0,0.0,0.0,0.0,0.0,0.0,0.0,0.0,0.0,0.0,0.0,0.0,0.0,0.0,0.0,0.0,0.0,0.0,0.0,0.0,0.0,1.9773,2.1659,2.2048,2.2793,2.3913,2.5721,2.6791,2.7213,2.7612,0.0,0.0,0.0,0.0,0.0,2.9786,3.0015,3.0221,3.0425,3.05,3.0501,0.0,0.0,0.0,0.0,0.0,0.0,0.0,2.9869,2.957,0.0,0.0,0.0,0.0,2.7535,2.6987,2.6551,2.6065,2.5648,0.0,0.0,0.0,2.4354,2.4307,2.4478,2.5082,0.0,2.7413,2.8066,0.0,0.0,0.0,0.0,0.0,0.0,0.0,0.0,0.0,0.0,0.0,0.0,0.0,0.0,0.0,0.0,0.0,0.0,2.8617,2.89,2.9566,2.9581,2.9581,2.9581,2.9574,2.9566,2.9624,2.9566,2.9914,3.0468,2.9885,2.9624,2.9624,2.9566,2.961,2.9581,2.9581,2.9581,2.9581,2.9581,2.9576,2.9653,3.0293,3.0483,3.06,0.0,0.0,0.0,0.0,0.0,0.0,0.0,0.0,0.0,0.0,0.0,0.0,0.0,0.0,0.0,0.0,0.0,0.0,0.0,0.0,0.0,0.0,0.0,0.0,0.0,0.0,2.4249,2.5094,2.595,2.6607,0.0,0.0,0.0,2.8282,0.0,0.0,0.0,2.9697,2.9953,3.0142,3.0299,3.0383,3.0436,0.0,0.0,0.0,0.0,0.0,0.0,0.0,0.0,0.0,0.0,0.0,0.0,2.8182,2.763,2.707,2.6551,2.6065,0.0,2.5256,0.0,0.0,0.0,2.4706,0.0,0.0,0.0,2.7361,0.0,0.0,0.0,0.0,0.0,0.0,0.0,0.0,0.0,0.0,0.0,0.0,0.0,0.0,0.0,0.0,0.0,0.0,0.0,2.7906,2.8001,2.8173,2.8173,2.841,2.89,2.8927,2.9124,2.9607,2.9124,2.9237,2.9879,2.9667,2.9622,2.9539,2.9109,2.8897,2.8885,2.8394,2.8173,2.8253,2.8693,2.8894,2.8982,2.9637,3.0165,3.0526,0.0,0.0,0.0,0.0,0.0,0.0,0.0,0.0,0.0,0.0,0.0,0.0,0.0,0.0,0.0,0.0,0.0,0.0,0.0,0.0,0.0,0.0,0.0,0.0,0.0,2.3462,2.4655,0.0,0.0,0.0,0.0,0.0,0.0,2.8017,0.0,2.8902,0.0,2.957,2.9839,3.0068,3.0215,3.0316,3.0414,0.0,0.0,0.0,0.0,0.0,0.0,0.0,0.0,0.0,0.0,0.0,0.0,2.8388,2.7818,2.723,2.6657,0.0,0.0,2.5289,2.4954,2.4782,2.5049,0.0,0.0,0.0,0.0,0.0,0.0,0.0,0.0,0.0,0.0,0.0,0.0,0.0,0.0,0.0,0.0,0.0,0.0,0.0,0.0,0.0,0.0,0.0,0.0,2.7625,2.7625,2.7625,2.7625,2.778,2.8173,2.8173,2.841,2.8789,2.8394,2.841,2.8804,2.8804,2.8804,2.8773,2.8394,2.8173,2.8157,2.7765,2.7625,2.764,2.8032,2.8173,2.8283,2.8946,2.9446,2.9798,0.0,0.0,0.0,0.0,0.0,0.0,0.0,0.0,0.0,0.0,0.0,0.0,0.0,0.0,0.0,0.0,0.0,0.0,0.0,0.0,0.0,0.0,0.0,0.0,0.0,0.0,0.0,0.0,0.0,0.0,0.0,0.0,2.7478,2.773,0.0,2.8731,2.9016,2.9412,2.9737,2.9988,3.0122,3.0266,3.0398,3.0471,0.0,0.0,0.0,0.0,0.0,0.0,0.0,0.0,2.9787,2.9436,2.902,2.8554,2.8037,2.7478,2.6891,0.0,0.0,2.5431,2.5011,0.0,2.5837,2.6245,2.6636,2.7164,0.0,0.0,0.0,0.0,0.0,0.0,0.0,0.0,0.0,0.0,0.0,0.0,0.0,0.0,0.0,0.0,0.0,0.0,0.0,0.0,0.0,2.7625,2.7625,2.7625,2.7625,2.7625,2.7625,2.7625,2.7625,2.7625,2.7625,2.7625,2.7625,2.7625,2.7625,2.7625,2.7625,2.7625,2.7625,2.7625,2.7625,2.7625,2.7625,2.7625,2.767,2.8283,2.8559,2.8689,0.0,0.0,0.0,0.0,0.0,0.0,0.0,0.0,0.0,0.0,0.0,0.0,0.0,0.0,0.0,0.0,0.0,0.0,0.0,0.0,0.0,0.0,0.0,0.0,0.0,0.0,0.0,0.0,0.0,0.0,0.0,0.0,0.0,2.773,0.0,2.8515,2.8957,2.9291,2.9589,2.9857,3.0037,3.0203,3.0328,3.0398,3.0409,0.0,0.0,0.0,0.0,0.0,0.0,0.0,2.9841,2.9474,2.902,2.8603,2.8102,2.7565,2.7017,2.6555,0.0,0.0,2.5433,2.549,2.6099,2.656,2.7016,0.0,0.0,0.0,0.0,0.0,0.0,0.0,0.0,0.0,0.0,0.0,0.0,0.0,0.0,0.0,0.0,0.0,0.0,0.0,0.0,0.0,2.7625,2.7625,2.7625,2.7625,2.7625,2.7625,2.7625,2.7625,2.7625,0.0,2.7625,2.7625,2.7625,2.7625,2.7625,2.7625,2.7625,2.7625,2.7625,2.7625,2.7625,2.7625,2.7625,2.7625,2.764,2.7765,2.8135,2.8637,0.0,0.0,0.0,0.0,0.0,0.0,0.0,0.0,0.0,0.0,0.0,0.0,0.0,0.0,0.0,0.0,0.0,0.0,0.0,0.0,0.0,0.0,0.0,0.0,0.0,0.0,0.0,0.0,0.0,0.0,0.0,0.0,0.0,2.7569,0.0,2.8422,2.8791,2.916,2.9472,2.9717,2.9962,3.015,3.0316,3.0375,3.0428,3.0428,3.0402,0.0,0.0,0.0,0.0,0.0,0.0,0.0,2.9169,2.8748,2.8316,2.7858,2.7282,0.0,0.0,2.6089,0.0,2.6067,2.6598,2.703,2.7395,0.0,0.0,0.0,0.0,0.0,0.0,0.0,0.0,0.0,0.0,0.0,0.0,0.0,0.0,0.0,0.0,0.0,0.0,0.0,0.0,2.7625,2.7625,2.7625,2.7625,2.7625,2.7625,2.7625,2.7625,2.7625,2.7625,2.7625,2.7625,2.7625,2.7625,2.7625,2.7625,2.7625,2.7625,2.7625,2.7625,2.7625,2.7625,2.7625,2.7625,2.7625,2.7625,2.7625,2.7799,2.8113,0.0,0.0,0.0,0.0,0.0,0.0,0.0,0.0,0.0,0.0,0.0,0.0,0.0,0.0,0.0,0.0,0.0,0.0,0.0,0.0,0.0,0.0,0.0,0.0,0.0,0.0,0.0,0.0,0.0,0.0,0.0,0.0,0.0,2.7373,0.0,2.8282,2.8594,2.898,2.9312,2.9589,2.9867,3.0114,3.0292,3.0371,3.0417,3.0477,3.0421,3.0398,3.0398,3.0316,0.0,0.0,0.0,0.0,2.9353,2.8993,2.8633,2.821,2.766,0.0,2.6742,2.6521,2.6451,0.0,2.7094,2.7419,0.0,0.0,0.0,0.0,0.0,0.0,0.0,0.0,0.0,0.0,0.0,0.0,0.0,0.0,0.0,0.0,0.0,0.0,0.0,0.0,0.0,2.7625,2.7625,2.7625,2.7625,2.7625,2.7625,2.7625,2.7625,2.7625,2.7625,2.7625,2.7625,2.7625,2.7625,2.7625,2.7625,2.7625,2.7625,2.7625,2.7625,2.7625,2.7575,2.7575,2.7575,2.7524,2.7524,2.7524,2.7524,2.7575,0.0,0.0,0.0,0.0,0.0,0.0,0.0,0.0,0.0,0.0,0.0,0.0,0.0,0.0,0.0,0.0,0.0,0.0,1.8782,0.0,0.0,2.066,2.1166,2.1793,0.0,0.0,0.0,0.0,0.0,0.0,0.0,0.0,0.0,2.7166,0.0,0.0,2.838,2.8839,2.9181,2.9472,2.9769,3.003,3.0213,3.0292,3.0343,3.039,3.0348,3.0348,3.0398,3.0316,3.0254,0.0,0.0,0.0,2.9437,2.9212,2.8827,2.837,0.0,0.0,2.6517,0.0,2.6652,2.6719,0.0,0.0,0.0,0.0,0.0,0.0,0.0,0.0,0.0,0.0,0.0,0.0,0.0,0.0,0.0,0.0,0.0,0.0,0.0,0.0,0.0,0.0,2.7625,2.7625,2.7625,2.7625,2.7625,2.7625,2.7625,2.7625,2.7625,2.7625,2.7625,2.7625,2.7625,2.7625,2.7625,2.7625,2.7625,2.7625,2.7625,2.7625,2.7625,2.7625,2.7524,2.7452,2.7452,2.7335,2.7269,2.7269,2.7335,2.7401,0.0,0.0,0.0,0.0,0.0,0.0,0.0,0.0,0.0,0.0,0.0,0.0,0.0,0.0,0.0,1.7401,1.7623,1.8061,1.8839,1.9512,2.0016,2.0372,2.0871,2.1471,2.2184,0.0,0.0,0.0,0.0,0.0,0.0,2.5663,2.6297,0.0,0.0,0.0,0.0,2.8601,2.8943,2.9272,2.9551,2.9836,3.0098,3.0152,3.0253,3.0349,3.0273,3.0299,3.0336,3.0316,3.0254,3.0174,3.0094,0.0,0.0,0.0,2.903,0.0,2.8,2.7241,2.6792,0.0,2.717,2.6991,2.7864,0.0,0.0,0.0,0.0,0.0,0.0,0.0,0.0,0.0,0.0,0.0,0.0,0.0,0.0,0.0,0.0,0.0,0.0,0.0,0.0,0.0,2.7625,2.7625,2.7625,2.7625,2.7625,2.7625,2.7625,2.7625,2.7625,2.7625,2.7625,2.7625,2.7625,2.7625,2.7625,2.7625,2.7625,2.7625,2.7625,2.7575,2.7488,2.7488,2.7335,2.7159,2.7159,2.7078,2.6945,2.7041,2.7144,2.7159,0.0,0.0,0.0,0.0,0.0,0.0,0.0,0.0,0.0,0.0,0.0,0.0,0.0,0.0,0.0,0.0,1.7134,1.7634,1.856,1.9239,1.9759,2.0067,2.0636,2.1215,2.1888,0.0,0.0,0.0,0.0,0.0,2.4751,2.5208,2.5832,0.0,2.7034,0.0,0.0,0.0,0.0,0.0,2.9338,2.9626,2.9907,2.9969,3.0075,3.018,3.0166,3.0202,3.0267,3.0292,3.0273,3.0194,3.0138,2.9953,0.0,0.0,0.0,0.0,0.0,0.0,2.7384,2.8116,2.7811,2.7561,0.0,0.0,0.0,0.0,0.0,0.0,0.0,0.0,0.0,0.0,0.0,0.0,0.0,0.0,0.0,0.0,0.0,0.0,0.0,0.0,0.0,0.0,2.7625,2.7625,2.7625,2.7625,2.7625,2.7625,2.7625,2.7625,2.7625,2.7625,2.7604,2.7563,2.7569,2.7554,2.7503,2.7473,2.7473,2.7473,2.7524,2.7488,2.735,2.7284,2.7026,2.6779,2.6727,2.6606,2.6472,2.6606,2.6727,2.6779,0.0,0.0,0.0,0.0,0.0,0.0,0.0,0.0,0.0,0.0,0.0,0.0,0.0,1.6066,1.6228,1.6431,1.6581,1.7067,1.8038,1.8709,1.9291,1.9798,2.0359,0.0,2.1616,0.0,0.0,0.0,0.0,0.0,2.4539,2.4799,2.5214,2.5795,2.6573,2.7112,2.747,0.0,0.0,0.0,0.0,2.9435,0.0,0.0,2.9805,0.0,0.0,3.0098,3.0213,3.0266,3.0266,3.0207,3.0199,3.0053,2.9861,0.0,0.0,0.0,0.0,2.8041,0.0,2.8442,2.8448,0.0,0.0,0.0,0.0,0.0,0.0,0.0,0.0,0.0,0.0,0.0,0.0,0.0,0.0,0.0,0.0,0.0,0.0,0.0,0.0,0.0,0.0,0.0,2.7625,2.7625,2.7625,2.7625,2.7625,2.7625,2.7625,2.7625,2.7625,2.7625,2.7542,2.7416,2.741,2.7336,2.7218,2.7211,2.7233,2.7233,2.735,2.7335,2.7181,2.6841,2.6472,2.6111,2.6002,2.5893,2.5729,2.5784,2.5948,2.6111,0.0,0.0,0.0,0.0,0.0,0.0,0.0,0.0,0.0,0.0,0.0,0.0,0.0,1.5788,1.5846,1.5972,1.642,1.6965,1.7512,1.817,1.8762,1.9251,1.9901,2.0547,2.1188,0.0,0.0,0.0,0.0,2.3754,2.4051,2.4467,2.4855,2.5214,2.6139,2.6774,2.7227,2.7683,0.0,0.0,0.0,0.0,0.0,0.0,0.0,0.0,0.0,0.0,0.0,3.0161,3.0157,3.0138,3.0098,2.9975,2.9773,2.9471,0.0,0.0,0.0,0.0,0.0,2.887,2.8904,2.9026,0.0,0.0,0.0,0.0,0.0,0.0,0.0,0.0,0.0,0.0,0.0,0.0,0.0,0.0,0.0,0.0,0.0,0.0,0.0,0.0,0.0,0.0,0.0,2.7625,2.7625,2.7625,2.7625,2.7625,2.7625,2.7625,2.7625,2.7515,2.7417,2.7277,2.705,2.6944,2.6866,2.6779,2.6788,2.6855,2.6645,2.6645,2.6736,2.6418,2.5988,2.5508,2.5453,2.5342,2.5118,2.5342,2.5453,2.5508,0.0,0.0,0.0,0.0,0.0,0.0,0.0,0.0,0.0,0.0,0.0,0.0,0.0,0.0,1.5614,1.5672,1.6239,1.6694,1.6965,1.7567,1.8224,1.8815,1.9423,2.0131,2.0845,0.0,0.0,0.0,0.0,0.0,0.0,2.4151,2.4467,2.4815,2.5519,2.6227,0.0,0.0,0.0,2.8183,0.0,0.0,2.892,0.0,0.0,0.0,0.0,0.0,0.0,0.0,2.9972,3.0003,2.9956,0.0,0.0,0.0,0.0,0.0,2.8432,0.0,0.0,0.0,0.0,2.9413,0.0,0.0,0.0,0.0,0.0,0.0,0.0,0.0,0.0,0.0,0.0,0.0,0.0,0.0,0.0,0.0,0.0,0.0,0.0,0.0,0.0,0.0,0.0,0.0,2.7625,2.7625,2.7625,2.7625,2.7625,2.756,2.753,2.7405,2.7203,2.6938,2.6661,2.6436,2.6343,2.6218,2.6176,2.6229,2.5879,2.5934,2.6258,2.5825,2.5328,2.4878,2.4778,2.4677,2.4505,2.4677,2.4778,2.4821,0.0,0.0,0.0,0.0,0.0,0.0,0.0,0.0,0.0,0.0,0.0,0.0,0.0,0.0,0.0,1.5672,1.5951,1.6228,1.657,1.6965,1.7567,1.8417,1.9056,1.9786,2.056,2.1118,0.0,0.0,0.0,0.0,0.0,0.0,2.4151,2.4498,2.4775,2.5427,2.6418,0.0,2.7444,2.7897,0.0,2.8492,2.8694,0.0,0.0,0.0,2.8966,2.9166,0.0,2.9608,0.0,0.0,0.0,0.0,0.0,0.0,0.0,0.0,0.0,0.0,0.0,0.0,0.0,0.0,0.0,0.0,0.0,0.0,0.0,0.0,0.0,0.0,0.0,0.0,0.0,0.0,0.0,0.0,0.0,0.0,0.0,0.0,0.0,0.0,0.0,0.0,2.7625,2.7625,2.7625,2.7625,2.7625,2.756,2.756,2.753,2.7405,2.7229,2.6953,2.6491,2.6204,2.5924,2.5674,2.5467,2.5398,2.5342,2.5104,2.5286,2.5784,2.5061,2.4593,2.4234,2.3995,2.3891,2.3891,2.3891,2.3982,2.4073,0.0,0.0,0.0,0.0,0.0,0.0,0.0,0.0,0.0,0.0,0.0,0.0,0.0,0.0,1.541,1.5478,1.5662,1.5894,1.6104,1.6627,1.72,1.7733,1.8643,1.9344,1.9862,2.061,0.0,0.0,0.0,0.0,0.0,0.0,0.0,0.0,2.4482,2.4974,2.5594,2.6315,0.0,0.0,2.7701,2.7979,0.0,0.0,0.0,0.0,0.0,2.8874,2.8997,0.0,2.9316,2.9375,0.0,0.0,0.0,0.0,0.0,0.0,2.8612,0.0,0.0,0.0,0.0,0.0,0.0,0.0,0.0,0.0,0.0,0.0,0.0,0.0,0.0,0.0,0.0,0.0,0.0,0.0,0.0,0.0,0.0,0.0,0.0,0.0,0.0,0.0,2.7625,2.7625,2.7625,2.7625,2.7545,2.7434,2.7434,2.7324,2.714,2.6858,2.6461,2.6092,2.554,2.529,2.5174,2.4865,2.4865,2.5104,2.4637,2.458,2.4694,2.4421,2.4073,2.3793,2.3688,2.3628,2.3522,2.3641,2.3688,2.3734,0.0,0.0,0.0,0.0,0.0,0.0,0.0,0.0,0.0,0.0,0.0,0.0,0.0,0.0,0.0,1.541,1.5536,1.5662,1.5826,1.6228,1.674,1.7357,1.817,1.8922,1.9512,2.022,2.0858,0.0,0.0,0.0,0.0,0.0,0.0,0.0,0.0,0.0,0.0,0.0,0.0,0.0,2.7728,0.0,0.0,2.8805,2.8877,0.0,0.0,0.0,2.9447,2.9703,2.9898,0.0,0.0,0.0,0.0,0.0,0.0,0.0,0.0,0.0,0.0,0.0,0.0,0.0,3.0566,3.017,0.0,0.0,0.0,0.0,0.0,0.0,0.0,0.0,0.0,0.0,0.0,0.0,0.0,0.0,0.0,0.0,0.0,2.7625,2.7625,2.7625,2.7625,2.7625,2.7625,2.7625,2.753,2.7405,2.7357,2.7144,2.6704,2.6412,2.5995,2.5442,2.494,2.4646,2.4505,2.4247,2.4247,2.4376,2.4073,2.3897,2.3897,2.378,2.3616,2.3509,2.345,2.3318,2.3271,2.339,2.3378,2.3378,0.0,0.0,0.0,0.0,0.0,0.0,0.0,0.0,0.0,0.0,0.0,0.0,0.0,0.0,0.0,0.0,1.5557,1.5625,1.5821,1.6052,0.0,1.7153,1.7744,1.8483,1.9316,1.9823,2.0422,2.1131,0.0,0.0,0.0,0.0,0.0,0.0,0.0,0.0,0.0,0.0,0.0,2.7919,2.8151,2.8733,0.0,0.0,2.9591,2.9625,2.9807,3.0015,3.0282,3.0557,3.0894,0.0,0.0,0.0,0.0,0.0,2.9059,0.0,0.0,0.0,0.0,0.0,0.0,0.0,3.0763,3.0592,3.0126,0.0,0.0,0.0,0.0,0.0,0.0,0.0,0.0,0.0,0.0,0.0,0.0,0.0,0.0,0.0,2.7625,2.7625,2.7625,2.7625,2.756,2.756,2.756,2.7545,2.7434,2.7294,2.7174,2.6794,2.6175,2.5894,2.545,2.4726,2.438,2.4125,2.3832,2.37,2.3569,2.3569,2.3463,2.3403,2.3403,2.3198,2.321,2.333,2.3198,2.3078,2.3078,2.3078,2.3078,2.3078,1.541,0.0,0.0,0.0,0.0,0.0,0.0,0.0,0.0,0.0,0.0,0.0,0.0,0.0,0.0,0.0,1.6475,1.6475,1.6475,1.6628,1.6832,1.7174,1.7656,1.817,1.8721,1.9251,1.9875,2.0573,0.0,0.0,0.0,0.0,0.0,0.0,0.0,0.0,0.0,0.0,0.0,2.8428,2.8362,0.0,2.8887,2.8963,2.9051,2.9175,2.9523,2.9692,2.9791,3.0172,3.0475,3.0736,0.0,0.0,0.0,0.0,0.0,0.0,0.0,0.0,0.0,0.0,0.0,0.0,3.1031,3.069,3.0249,0.0,0.0,0.0,0.0,0.0,0.0,0.0,0.0,0.0,0.0,0.0,0.0,0.0,0.0,0.0,2.7625,2.7625,2.7625,2.7625,2.7515,2.7419,2.7419,2.725,2.6965,2.6686,2.6468,2.6001,2.5394,2.5123,2.4734,2.4216,2.3893,2.3697,2.3628,2.3522,2.3509,2.3569,2.3463,2.3403,2.3403,2.3198,2.3138,2.3138,2.3138,2.3078,2.3078,2.3078,2.3078,2.3078,1.541,0.0,0.0,0.0,0.0,0.0,0.0,0.0,0.0,0.0,0.0,0.0,0.0,0.0,0.0,0.0,0.0,0.0,0.0,0.0,0.0,1.7286,1.7734,1.8191,1.8562,1.9045,1.9495,1.9901,0.0,0.0,0.0,0.0,0.0,0.0,0.0,0.0,0.0,0.0,2.6974,2.806,2.8403,0.0,2.9457,2.9526,2.9582,2.9699,3.0082,3.0394,3.075,3.1008,3.1338,0.0,0.0,3.148,3.162,0.0,3.0951,3.0622,0.0,0.0,0.0,3.0659,0.0,0.0,0.0,3.1004,3.0616,0.0,0.0,0.0,0.0,0.0,0.0,0.0,0.0,0.0,0.0,0.0,0.0,0.0,0.0,0.0,2.7625,2.7625,2.7625,2.7625,2.75,2.7378,2.7388,2.7152,2.6842,2.6486,2.619,2.5661,2.5037,2.4688,2.4258,2.3735,2.3577,2.3454,2.3318,2.3271,2.3271,2.3318,2.3271,2.3271,2.3258,2.3138,2.3078,2.3078,2.3078,2.3078,2.3078,2.3078,2.3078,2.3078,1.541,0.0,0.0,0.0,0.0,0.0,0.0,0.0,0.0,0.0,0.0,0.0,0.0,0.0,0.0,0.0,0.0,0.0,0.0,0.0,0.0,0.0,1.7812,1.8141,1.8516,1.8943,1.9242,1.9572,0.0,0.0,0.0,0.0,0.0,0.0,0.0,0.0,0.0,0.0,0.0,2.7643,0.0,2.9162,3.0017,3.0054,3.0097,3.0182,3.0543,3.1083,3.1654,3.1841,3.2231,3.253,3.2117,3.2182,0.0,0.0,0.0,0.0,0.0,0.0,0.0,0.0,0.0,3.1113,0.0,0.0,0.0,0.0,0.0,0.0,0.0,0.0,0.0,0.0,0.0,0.0,0.0,0.0,0.0,0.0,0.0,0.0,0.0,2.7625,2.7625,2.7625,2.7434,2.7372,2.7334,2.703,2.6722,2.6406,2.5939,2.5409,2.4645,2.4322,2.3888,2.3359,2.3356,2.3271,2.3078,2.3078,2.3078,2.3078,2.3078,2.3078,2.3078,2.3078,2.3078,2.3078,2.3078,2.3078,2.3078,2.3078,2.3078,2.3078,1.541,1.5723,0.0,0.0,0.0,0.0,0.0,0.0,0.0,0.0,0.0,0.0,0.0,0.0,0.0,0.0,0.0,0.0,1.6762,0.0,0.0,0.0,1.7602,1.7863,1.8337,1.8638,1.9258,2.0106,0.0,0.0,0.0,0.0,0.0,0.0,2.371,0.0,0.0,0.0,2.6688,0.0,2.813,2.8622,0.0,2.938,2.9425,2.947,3.0011,3.0584,3.114,0.0,3.1912,3.2301,0.0,3.2822,3.3003,0.0,0.0,0.0,0.0,0.0,0.0,0.0,3.1616,0.0,0.0,0.0,0.0,3.101,0.0,0.0,0.0,0.0,0.0,0.0,0.0,0.0,0.0,0.0,0.0,0.0,0.0,0.0,0.0,2.7625,2.7625,2.7625,2.739,2.7246,2.7208,2.6669,2.625,2.5976,2.5383,2.4794,2.4197,2.3876,2.3482,2.315,2.3138,2.3138,2.3078,2.3078,2.3078,2.3078,2.3078,2.3078,2.3078,2.3078,2.3078,2.3078,2.3078,2.3078,2.3078,2.3078,2.3078,2.3078,1.5791,1.5937,0.0,0.0,0.0,0.0,0.0,0.0,0.0,0.0,0.0,0.0,0.0,0.0,0.0,0.0,0.0,1.5903,0.0,0.0,0.0,0.0,0.0,0.0,0.0,1.8532,1.8949,0.0,2.0076,0.0,0.0,0.0,0.0,0.0,2.3929,0.0,2.5511,0.0,2.6422,0.0,0.0,0.0,0.0,2.8873,2.9152,2.9335,2.9544,3.0054,3.0683,0.0,3.16,0.0,0.0,0.0,0.0,0.0,0.0,0.0,0.0,0.0,0.0,0.0,0.0,0.0,3.1603,0.0,3.114,0.0,0.0,0.0,0.0,0.0,0.0,0.0,2.7906,0.0,0.0,0.0,0.0,0.0,0.0,0.0,0.0,0.0,0.0,0.0,2.7419,2.7291,2.7319,2.6861,2.6472,2.6115,2.5564,2.4953,2.4327,2.402,2.368,2.3271,2.3271,2.3198,2.3078,2.3078,2.3078,2.3078,2.3078,2.3078,2.3078,2.3078,2.3078,2.3078,2.3078,2.3078,2.3078,2.3078,2.3078,2.3078,1.6572,0.0,0.0,0.0,0.0,0.0,0.0,0.0,0.0,0.0,0.0,0.0,1.6447,1.5931,0.0,0.0,1.4984,1.5204,0.0,0.0,1.6968,0.0,0.0,0.0,0.0,0.0,0.0,0.0,0.0,0.0,0.0,0.0,0.0,0.0,0.0,2.4529,2.5189,0.0,0.0,2.6457,2.6841,2.7269,2.784,2.8398,2.8779,2.9029,2.9059,2.9499,3.0097,3.0584,3.1145,0.0,3.1967,0.0,0.0,0.0,0.0,0.0,3.3006,0.0,0.0,0.0,0.0,0.0,0.0,0.0,0.0,0.0,0.0,0.0,0.0,0.0,0.0,0.0,0.0,0.0,0.0,0.0,0.0,0.0,0.0,0.0,0.0,0.0,0.0,2.7625,2.75,2.7408,2.7388,2.7055,2.6683,2.6386,2.58,2.5254,2.4651,2.4326,2.3923,2.3463,2.3403,2.3271,2.3078,2.3078,2.3078,2.3078,2.3078,2.3078,2.3078,2.3078,2.3078,2.3078,2.3078,2.3078,2.3078,2.3078,2.3078,2.3078,1.7735,1.7585,0.0,0.0,0.0,0.0,0.0,0.0,0.0,0.0,0.0,0.0,0.0,0.0,0.0,0.0,0.0,1.4784,1.5196,0.0,1.6621,0.0,0.0,1.791,0.0,0.0,0.0,0.0,0.0,0.0,0.0,0.0,0.0,0.0,0.0,2.4131,2.4509,2.4765,2.5203,2.5837,2.6176,2.6826,2.7625,0.0,2.8088,2.8268,2.8479,0.0,0.0,2.9968,3.0468,0.0,0.0,0.0,0.0,0.0,0.0,0.0,0.0,0.0,0.0,3.2318,0.0,0.0,0.0,0.0,3.119,0.0,0.0,0.0,0.0,0.0,0.0,0.0,0.0,0.0,0.0,0.0,0.0,0.0,0.0,0.0,0.0,0.0,0.0,2.7625,2.75,2.7405,2.7419,2.7119,2.6835,2.6515,2.6122,2.5564,2.5005,2.4536,2.4073,2.3569,2.3463,2.3271,2.3078,2.3078,2.3078,2.3078,2.3078,2.3078,2.3078,2.3078,2.3078,2.3078,2.3078,2.3078,2.3078,2.3078,2.3078,2.3078,0.0,0.0,0.0,0.0,0.0,0.0,0.0,1.8585,0.0,0.0,0.0,0.0,0.0,1.5731,1.4965,0.0,0.0,1.4729,1.5249,1.6129,0.0,0.0,0.0,1.8004,0.0,0.0,0.0,0.0,0.0,0.0,0.0,0.0,0.0,0.0,0.0,2.376,0.0,0.0,0.0,0.0,0.0,2.6472,2.6945,0.0,0.0,2.8103,2.8137,2.8494,0.0,2.939,2.9962,3.0526,3.0811,3.1206,3.1623,3.1711,3.2038,0.0,0.0,0.0,3.2318,3.202,0.0,0.0,0.0,0.0,0.0,0.0,0.0,0.0,0.0,0.0,0.0,0.0,0.0,0.0,0.0,0.0,0.0,0.0,0.0,0.0,0.0,0.0,0.0,2.7625,2.7545,2.753,2.753,2.7375,2.7149,2.6835,2.6385,2.5893,2.5286,2.4821,2.4319,2.3819,2.3628,2.3378,2.3078,2.3078,2.3078,2.3078,2.3078,2.3078,2.3078,2.3078,2.3078,2.3078,2.3078,2.3078,2.3078,2.3078,2.3078,2.3078,1.8613,0.0,0.0,0.0,0.0,0.0,0.0,0.0,0.0,0.0,1.7737,0.0,1.6534,0.0,1.4683,0.0,1.4445,1.4606,1.5142,1.6125,0.0,1.7213,1.8005,0.0,0.0,0.0,0.0,0.0,0.0,2.0031,0.0,0.0,0.0,0.0,0.0,2.3343,2.3641,0.0,2.4086,0.0,0.0,2.5934,0.0,0.0,2.7423,2.7806,0.0,2.8171,2.8479,2.8826,2.9316,2.9821,3.0081,3.0526,3.101,3.11,3.1487,3.1894,3.1839,3.1821,0.0,3.1487,3.1215,0.0,3.0779,0.0,0.0,0.0,0.0,0.0,0.0,0.0,0.0,0.0,0.0,0.0,0.0,2.767,0.0,0.0,0.0,0.0,0.0,0.0,2.7625,2.7625,2.7625,2.7625,0.0,0.0,2.7375,2.706,2.6616,2.6115,2.5521,2.4975,2.4447,2.3891,2.3641,2.339,2.3078,2.3078,2.3078,2.3078,2.3078,2.3078,2.3078,2.3078,2.3078,2.3078,2.3078,2.3078,2.3078,2.3078,2.3078,2.3078,0.0,0.0,0.0,0.0,1.9177,0.0,0.0,0.0,1.8963,0.0,1.7951,1.7204,1.673,1.5612,1.4779,1.4631,1.4518,1.458,1.5033,1.6037,0.0,0.0,1.8276,1.8594,1.8337,0.0,0.0,0.0,0.0,0.0,0.0,0.0,0.0,0.0,2.242,0.0,2.3078,2.3271,2.3582,2.3949,2.4664,2.5328,2.5893,2.6297,2.6841,2.7386,2.769,2.7855,2.8005,2.8299,2.8605,2.892,2.9198,2.9722,3.0309,3.0426,3.0861,3.1257,3.1257,3.1162,3.0988,3.0788,0.0,0.0,0.0,0.0,3.0296,0.0,0.0,0.0,0.0,0.0,0.0,0.0,0.0,0.0,0.0,0.0,0.0,0.0,0.0,0.0,0.0,2.7625,2.7625,2.7625,2.7625,2.7625,0.0,0.0,2.75,2.7184,2.6761,2.6217,2.5699,2.4929,2.4305,2.3891,2.3582,2.3271,2.3078,2.3078,2.3078,2.3078,2.3078,2.3078,2.3078,2.3078,2.3078,2.3078,2.3078,2.3078,2.3078,2.3078,2.3078,2.3078,1.918,1.9605,1.9905,0.0,1.9678,1.9756,0.0,0.0,0.0,0.0,1.8035,1.7123,1.6335,1.5328,1.4698,1.4705,1.4807,0.0,0.0,0.0,0.0,1.7742,1.8635,1.8966,1.8613,1.8967,0.0,1.8815,0.0,0.0,1.9497,0.0,0.0,0.0,0.0,0.0,2.28,2.2969,2.3271,2.3747,2.4247,2.4765,0.0,0.0,2.6312,2.6788,2.7335,2.764,2.7855,2.794,2.8253,2.8606,2.8795,2.9287,2.9837,3.007,3.041,3.0716,3.0716,3.0617,3.046,3.0267,3.0002,2.9796,0.0,0.0,0.0,0.0,0.0,0.0,0.0,0.0,0.0,0.0,0.0,0.0,0.0,0.0,0.0,2.7625,0.0,0.0,2.7625,2.7625,2.7625,2.7625,2.7625,2.7625,2.7625,0.0,0.0,2.7184,2.6761,2.6259,2.5723,2.4912,2.4305,2.3891,2.3582,2.3271,2.3078,2.3078,2.3078,2.3078,2.3078,2.3078,2.3078,2.3078,2.3078,2.3078,2.3078,2.3078,2.3078,2.3078,2.3078,2.3078,1.9505,0.0,0.0,2.0242,0.0,0.0,2.0195,0.0,0.0,1.8913,1.7844,0.0,1.5906,1.5068,1.4566,1.4566,1.4915,0.0,1.6162,0.0,0.0,1.8294,1.9214,1.9554,1.9115,1.9412,0.0,1.9059,0.0,0.0,1.9297,0.0,0.0,0.0,0.0,2.1827,0.0,2.2726,2.315,2.3509,2.3852,0.0,0.0,2.5272,2.5825,2.6312,2.6736,2.7218,2.764,2.769,2.7925,2.8204,2.835,2.8748,2.9257,2.9483,2.9766,3.0044,3.0044,2.9924,2.9733,2.9572,2.9326,2.9125,2.9082,2.9055,2.9073,0.0,0.0,0.0,0.0,0.0,0.0,0.0,0.0,0.0,0.0,0.0,0.0,0.0,2.7625,0.0,2.7625,2.7625,2.7625,2.7625,2.7625,2.7625,0.0,0.0,0.0,2.714,2.6582,2.6078,2.5497,2.4727,2.4131,2.376,2.345,2.321,2.3078,2.3078,2.3078,2.3078,2.3078,2.3078,2.3078,2.3078,2.3078,2.3078,2.3078,2.3078,2.3078,2.3078,2.3078,2.3078,1.9955,0.0,0.0,0.0,0.0,0.0,0.0,2.0029,0.0,1.8816,0.0,1.6453,1.5477,1.481,1.4482,1.4482,0.0,1.5499,1.6394,1.744,1.8336,1.9002,1.9794,2.0091,1.9716,1.9924,1.9795,0.0,0.0,0.0,0.0,0.0,0.0,0.0,0.0,0.0,0.0,2.2592,2.303,2.3343,2.3509,2.3793,2.4234,2.4708,2.5272,2.5784,2.6136,2.6683,2.735,2.7473,2.7625,2.779,2.7905,2.8253,2.8654,2.8811,2.9106,2.938,2.938,2.9182,2.8997,2.8858,2.8606,2.8432,2.8449,2.8414,2.8455,2.8581,2.8535,2.8424,0.0,0.0,0.0,0.0,0.0,0.0,0.0,0.0,0.0,0.0,0.0,0.0,0.0,0.0,2.7625,2.7625,2.7625,2.7625,0.0,0.0,0.0,2.6988,2.6379,2.5814,2.5189,0.0,2.3897,2.3628,2.3258,2.3078,2.3078,2.3078,2.3078,2.3078,2.3078,2.3078,2.3078,2.3078,2.3078,2.3078,2.3078,2.3078,2.3078,2.3078,2.3078,2.3078,0.0,0.0,0.0,0.0,0.0,2.0566,2.0566,2.0177,1.9548,1.8816,1.7844,1.678,1.556,1.4985,1.465,1.465,1.5068,0.0,0.0,0.0,0.0,1.9002,1.9627,2.007,2.0149,2.0382,2.0244,0.0,0.0,0.0,0.0,0.0,0.0,0.0,0.0,0.0,2.1939,2.2347,0.0,2.2969,2.3138,2.3378,2.3793,2.4234,2.465,2.5061,2.5605,2.6326,2.7055,2.7107,2.7335,2.7625,2.7675,2.7974,2.8317,2.8429,2.8605,2.8654,2.8654,2.859,2.8477,2.8381,2.8201,2.8069,2.8088,2.808,2.8087,2.8102,2.8087,2.8057,2.7946,0.0,0.0,0.0,0.0,0.0,0.0,0.0,0.0,0.0,0.0,2.7625,0.0,0.0,2.7625,2.7625,2.7625,0.0,0.0,0.0,0.0,0.0,2.6325,0.0,0.0,0.0,2.3819,2.3628,2.3258,2.3078,2.3078,2.3078,2.3078,2.3078,2.3078,2.3078,2.3078,2.3078,2.3078,2.3078,2.3078,2.3078,2.3078,2.3078,2.3078,2.3078,0.0,0.0,0.0,0.0,0.0,0.0,0.0,2.0177,0.0,1.8825,1.7925,1.6862,1.556,1.5127,1.4824,1.458,1.5134,1.5745,1.6492,1.7448,1.8336,1.9152,1.9784,0.0,2.0411,2.0566,2.0469,2.0254,0.0,0.0,0.0,0.0,0.0,0.0,0.0,2.0729,0.0,0.0,0.0,2.2555,2.2787,2.309,2.3378,2.378,2.4131,2.4478,2.4865,2.5384,2.6056,2.6539,2.6855,2.7034,2.71,2.7408,2.7675,2.774,2.7925,2.8155,2.8155,2.8122,2.8039,2.7989,2.7855,2.7685,2.7685,2.756,2.75,2.75,2.7405,2.7303,2.7233,2.7277,0.0,0.0,0.0,0.0,0.0,0.0,0.0,0.0,0.0,0.0,0.0,0.0,0.0,0.0,0.0,0.0,0.0,0.0,0.0,0.0,0.0,0.0,0.0,0.0,0.0,2.3509,2.321,2.3078,2.3078,2.3078,2.3078,2.3078,2.3078,2.3078,2.3078,2.3078,2.3078,2.3078,2.3078,2.3078,2.3078,2.3078,2.3078,2.3115,0.0,2.0566,0.0,0.0,2.0644,0.0,2.0713,2.0466,1.993,1.895,1.8126,1.7097,1.6012,1.5576,1.5282,1.4866,1.5269,1.5782,1.6436,1.7318,1.8247,1.9222,1.9784,2.0264,2.0566,2.0566,2.0566,0.0,0.0,0.0,0.0,0.0,0.0,0.0,0.0,0.0,0.0,0.0,2.1637,2.2217,2.2407,2.2665,2.2957,2.3258,2.3497,2.3767,2.3943,2.4234,2.4694,2.5563,2.6122,2.6404,2.6525,2.6736,2.7011,2.7063,2.7269,2.7524,2.7575,2.759,2.759,2.759,2.7437,2.7233,2.7225,2.707,2.6878,2.6865,2.6674,2.6535,2.6549,2.665,0.0,0.0,0.0,0.0,0.0,0.0,0.0,0.0,0.0,0.0,2.7625,0.0,0.0,0.0,0.0,0.0,0.0,0.0,0.0,0.0,0.0,2.5216,2.4491,0.0,2.3713,2.3403,2.321,2.3078,2.3078,2.3078,2.3078,2.3078,2.3078,2.3078,2.3078,2.3078,2.3078,2.3078,2.3078,2.3078,2.3078,2.3078,2.3153,2.3401,0.0,0.0,0.0,0.0,0.0,0.0,2.1172,2.1331,2.0926,1.9634,1.8694,1.7902,1.7361,1.674,1.6309,1.6191,1.5792,1.5977,1.6784,1.6972,1.7691,1.9002,1.9399,1.9951,2.0566,2.0566,2.0566,0.0,0.0,0.0,0.0,0.0,0.0,0.0,0.0,0.0,0.0,2.1094,2.144,2.2115,2.1902,2.1975,2.2309,2.2482,2.2543,2.2592,2.2932,2.304,2.316,2.3682,2.4781,2.5948,2.5948,2.615,2.6404,2.651,2.6616,2.6669,2.6774,2.6788,2.6788,2.6788,2.6788,2.6736,2.6606,2.6562,2.6526,2.6412,2.6153,2.6028,2.6127,2.6059,2.6179,0.0,0.0,0.0,0.0,0.0,2.7625,2.7625,0.0,0.0,0.0,2.7625,0.0,0.0,2.7625,0.0,0.0,0.0,0.0,2.6309,0.0,2.4993,2.4491,2.3901,2.3548,2.3403,2.321,2.3078,2.3078,2.3078,2.3078,2.3078,2.3078,2.3078,2.3078,2.3078,2.3078,2.3078,2.3078,2.3078,2.3078,2.3078,2.3464,2.3991,0.0,0.0,0.0,0.0,0.0,0.0,0.0,2.1583,2.1377,2.096,1.9916,1.8897,1.8008,1.7681,1.7278,1.6727,1.661,1.6572,1.6676,1.7104,1.7672,1.8514,1.924,1.9872,2.042,2.0566,2.0566,0.0,0.0,0.0,0.0,0.0,0.0,0.0,0.0,2.04,2.0563,2.0737,2.1138,2.1585,2.1922,2.2174,2.2437,2.2722,2.2799,2.2817,2.2675,2.2669,2.2684,2.2592,2.3433,2.4567,2.4865,2.5133,2.5342,2.5536,2.5879,2.615,2.6204,2.6351,2.6457,2.6457,2.6351,2.6218,2.6165,2.5863,2.5562,2.5534,2.5273,2.5106,2.5308,2.5423,2.5675,0.0,0.0,0.0,0.0,0.0,0.0,0.0,0.0,2.7625,0.0,2.753,2.75,0.0,0.0,0.0,0.0,0.0,0.0,2.5955,0.0,2.4771,2.4157,2.3803,2.3416,2.309,2.303,2.2896,2.2653,2.2787,2.2909,2.2969,2.2969,2.3017,2.3078,2.3078,2.3078,2.3078,2.3078,2.3078,2.3078,2.3078,2.3502,2.4079,2.0732,0.0,2.1279,0.0,2.1787,2.207,2.207,2.199,2.1996,2.2054,2.1312,2.0345,1.9295,1.8993,1.8596,1.7911,1.7671,1.742,1.7181,1.7379,1.783,1.8353,1.9073,0.0,2.0264,2.042,2.0566,2.0566,2.0566,0.0,0.0,0.0,0.0,0.0,2.0355,2.0327,2.0323,2.0565,2.0864,2.1179,2.1592,2.1874,2.208,2.2309,2.2457,2.2412,2.2048,2.1953,2.1889,2.1649,2.1972,2.2701,2.3564,2.4034,2.4323,2.4523,2.4991,2.5384,2.5439,2.5591,2.5783,2.5783,2.5646,2.5495,2.5439,2.5104,2.4794,2.473,2.4543,2.4403,2.4603,2.4789,2.517,2.58,0.0,0.0,0.0,0.0,0.0,0.0,2.7324,2.7324,2.7324,2.7265,2.7164,0.0,0.0,0.0,0.0,0.0,0.0,0.0,0.0,0.0,0.0,2.3646,2.3321,2.2909,2.2848,2.2678,2.2371,2.2494,2.2678,2.286,2.2848,2.2969,2.3078,2.3078,2.3078,2.3078,2.3078,2.3078,2.3078,2.3078,2.3602,2.4293,2.1143,2.123,2.1367,2.1807,2.2227,2.251,2.251,2.2861,2.3038,2.2794,2.2784,2.2422,2.1427,2.0727,2.0283,2.0275,1.9118,1.8394,1.849,1.7957,1.7921,0.0,0.0,1.9399,2.0264,2.0264,2.042,2.0566,0.0,0.0,2.0566,0.0,2.0634,2.0634,2.0634,2.0722,2.0857,2.0647,2.066,2.0968,2.075,2.0715,2.0928,2.0928,2.0928,2.0928,2.0917,2.062,2.0286,2.0593,2.0478,2.0409,2.2101,2.2955,2.3374,2.3564,2.3884,2.4118,2.4292,2.4408,2.4509,2.4509,2.4509,2.4452,2.435,2.4292,2.4255,2.4141,2.3987,2.3987,2.4283,2.4327,2.4567,2.5308,0.0,0.0,0.0,0.0,0.0,2.6701,2.6701,2.6701,2.6701,2.6701,0.0,0.0,0.0,0.0,0.0,0.0,0.0,2.5005,2.4558,0.0,2.3628,2.3466,2.3213,2.2909,2.28,2.2506,2.2197,2.2197,2.2383,2.2678,2.286,2.2969,2.3078,2.3078,2.3078,2.3078,2.3078,2.3078,2.3078,2.3078,2.3841,2.4808,2.1201,2.1709,2.2148,2.2285,2.2656,2.2939,2.2939,2.3057,2.3057,2.2969,2.2969,2.2872,2.2608,2.1909,2.1374,0.0,2.0335,1.9754,0.0,1.8671,1.8304,1.8581,1.8726,1.9152,1.9794,1.9951,2.0177,2.042,0.0,0.0,0.0,2.0566,2.0566,2.0566,2.0566,2.0644,2.0722,2.0748,2.0841,2.0974,2.1135,2.1223,2.1298,2.1447,2.1511,2.148,2.1157,2.0948,2.0719,2.0212,2.0054,2.0087,2.0303,2.1089,2.2051,2.247,2.2834,2.3148,2.328,2.3446,2.3564,2.3564,2.3446,2.3446,2.3446,2.3454,2.3454,2.3296,2.3346,2.3444,2.3666,2.3739,2.406,2.4664,2.4978,0.0,0.0,0.0,0.0,0.0,2.6418,2.6418,0.0,2.6361,0.0,0.0,0.0,0.0,0.0,0.0,0.0,0.0,2.4223,0.0,2.3466,2.3432,2.3105,2.2543,2.2432,2.1987,2.1285,2.1083,2.1273,2.1839,2.2087,2.2396,2.2653,2.2848,2.2969,2.2969,2.3078,2.3078,2.3078,2.3078,2.3853,2.482,2.165,2.2148,2.2568,2.2715,2.2959,2.3135,2.3135,2.3135,2.3135,2.3135,2.3135,2.3135,2.3135,2.2706,0.0,2.1989,2.1445,2.0927,2.036,1.9591,1.9136,1.8863,1.8857,1.9137,1.9566,0.0,0.0,2.0264,2.0098,2.0108,2.0264,2.0489,2.0566,2.0566,2.0566,2.0566,2.0644,2.0731,2.0819,2.0819,2.1041,2.1195,2.1195,2.1262,2.1339,2.1298,2.1024,2.0812,2.0558,1.99,1.9624,1.9538,1.9199,1.9704,2.0549,2.1164,2.1667,2.2039,2.2175,2.2359,2.2531,2.2531,2.2482,2.2421,2.2604,2.2627,2.2673,2.2722,2.276,2.2942,2.3248,2.3352,2.3577,2.419,2.4411,2.4694,2.5257,0.0,0.0,0.0,0.0,0.0,0.0,2.5647,2.5592,0.0,0.0,0.0,0.0,0.0,0.0,2.4164,2.3761,0.0,2.3175,2.3105,2.2776,2.2175,2.1651,2.1146,2.056,2.0302,2.0549,2.121,2.1577,2.1963,2.2359,2.2678,2.2848,2.2909,2.3078,2.3078,2.3103,2.3376,2.4042,2.4845,2.2353,2.2539,0.0,0.0,2.3135,0.0,2.3135,2.3135,2.3135,2.3135,2.3135,2.3135,2.3135,2.3135,2.3057,2.2803,0.0,0.0,0.0,2.07,2.0093,1.9339,1.9268,1.9317,1.9566,1.9566,1.9794,2.0186,2.0186,2.0186,2.0264,2.0411,2.0566,2.0566,2.0566,2.0566,2.0566,2.0566,2.0566,2.0566,2.0566,2.0566,2.0566,2.0566,2.0566,2.0566,2.0566,2.0283,1.9853,1.96,1.9229,1.8834,1.8748,1.8741,1.8942,1.9781,2.0484,2.0996,2.0996,2.1239,2.1491,2.1491,2.1491,2.1553,2.1753,2.182,2.1946,2.225,2.2322,2.2504,2.2919,2.3078,2.3248,2.3777,2.3948,2.4093,2.4275,0.0,0.0,0.0,0.0,0.0,0.0,2.467,2.4768,0.0,0.0,0.0,0.0,0.0,2.4138,2.3876,2.3359,2.2992,2.2895,2.258,2.2185,2.1782,2.0579,2.0042,2.0031,1.9846,2.0107,2.0775,2.1135,2.16,2.2123,2.2494,2.2739,2.2909,2.3017,2.3078,2.314,2.3791,2.4343,2.4895,0.0,0.0,2.3018,2.3125,2.3135,2.3135,2.3135,2.3135,2.3135,2.3135,2.3135,2.3135,2.3135,2.3135,2.3047,2.3047,2.2794,2.2403,2.1957,2.1029,2.0199,1.9466,1.9169,1.8991,1.917,1.9161,1.9082,1.9091,1.924,1.939,1.9539,1.9942,1.9942,1.9872,2.002,1.9942,1.9872,2.0186,2.0342,2.0411,2.0566,2.0566,2.0566,2.0566,2.0566,2.0566,2.042,2.0072,1.9647,1.9139,1.8634,1.8283,1.8056,1.8056,1.8337,1.9243,1.9628,1.9759,1.9911,1.9987,2.0042,2.0042,2.0302,2.0484,2.0549,2.0905,2.1339,2.1401,2.1747,2.2127,2.2347,2.2592,2.287,2.3248,2.3466,2.3637,2.3944,2.4025,0.0,0.0,2.4183,2.4183,2.4183,2.4255,2.4249,0.0,0.0,0.0,0.0,2.3794,2.3623,2.3666,2.3175,2.2896,2.2751,2.2431,2.1776,2.0917,1.9824,1.933,1.933,1.8998,1.9065,1.9594,2.0172,2.0624,2.1031,2.1925,2.2371,2.2543,2.2957,2.3078,2.314,2.3791,2.4343,2.4895,2.2764,2.2988,2.3135,2.3135,2.3135,2.3135,2.3135,2.3135,2.3135,2.3135,2.3135,2.3135,2.3135,2.3135,2.3135,2.3135,2.2969,2.2706,2.2264,2.152,2.0604,1.9692,1.9388,1.9103,1.886,1.8763,1.8603,1.8371,1.8674,1.8904,1.9054,1.9301,1.9399,1.932,1.9301,1.9311,1.932,1.9715,1.9872,2.0029,2.0177,2.0255,2.0255,2.0177,2.0177,2.0108,1.9942,1.9521,1.9041,1.8462,1.8044,1.7716,1.7436,1.752,1.7872,1.8375,1.8777,1.9121,1.9208,1.9274,1.9341,1.9341,1.9528,1.9639,1.9738,2.0019,2.0351,2.059,2.098,2.136,2.1773,2.2113,2.2396,2.2699,2.2967,2.3248,2.3444,2.3482,0.0,2.3653,2.3666,2.3666,2.3666,2.3764,2.3786,2.3752,2.3739,0.0,2.3739,2.3518,2.3412,2.3359,2.2942,2.2542,2.2185,2.1481,2.0733,1.989,1.9177,1.8808,1.8808,1.8549,1.8674,1.9131,1.966,2.0183,2.0839,2.1726,2.2235,2.2543,2.2957,2.3078,2.3178,2.4067,2.4569,2.4933,2.3066,2.3135,2.3135,2.3135,2.3135,2.3135,2.3135,2.3135,2.3135,2.3135,2.3135,2.3135,2.3135,2.3135,2.3057,2.3057,2.3057,2.2794,2.2441,2.1909,2.1101,1.9956,1.958,1.923,1.8629,1.8362,1.8121,1.7789,1.8264,1.8416,1.8416,1.8665,1.8754,1.8665,1.8585,1.8585,1.8754,1.8984,1.9222,1.9478,1.9627,1.9706,1.9706,1.9557,1.9478,1.939,1.9149,1.8719,1.8168,1.7698,1.7295,1.6991,1.6799,1.7047,1.7392,1.7579,1.8056,1.8607,1.8674,1.8808,1.8942,1.8942,1.8942,1.8988,1.9114,1.9191,1.9367,1.9781,2.0106,2.0488,2.1024,2.1514,2.1856,2.2213,2.2554,2.2822,2.2845,0.0,2.3065,2.3065,2.3065,2.3078,2.3078,2.3261,2.3359,2.3359,2.347,2.3495,2.3495,2.3384,2.3248,2.2967,2.2602,2.2018,2.1358,2.0303,1.9477,1.9034,1.8664,1.8482,1.8482,1.8347,1.8539,1.8998,1.9407,1.9987,2.0828,2.1565,2.2211,2.2678,2.2957,2.3078,2.3215,2.4406,2.482,2.4971,2.3125,2.3135,2.3135,2.3135,2.3135,2.3135,2.3135,2.3135,2.3135,2.3135,2.3135,2.3135,2.3135,2.3135,2.3057,2.2882,2.2618,2.2441,2.2441,2.1624,2.074,1.9956,1.941,1.897,1.846,1.7878,1.731,1.6894,1.7212,1.7294,1.7277,1.7691,1.761,1.7107,1.744,1.7521,1.7359,1.7925,1.8487,1.8825,1.8904,1.8984,1.9161,1.8904,1.8825,1.878,1.8031,1.7518,1.7061,1.6385,1.5948,1.5786,1.607,1.6403,1.6821,1.7166,1.7451,1.7735,1.8076,1.8144,1.8144,1.8144,1.8279,1.8405,1.8452,1.8694,1.8895,1.8971,1.9417,1.9767,2.0031,2.0666,2.1318,2.154,2.2089,2.2469,2.2492,0.0,2.2942,2.2942,2.304,2.3078,2.3078,2.315,2.315,2.315,2.3163,2.3163,2.3163,2.3053,2.2845,2.254,2.2311,2.1596,2.0347,1.9702,1.9219,1.8846,1.8532,1.8337,1.8337,1.8144,1.8212,1.8472,1.9054,1.9704,2.0302,2.1439,2.2149,2.2482,2.2957,2.3078,2.3215,2.4406,2.482,2.4971,2.3135,2.3135,2.3135,2.3135,2.3135,2.3135,2.3135,2.3135,2.3135,2.3135,2.3135,2.3135,2.3135,2.3135,2.3057,2.2803,2.2344,2.1891,2.1624,2.1087,2.0377,1.935,1.8981,1.838,1.7481,1.7139,1.682,1.6409,1.6648,1.664,1.6484,1.673,1.6558,1.6139,1.6296,1.6386,1.6558,1.696,1.7359,1.7764,1.7925,1.8086,1.8095,1.7755,1.7557,1.7363,1.6705,1.6065,1.5431,1.5122,1.4846,1.4776,1.4982,1.548,1.6053,1.6464,1.7038,1.7539,1.7676,1.7803,1.7852,1.7852,1.7998,1.8144,1.8144,1.8231,1.8377,1.8482,1.8745,1.9111,1.9386,1.9965,2.0464,2.0802,2.1404,0.0,0.0,2.2506,2.2812,2.2882,2.304,2.3078,2.3078,2.3078,2.3078,2.3078,2.3078,2.3078,2.3078,2.2955,2.2749,2.2396,2.1514,2.0562,1.96,1.9059,1.8652,1.8378,1.8241,1.8144,1.8144,1.8144,1.8337,1.8607,1.9253,1.9966,2.0741,2.1651,2.2285,2.2726,2.3017,2.3078,2.3215,2.4406,2.482,2.4971,2.3135,2.3135,2.3135,2.3135,2.3135,2.3135,2.3135,2.3135,2.3135,2.3135,2.3135,2.3135,2.3135,2.3135,2.2969,2.2627,2.198,2.1347,2.0727,2.0365,1.9754,1.8654,1.83,1.7616,1.6664,1.6484,1.6245,1.5839,1.5989,1.5989,1.5756,1.5839,1.5665,1.5401,1.5311,1.5401,1.5748,1.5989,1.6304,1.6706,1.687,1.6952,1.6952,1.6535,1.6241,1.5936,1.5461,1.4824,1.4171,1.4022,1.3903,1.3912,1.4057,1.4633,1.5275,1.5613,1.6324,1.7185,1.7392,1.7579,1.7706,1.7706,1.7862,1.8008,1.8008,1.8008,1.8018,1.8193,1.8368,1.8582,1.8838,1.9343,1.9754,2.0116,0.0,0.0,0.0,2.2221,2.2629,2.2784,2.2955,2.3078,2.3078,2.3078,2.3078,2.3078,2.3078,2.3078,2.3078,2.2955,2.2592,2.1999,2.0767,1.9745,1.906,1.8542,1.8193,1.8008,1.8008,1.8008,1.8008,1.8202,1.8539,1.8942,1.9584,2.0355,2.1262,2.1925,2.2482,2.2909,2.3078,2.3078,2.3215,2.4406,2.482,2.4971,2.3135,2.3135,2.3135,2.3135,2.3135,2.3135,2.3135,2.3135,2.3135,2.3135,2.3135,2.3135,2.3135,2.3135,2.2872,2.2185,2.1722,2.0898,1.982,1.9188,1.8683,1.8213,1.7311,1.6704,1.6394,1.5982,1.5575,1.5173,1.5173,1.5082,1.4817,1.5082,1.4915,1.4475,1.465,1.4734,1.4824,1.5082,1.5416,1.5816,1.5643,1.5643,1.5816,1.556,1.536,1.5042,1.4518,1.4036,1.3697,1.3181,1.3141,1.3273,1.3492,1.392,1.441,1.4609,1.5251,1.6114,1.6959,1.7442,1.7706,1.7706,1.7862,1.8008,1.8008,1.8008,1.8008,1.8018,1.8193,1.8291,1.8349,1.8897,1.9354,1.9404,0.0,0.0,2.0951,2.1702,2.231,2.2407,2.2845,2.3078,2.3078,2.3078,2.3078,2.3078,2.3078,2.3078,2.3078,2.2857,2.2116,2.0785,2.0303,1.9716,1.8809,1.8456,1.8193,1.8008,1.8008,1.8008,1.8008,1.8202,1.8607,1.9142,1.9781,2.0549,2.1451,2.2099,2.2604,2.2909,2.3078,2.3078,2.3215,2.4406,2.482,2.4971,2.3135,2.3135,2.3135,2.3135,2.3135,2.3135,2.3135,2.3135,2.3135,2.3135,2.3135,2.3047,2.2969,2.2882,2.2618,2.1919,2.1275,2.0538,1.9637,1.8613,1.7913,1.7517,1.6768,1.6245,1.5982,1.5816,1.5492,1.509,1.509,1.4915,1.4482,1.4657,1.4489,1.4243,1.4328,1.4405,1.4482,1.465,1.4824,1.5068,1.4985,1.4985,1.5047,1.4689,1.4332,1.4022,1.3493,1.3106,1.2831,1.2566,1.2673,1.2826,1.29,1.3266,1.3695,1.4194,1.484,1.5551,1.6184,1.6881,1.7442,1.752,1.7803,1.8008,1.8008,1.8008,1.8008,1.8008,1.8095,1.8105,1.8105,1.8388,1.8738,1.8824,0.0,1.9932,2.0377,2.1071,2.1682,2.2031,2.2443,2.2747,2.2955,2.2967,2.304,2.3065,2.3078,2.3078,2.3078,2.2628,2.1904,2.0939,2.0162,1.9396,1.8642,1.8281,1.8095,1.8008,1.8115,1.8193,1.8193,1.8714,1.9152,1.9584,2.0484,2.1262,2.1925,2.2482,2.2836,2.3017,2.3078,2.3078,2.3215,2.4406,2.482,2.4971,2.3135,2.3135,2.3135,2.3135,2.3135,2.3135,2.3135,2.3135,2.3135,2.3135,2.3135,2.3057,2.2803,2.2706,2.2353,2.1553,2.0907,2.0275,1.9554,1.8202,1.7262,1.6752,1.6216,1.5748,1.565,1.5567,1.5325,1.4999,1.4915,1.4657,1.4321,1.4321,1.4243,1.4088,1.4088,1.4166,1.4321,1.4321,1.4405,1.4489,1.4489,1.4434,1.4324,1.4036,1.3627,1.3253,1.2896,1.2552,1.2305,1.2305,1.2378,1.2526,1.2526,1.2746,1.3119,1.3702,1.4346,1.4991,1.5551,1.6324,1.7097,1.7392,1.7745,1.8008,1.8008,1.8008,1.8008,1.8008,1.8008,1.8008,1.8008,1.8183,1.8319,1.8402,1.8906,1.9379,1.9779,2.0475,2.1089,2.1519,2.1946,2.236,2.2652,2.2724,2.2845,2.304,2.3053,2.3053,2.3053,2.2531,2.1928,2.1221,2.026,1.941,1.8751,1.8281,1.8008,1.8008,1.8193,1.8329,1.8414,1.8983,1.956,2.0031,2.0996,2.1714,2.2309,2.2726,2.2969,2.3078,2.3078,2.3078,2.3215,2.4406,2.482,2.4971,2.3135,2.3135,2.3135,2.3135,2.3135,2.3135,2.3135,2.3135,2.3135,2.3135,2.3135,2.3057,2.2803,2.253,2.1989,2.1087,2.0718,2.0175,1.9271,1.7885,1.6737,1.5891,1.5592,1.5416,1.5394,1.5159,1.4999,1.4734,1.4482,1.4321,1.4088,1.4088,1.4088,1.4088,1.4088,1.4088,1.4088,1.4088,1.4088,1.4088,1.4082,1.3908,1.3559,1.3641,1.3267,1.2822,1.2822,1.2552,1.2305,1.2305,1.2305,1.2305,1.2305,1.2452,1.2746,1.3346,1.3775,1.4274,1.5213,1.6053,1.6751,1.7323,1.7745,1.8008,1.8008,1.8008,1.8008,1.8008,1.8008,1.8008,1.8008,1.8183,1.8291,1.8291,1.8751,1.9121,1.9281,2.0052,2.0694,2.0887,2.1444,2.199,2.2185,2.2311,2.2552,2.287,2.287,2.287,2.287,2.2565,2.2104,2.1418,2.0551,1.9865,1.9301,1.8466,1.8008,1.8008,1.8203,1.8405,1.8512,1.9054,1.9692,2.0431,2.1101,2.1815,2.242,2.2787,2.2969,2.3078,2.3078,2.3078,2.3215,2.4406,2.482,2.4971,2.3135,2.3135,2.3135,2.3135,2.3135,2.3135,2.3135,2.3135,2.3135,2.3135,2.3135,2.2882,2.2362,2.2078,2.1526,2.0555,2.0464,1.9872,1.8555,1.7392,1.6312,1.5401,1.5391,1.534,1.5166,1.5257,1.509,1.4734,1.465,1.4405,1.4088,1.4088,1.4088,1.4088,1.4088,1.4088,1.4088,1.4088,1.4088,1.4068,1.3861,1.3721,1.3594,1.3173,1.2906,1.2795,1.2512,1.2378,1.2305,1.2305,1.2305,1.2305,1.2305,1.2305,1.2452,1.2746,1.3266,1.3848,1.4617,1.5542,1.6394,1.7254,1.7745,1.8008,1.8008,1.8008,1.8008,1.8008,1.8008,1.8008,1.8008,1.8027,1.8105,1.8105,1.8368,1.8562,1.8726,1.9187,1.9681,2.0052,2.0409,2.0903,2.1596,2.1744,2.2091,2.2702,2.2921,2.3053,2.3053,2.2637,2.2287,2.1949,2.0951,2.027,1.9846,1.8846,1.8368,1.8368,1.8662,1.8961,1.9065,1.9888,2.0553,2.114,2.1835,2.2321,2.2787,2.2957,2.3078,2.3078,2.3078,2.3078,2.3215,2.4406,2.482,2.4971,2.3135,2.3135,2.3135,2.3135,2.3135,2.3135,2.3135,2.3135,2.3135,2.3135,2.3057,2.2794,2.2185,2.1713,2.1078,2.0382,2.0065,1.9538,1.8498,1.7437,1.6415,1.534,1.534,1.5257,1.4831,1.4999,1.4908,1.4566,1.4566,1.4405,1.4088,1.4088,1.4088,1.4088,1.4088,1.4088,1.4088,1.4088,1.4021,1.3895,1.3714,1.35,1.3247,1.2886,1.2748,1.2545,1.2365,1.2305,1.2305,1.2305,1.2305,1.2305,1.2305,1.2305,1.2305,1.2526,1.2973,1.3557,1.4258,1.5117,1.6053,1.6899,1.752,1.793,1.8008,1.8008,1.8008,1.8008,1.8008,1.8008,1.8008,1.8008,1.8008,1.8008,1.8193,1.8319,1.8422,1.8761,1.9091,1.9383,1.9637,2.0053,2.0694,2.1003,2.1475,2.225,2.2615,2.2845,2.2845,2.2637,2.2457,2.2271,2.142,2.0899,2.0587,1.9764,1.9142,1.8843,1.9137,1.9452,1.9745,2.039,2.1012,2.1612,2.2199,2.258,2.2885,2.303,2.3078,2.3078,2.3078,2.3078,2.3178,2.4155,2.4632,2.4946,2.3135,2.3135,2.3135,2.3135,2.3135,2.3135,2.3135,2.3135,2.3047,2.3057,2.2882,2.2539,2.2097,2.1365,2.0727,2.0292,1.9647,1.9163,1.887,1.7823,1.6721,1.5748,1.5499,1.5082,1.4482,1.465,1.465,1.4398,1.4398,1.4321,1.4088,1.4088,1.4088,1.4088,1.4088,1.4088,1.4088,1.4088,1.3915,1.3641,1.3532,1.326,1.2822,1.2795,1.2538,1.2305,1.2305,1.2305,1.2305,1.2305,1.2305,1.2305,1.2305,1.2305,1.2305,1.2526,1.2826,1.3266,1.4057,1.4776,1.5568,1.6324,1.7088,1.7638,1.793,1.7998,1.8008,1.8008,1.8008,1.8008,1.8008,1.8008,1.8008,1.8008,1.8183,1.8281,1.8281,1.8554,1.8741,1.8751,1.8987,1.9368,1.974,2.015,2.0797,2.162,2.2068,2.2347,2.2395,2.259,2.2579,2.2419,2.1942,2.162,2.1481,2.0963,2.0314,1.9404,1.9645,1.9986,2.0488,2.088,2.1393,2.1978,2.2323,2.2651,2.2935,2.3042,2.3078,2.3078,2.3078,2.3078,2.3201,2.3753,2.4318,2.4895,2.3135,2.3135,2.3135,2.3135,2.3135,2.3135,2.3135,2.3135,2.3057,2.2882,2.2618,2.2167,2.1365,2.0907,2.0464,1.9853,1.9065,1.8604,1.8473,1.7115,1.6065,1.5484,1.5068,1.4741,1.465,1.4915,1.4824,1.4398,1.4398,1.4321,1.4088,1.4088,1.4088,1.4088,1.4088,1.4088,1.4088,1.4088,1.3915,1.3539,1.3394,1.308,1.2795,1.2485,1.2358,1.2305,1.2305,1.2305,1.2305,1.2305,1.2305,1.2305,1.2305,1.2305,1.2305,1.2378,1.2526,1.29,1.3492,1.4065,1.4633,1.5692,1.6315,1.6784,1.7609,1.7745,1.7823,1.7998,1.8008,1.8008,1.8008,1.8008,1.8008,1.8008,1.8018,1.8095,1.8095,1.8115,1.8203,1.8378,1.8494,1.8748,1.9318,2.0226,2.0918,2.1221,2.1686,2.2059,2.2261,2.2359,2.2531,2.2615,2.2384,2.2177,2.2011,2.1726,2.1181,2.0336,2.0627,2.0937,2.1174,2.1686,2.2159,2.2554,2.2725,2.2882,2.3042,2.3078,2.3078,2.3078,2.3078,2.3078,2.3175,2.3806,2.4317,2.4958,2.3135,2.3135,2.3135,2.3135,2.3135,2.3135,2.3135,2.3057,2.2882,2.2618,2.2167,2.1624,2.0898,2.0365,1.9935,1.9331,1.8551,1.8041,1.802,1.6846,1.5914,1.5567,1.5242,1.4999,1.4908,1.5006,1.4915,1.4566,1.4482,1.4321,1.4243,1.4166,1.4088,1.4088,1.4088,1.4088,1.4075,1.3935,1.3707,1.3407,1.3113,1.2806,1.2518,1.2365,1.2305,1.2305,1.2305,1.2305,1.2305,1.2305,1.2305,1.2305,1.2305,1.2305,1.2305,1.2305,1.2452,1.2673,1.3193,1.363,1.4194,1.5267,1.5754,1.6306,1.7335,1.7677,1.7745,1.793,1.8008,1.8008,1.8008,1.8008,1.8008,1.8008,1.8008,1.8008,1.8008,1.8008,1.8018,1.8115,1.8183,1.8339,1.8843,1.9677,2.0238,2.0484,2.1115,2.1545,2.1785,2.2183,2.2494,2.2675,2.265,2.2578,2.2506,2.2384,2.2077,2.16,2.1502,2.1592,2.188,2.2176,2.2482,2.2788,2.2859,2.2967,2.3078,2.3078,2.3078,2.3078,2.3078,2.3078,2.315,2.3457,2.4091,2.4971,2.3135,2.3135,2.3135,2.3135,2.3135,2.3057,2.3047,2.2882,2.2618,2.2255,2.1624,2.1078,2.0447,1.9761,1.92,1.8869,1.7932,1.7399,1.7427,1.649,1.5831,1.5567,1.5333,1.5257,1.509,1.509,1.4999,1.4734,1.4482,1.4398,1.4398,1.4166,1.4088,1.4088,1.4088,1.4055,1.3995,1.3748,1.3447,1.3106,1.2929,1.2565,1.2305,1.2305,1.2305,1.2305,1.2305,1.2305,1.2305,1.2305,1.2305,1.2305,1.2305,1.2305,1.2305,1.2305,1.2452,1.2673,1.3119,1.3477,1.3977,1.4991,1.5488,1.6044,1.7217,1.755,1.7755,1.793,1.8008,1.8008,1.8008,1.8008,1.8008,1.8008,1.8008,1.8008,1.8008,1.8008,1.8008,1.8008,1.8018,1.8192,1.8429,1.8952,1.9404,1.9781,2.0402,2.0967,2.1279,2.1972,2.2396,2.259,2.2772,2.287,2.287,2.2832,2.276,2.276,2.2311,2.2213,2.2468,2.254,2.2662,2.2942,2.2942,2.2967,2.3078,2.3078,2.3078,2.3078,2.3078,2.3078,2.3138,2.3248,2.3904,2.4943,2.3135,2.3135,2.3135,2.3135,2.3135,2.3057,2.2891,2.2618,2.2255,2.1624,2.1078,2.0456,1.982,1.9003,1.837,1.8033,1.7209,1.6607,1.6306,1.5604,1.5082,1.4817,1.4817,1.4908,1.509,1.509,1.4999,1.4734,1.4482,1.4398,1.4398,1.4166,1.4088,1.4088,1.4088,1.3941,1.3619,1.3579,1.332,1.2882,1.2842,1.2565,1.2305,1.2305,1.2305,1.2305,1.2305,1.2305,1.2305,1.2305,1.2305,1.2305,1.2305,1.2305,1.2305,1.2526,1.2599,1.2753,1.3273,1.3492,1.3775,1.4919,1.5355,1.5842,1.6959,1.7382,1.7598,1.794,1.8008,1.8008,1.8008,1.8008,1.8008,1.8008,1.8008,1.8008,1.8008,1.8008,1.8008,1.8008,1.8183,1.8281,1.8319,1.8788,1.9215,1.9393,2.003,2.0596,2.0962,2.1592,2.2078,2.2261,2.2662,2.287,2.287,2.2967,2.3053,2.3053,2.2992,2.2907,2.2845,2.2955,2.304,2.3065,2.3065,2.3065,2.3078,2.3078,2.3078,2.3078,2.3078,2.3078,2.3163,2.3679,2.4267,2.4884,2.3135,2.3135,2.3135,2.3135,2.3135,2.3057,2.2803,2.2451,2.1998,2.1266,2.0637,1.9835,1.9003,1.7864,1.7164,1.7024,1.6231,1.573,1.5582,1.5159,1.4824,1.4734,1.4734,1.4741,1.4908,1.4915,1.4824,1.4734,1.465,1.4566,1.4566,1.425,1.4088,1.4082,1.3915,1.3768,1.3539,1.3287,1.2993,1.2808,1.2565,1.2418,1.2305,1.2305,1.2305,1.2305,1.2305,1.2305,1.2305,1.2305,1.2305,1.2305,1.2305,1.2305,1.2305,1.2526,1.2599,1.2746,1.3477,1.3702,1.3912,1.5062,1.5497,1.5912,1.6959,1.7392,1.7608,1.794,1.8008,1.8008,1.8008,1.8008,1.8008,1.8008,1.8008,1.8008,1.8008,1.8008,1.8008,1.8008,1.8095,1.8115,1.8115,1.8554,1.8826,1.8998,1.9671,2.0291,2.0595,2.1181,2.1608,2.1921,2.2311,2.2592,2.2772,2.2942,2.304,2.3078,2.3078,2.3065,2.304,2.3065,2.3078,2.3078,2.3078,2.3078,2.3078,2.3078,2.3078,2.3078,2.3078,2.3078,2.3163,2.3777,2.4323,2.4861]},{"header":{"parameterUnit":"m.s-1","parameterCategory":1,"la1":30.6,"la2":28.766,"lo1":-90.7593,"lo2":-88.6598,"dy":0.0162,"dx":0.0183,"nx":116,"ny":114,"refTime":"2023-09-12T18:00:00:Z","depth":0,"parameterNumber":3,"parameterNumberName":"V-component_of_WINDS"},"data":[0.0,0.0,0.0,0.0,0.0,0.0,0.0,0.0,0.0,0.0,0.0,0.0,0.0,0.0,0.0,0.0,0.0,0.0,0.0,0.0,0.0,0.0,0.0,0.0,0.0,0.0,0.0,0.0,0.0,0.0,0.0,0.0,0.0,0.0,0.0,0.0,0.0,0.0,0.0,0.0,0.0,0.0,0.0,0.0,0.0,0.0,0.0,0.0,0.0,0.0,0.0,0.0,0.0,0.0,0.0,0.0,0.0,0.0,0.0,0.0,0.0,0.0,0.0,0.0,0.0,0.0,0.0,0.0,0.0,0.0,0.0,0.0,0.0,0.0,0.0,0.0,0.0,0.0,0.0,0.0,0.0,0.0,0.0,0.0,0.0,0.0,0.0,0.0,0.0,0.0,0.0,0.0,0.0,0.0,0.0,0.0,0.0,0.0,0.0,0.0,0.0,0.0,0.0,0.0,0.0,0.0,0.0,0.0,0.0,0.0,0.0,0.0,0.0,0.0,0.0,0.0,0.0,0.0,0.0,0.0,0.0,0.0,0.0,0.0,0.0,0.0,0.0,0.0,0.0,0.0,0.0,0.0,0.0,0.0,0.0,0.0,0.0,0.0,0.0,0.0,0.0,0.0,0.0,0.0,0.0,0.0,0.0,0.0,0.0,0.0,0.0,0.0,0.0,0.0,0.0,0.0,0.0,0.0,0.0,0.0,0.0,0.0,0.0,0.0,0.0,0.0,0.0,0.0,0.0,0.0,0.0,0.0,0.0,0.0,0.0,0.0,0.0,0.0,0.0,0.0,0.0,0.0,0.0,0.0,0.0,0.0,0.0,0.0,0.0,0.0,0.0,0.0,0.0,0.0,0.0,0.0,0.0,0.0,0.0,0.0,0.0,0.0,0.0,0.0,0.0,0.0,0.0,0.0,0.0,0.0,0.0,0.0,0.0,0.0,0.0,0.0,0.0,0.0,0.0,0.0,0.0,0.0,0.0,0.0,0.0,0.0,0.0,0.0,0.0,0.0,0.0,0.0,0.0,0.0,0.0,0.0,0.0,0.0,0.0,0.0,0.0,0.0,0.0,0.0,0.0,0.0,0.0,0.0,0.0,0.0,0.0,0.0,0.0,0.0,0.0,0.0,0.0,0.0,0.0,0.0,0.0,0.0,0.0,0.0,0.0,0.0,0.0,0.0,0.0,0.0,0.0,0.0,0.0,0.0,0.0,0.0,0.0,0.0,0.0,0.0,0.0,0.0,0.0,0.0,0.0,0.0,0.0,0.0,0.0,0.0,0.0,0.0,0.0,0.0,0.0,0.0,0.0,0.0,0.0,0.0,0.0,0.0,0.0,0.0,0.0,0.0,0.0,0.0,0.0,0.0,0.0,0.0,0.0,0.0,0.0,0.0,0.0,0.0,0.0,0.0,0.0,0.0,0.0,0.0,0.0,0.0,0.0,0.0,0.0,0.0,0.0,0.0,0.0,0.0,0.0,0.0,0.0,0.0,0.0,0.0,0.0,0.0,0.0,0.0,0.0,0.0,0.0,0.0,0.0,0.0,0.0,0.0,0.0,0.0,0.0,0.0,0.0,0.0,0.0,0.0,0.0,0.0,0.0,0.0,0.0,0.0,0.0,0.0,0.0,0.0,0.0,0.0,0.0,0.0,0.0,0.0,0.0,0.0,0.0,0.0,0.0,0.0,0.0,0.0,0.0,0.0,0.0,0.0,0.0,0.0,0.0,0.0,0.0,0.0,0.0,0.0,0.0,0.0,0.0,0.0,0.0,0.0,0.0,0.0,0.0,0.0,0.0,0.0,0.0,0.0,0.0,0.0,0.0,0.0,0.0,0.0,0.0,0.0,0.0,0.0,0.0,0.0,0.0,0.0,0.0,0.0,0.0,0.0,0.0,0.0,0.0,0.0,0.0,0.0,0.0,0.0,0.0,0.0,0.0,0.0,0.0,0.0,0.0,0.0,0.0,0.0,0.0,0.0,0.0,0.0,0.0,0.0,0.0,0.0,0.0,0.0,0.0,0.0,0.0,0.0,0.0,0.0,0.0,0.0,0.0,0.0,0.0,0.0,0.0,0.0,0.0,0.0,0.0,0.0,0.0,0.0,0.0,0.0,0.0,0.0,0.0,0.0,0.0,0.0,0.0,0.0,0.0,0.0,0.0,0.0,0.0,0.0,0.0,0.0,0.0,0.0,0.0,0.0,0.0,0.0,0.0,0.0,0.0,0.0,0.0,0.0,0.0,0.0,0.0,0.0,0.0,0.0,0.0,0.0,0.0,0.0,0.0,0.0,0.0,0.0,0.0,0.0,0.0,0.0,0.0,0.0,0.0,0.0,0.0,0.0,0.0,0.0,0.0,0.0,0.0,0.0,0.0,0.0,0.0,0.0,0.0,0.0,0.0,0.0,0.0,0.0,0.0,0.0,0.0,0.0,0.0,0.0,0.0,0.0,0.0,0.0,0.0,0.0,0.0,0.0,0.0,0.0,0.0,0.0,0.0,0.0,0.0,0.0,0.0,0.0,0.0,0.0,0.0,0.0,0.0,0.0,0.0,0.0,0.0,0.0,0.0,0.0,0.0,0.0,0.0,0.0,0.0,0.0,0.0,0.0,0.0,0.0,0.0,0.0,0.0,0.0,0.0,0.0,0.0,0.0,0.0,0.0,0.0,0.0,0.0,0.0,0.0,0.0,0.0,0.0,0.0,0.0,0.0,0.0,0.0,0.0,0.0,0.0,0.0,0.0,0.0,0.0,0.0,0.0,0.0,0.0,0.0,0.0,0.0,0.0,0.0,0.0,0.0,0.0,0.0,0.0,0.0,0.0,0.0,0.0,0.0,0.0,0.0,0.0,0.0,0.0,0.0,0.0,0.0,0.0,0.0,0.0,0.0,0.0,0.0,0.0,0.0,0.0,0.0,0.0,0.0,0.0,0.0,0.0,0.0,0.0,0.0,0.0,0.0,0.0,0.0,0.0,0.0,0.0,0.0,0.0,0.0,0.0,0.0,0.0,0.0,0.0,0.0,0.0,0.0,0.0,0.0,0.0,0.0,0.0,0.0,0.0,0.0,0.0,0.0,0.0,0.0,0.0,0.0,0.0,0.0,0.0,0.0,0.0,0.0,0.0,0.0,0.0,0.0,0.0,0.0,0.0,0.0,0.0,0.0,0.0,0.0,0.0,0.0,0.0,0.0,0.0,0.0,0.0,0.0,0.0,0.0,0.0,0.0,0.0,0.0,0.0,0.0,0.0,0.0,0.0,0.0,0.0,0.0,0.0,0.0,0.0,0.0,0.0,0.0,0.0,0.0,0.0,0.0,0.0,0.0,0.0,0.0,0.0,0.0,0.0,0.0,0.0,0.0,0.0,0.0,0.0,0.0,0.0,0.0,0.0,0.0,0.0,0.0,0.0,0.0,0.0,0.0,0.0,0.0,0.0,0.0,0.0,0.0,0.0,0.0,0.0,0.0,0.0,0.0,0.0,0.0,0.0,0.0,0.0,0.0,0.0,0.0,0.0,0.0,0.0,0.0,0.0,0.0,0.0,0.0,0.0,0.0,0.0,0.0,0.0,0.0,0.0,0.0,0.0,0.0,0.0,0.0,0.0,0.0,0.0,0.0,0.0,0.0,0.0,0.0,0.0,0.0,0.0,0.0,0.0,0.0,0.0,0.0,0.0,0.0,0.0,0.0,0.0,0.0,0.0,0.0,0.0,0.0,0.0,0.0,0.0,0.0,0.0,0.0,0.0,0.0,0.0,0.0,0.0,0.0,0.0,0.0,0.0,0.0,0.0,0.0,0.0,0.0,0.0,0.0,0.0,0.0,0.0,0.0,0.0,0.0,0.0,0.0,0.0,0.0,0.0,0.0,0.0,0.0,0.0,0.0,0.0,0.0,0.0,0.0,0.0,0.0,0.0,0.0,0.0,0.0,0.0,0.0,0.0,0.0,0.0,0.0,0.0,0.0,0.0,0.0,0.0,0.0,0.0,0.0,0.0,0.0,0.0,0.0,0.0,0.0,0.0,0.0,0.0,0.0,0.0,0.0,0.0,0.0,0.0,0.0,0.0,0.0,0.0,0.0,0.0,0.0,0.0,0.0,0.0,0.0,0.0,0.0,0.0,0.0,0.0,0.0,0.0,0.0,0.0,0.0,0.0,0.0,0.0,0.0,0.0,0.0,0.0,0.0,0.0,0.0,0.0,0.0,0.0,0.0,0.0,0.0,0.0,0.0,0.0,0.0,0.0,0.0,0.0,0.0,0.0,0.0,0.0,0.0,0.0,0.0,0.0,0.0,0.0,0.0,0.0,0.0,0.0,0.0,0.0,0.0,0.0,0.0,0.0,0.0,0.0,0.0,0.0,0.0,0.0,0.0,0.0,0.0,0.0,0.0,0.0,0.0,0.0,0.0,0.0,0.0,0.0,0.0,0.0,0.0,0.0,0.0,0.0,0.0,0.0,0.0,0.0,0.0,0.0,0.0,0.0,0.0,0.0,0.0,0.0,0.0,0.0,0.0,0.0,0.0,0.0,0.0,0.0,0.0,0.0,0.0,0.0,0.0,0.0,0.0,0.0,0.0,0.0,0.0,0.0,0.0,0.0,0.0,0.0,0.0,0.0,0.0,0.0,0.0,0.0,0.0,0.0,0.0,0.0,0.0,0.0,0.0,0.0,0.0,0.0,0.0,0.0,0.0,0.0,0.0,0.0,0.0,0.0,0.0,0.0,0.0,0.0,0.0,0.0,0.0,0.0,0.0,0.0,0.0,0.0,0.0,0.0,0.0,0.0,0.0,0.0,0.0,0.0,0.0,0.0,0.0,0.0,0.0,0.0,0.0,0.0,0.0,0.0,0.0,0.0,0.0,0.0,0.0,0.0,0.0,0.0,0.0,0.0,0.0,0.0,0.0,0.0,0.0,0.0,0.0,0.0,0.0,0.0,0.0,0.0,0.0,0.0,0.0,0.0,0.0,0.0,0.0,0.0,0.0,0.0,0.0,0.0,0.0,0.0,0.0,0.0,0.0,0.0,0.0,0.0,0.0,0.0,0.0,0.0,0.0,0.0,0.0,0.0,0.0,0.0,0.0,0.0,0.0,0.0,0.0,0.0,0.0,0.0,0.0,0.0,0.0,0.0,0.0,0.0,0.0,0.0,0.0,0.0,0.0,0.0,0.0,0.0,0.0,0.0,0.0,0.0,0.0,0.0,0.0,0.0,0.0,0.0,0.0,0.0,0.0,0.0,0.0,0.0,0.0,0.0,0.0,0.0,0.0,0.0,0.0,0.0,0.0,0.0,0.0,0.0,0.0,0.0,0.0,0.0,0.0,0.0,0.0,0.0,0.0,0.0,0.0,0.0,0.0,0.0,0.0,0.0,0.0,0.0,0.0,0.0,0.0,0.0,0.0,0.0,0.0,0.0,0.0,0.0,0.0,0.0,0.0,0.0,0.0,0.0,0.0,0.0,0.0,0.0,0.0,0.0,0.0,0.0,0.0,0.0,0.0,0.0,0.0,0.0,0.0,0.0,0.0,0.0,0.0,0.0,0.0,0.0,0.0,0.0,0.0,0.0,0.0,0.0,0.0,0.0,0.0,0.0,0.0,0.0,0.0,0.0,0.0,0.0,0.0,0.0,0.0,0.0,0.0,0.0,0.0,0.0,0.0,0.0,0.0,0.0,0.0,0.0,0.0,0.0,0.0,0.0,0.0,0.0,0.0,0.0,0.0,0.0,0.0,0.0,0.0,0.0,0.0,0.0,0.0,0.0,0.0,0.0,0.0,0.0,0.0,0.0,0.0,0.0,0.0,0.0,0.0,0.0,0.0,0.0,0.0,0.0,0.0,0.0,0.0,0.0,0.0,0.0,0.0,0.0,0.0,0.0,0.0,0.0,0.0,0.0,0.0,0.0,0.0,0.0,0.0,0.0,0.0,0.0,0.0,0.0,0.0,0.0,0.0,0.0,0.0,0.0,0.0,0.0,0.0,0.0,0.0,0.0,0.0,0.0,0.0,0.0,0.0,0.0,0.0,0.0,0.0,0.0,0.0,0.0,0.0,0.0,0.0,0.0,0.0,0.0,0.0,0.0,0.0,0.0,0.0,0.0,0.0,0.0,0.0,0.0,-0.9566,0.0,0.0,0.0,0.0,0.0,0.0,0.0,0.0,0.0,0.0,0.0,0.0,0.0,0.0,0.0,0.0,0.0,0.0,0.0,0.0,0.0,0.0,0.0,0.0,0.0,0.0,0.0,0.0,0.0,0.0,0.0,0.0,0.0,0.0,0.0,0.0,0.0,0.0,0.0,0.0,0.0,0.0,0.0,0.0,0.0,0.0,0.0,0.0,0.0,0.0,0.0,0.0,0.0,0.0,0.0,0.0,0.0,0.0,0.0,0.0,0.0,0.0,0.0,0.0,0.0,0.0,0.0,0.0,0.0,0.0,0.0,0.0,0.0,0.0,0.0,0.0,0.0,0.0,0.0,0.0,0.0,0.0,0.0,0.0,0.0,0.0,0.0,0.0,0.0,0.0,0.0,0.0,0.0,0.0,0.0,0.0,0.0,0.0,0.0,0.0,0.0,0.0,0.0,0.0,0.0,0.0,0.0,0.0,0.0,0.0,0.0,0.0,0.0,0.0,0.0,0.0,-0.9069,0.0,0.0,0.0,0.0,0.0,0.0,0.0,0.0,0.0,0.0,0.0,0.0,0.0,0.0,0.0,0.0,0.0,0.0,0.0,0.0,0.0,0.0,0.0,0.0,0.0,0.0,0.0,0.0,0.0,0.0,0.0,0.0,0.0,0.0,0.0,0.0,0.0,0.0,0.0,0.0,0.0,0.0,0.0,0.0,0.0,0.0,0.0,0.0,0.0,0.0,0.0,0.0,0.0,0.0,0.0,0.0,0.0,0.0,0.0,0.0,0.0,0.0,0.0,0.0,0.0,0.0,0.0,0.0,0.0,0.0,0.0,0.0,0.0,0.0,0.0,0.0,0.0,0.0,0.0,0.0,0.0,0.0,0.0,0.0,0.0,0.0,0.0,0.0,0.0,0.0,0.0,0.0,0.0,0.0,0.0,0.0,0.0,0.0,0.0,0.0,0.0,0.0,0.0,0.0,0.0,0.0,0.0,0.0,-1.3631,-1.3511,-1.339,-1.2789,-1.2236,-1.1545,-1.0281,-0.9384,-0.8801,0.0,0.0,0.0,0.0,0.0,0.0,0.0,0.0,0.0,0.0,0.0,0.0,0.0,0.0,0.0,0.0,0.0,0.0,0.0,0.0,0.0,0.0,0.0,0.0,0.0,0.0,0.0,0.0,0.0,0.0,0.0,0.0,0.0,0.0,0.0,0.0,0.0,0.0,0.0,0.9804,0.9658,0.9262,0.8683,0.8619,0.0,0.0,0.0,0.0,0.0,0.0,0.0,0.0,0.0,0.0,0.0,0.0,0.0,0.0,0.0,0.0,0.0,0.0,0.0,0.0,0.0,0.0,0.0,0.0,0.0,0.0,0.0,0.0,0.0,0.0,0.0,0.0,0.0,0.0,0.0,0.0,0.0,0.0,0.0,0.0,0.0,0.0,0.0,-0.6859,-0.7512,0.0,0.0,0.0,0.0,0.0,0.0,0.0,0.0,0.0,0.0,0.0,0.0,0.0,-1.3329,-1.339,-1.3821,-1.407,-1.413,-1.413,-1.401,-1.3709,-1.3042,-1.2552,-1.2112,-1.1108,0.0,-0.9326,-0.8678,0.0,0.0,0.0,0.0,0.0,0.0,0.0,0.0,0.0,0.0,0.0,0.0,0.0,0.0,0.0,0.0,0.0,0.0,0.0,0.0,0.0,0.0,0.0,0.0,0.0,0.0,0.0,0.0,0.0,0.0,0.0,0.0,0.0,0.0,0.0,0.0,0.9274,0.96,0.9536,0.9338,0.8882,0.8296,0.7712,0.7326,0.7068,0.628,0.0,0.0,0.0,0.0,0.0,0.0,0.0,0.0,0.0,0.0,0.0,0.0,0.0,0.0,0.0,0.0,0.0,0.0,0.0,0.0,0.0,0.0,0.0,0.0,0.0,0.0,0.0,0.0,0.0,0.0,0.0,0.0,0.0,0.0,0.0,0.0,0.0,0.0,0.0,-0.7055,-0.7967,-0.8554,-0.9145,-0.9664,0.0,0.0,0.0,0.0,0.0,0.0,0.0,0.0,0.0,-1.3216,-1.364,-1.4001,-1.4172,-1.4359,-1.4606,-1.4734,-1.4547,-1.4359,-1.4181,-1.3398,-1.285,-1.2359,-1.149,-1.0737,-1.0161,-0.9326,-0.8689,-0.8177,0.0,0.0,0.0,0.0,-0.7456,-0.7977,0.0,0.0,0.0,0.0,0.0,0.0,0.0,0.0,0.0,0.0,0.0,0.0,0.0,0.0,0.0,-0.3527,0.0,0.0,0.0,0.0,0.0,0.0,0.0,0.0,0.0,0.0,0.0,0.0,0.8818,0.9145,0.9145,0.8888,0.8495,0.7972,0.6933,0.6416,0.6222,0.5593,0.5154,0.0,0.0,0.0,0.0,0.0,0.0,0.0,0.0,0.0,0.0,0.0,0.0,0.0,0.0,0.0,0.0,0.0,0.0,0.0,0.0,0.0,0.0,0.0,0.0,0.0,0.0,0.0,0.0,0.0,0.0,0.0,0.0,0.0,0.0,0.0,0.0,0.0,0.0,-0.8042,-0.8818,-0.9396,-0.9913,-1.0428,0.0,0.0,0.0,0.0,0.0,0.0,-1.2911,-1.345,-1.3812,-1.4001,-1.4309,-1.4606,-1.4834,-1.4883,-1.5067,-1.5428,-1.5122,-1.493,-1.4851,-1.411,-1.343,-1.2806,-1.1896,-1.1291,-1.091,-0.9874,-0.9274,-0.8888,-0.8361,-0.8172,-0.8242,-0.8042,-0.8296,-0.8812,0.0,0.0,0.0,0.0,0.0,0.0,0.0,0.0,0.0,0.0,0.0,0.0,0.0,0.0,-0.4217,-0.3536,-0.2957,-0.2125,0.0,0.0,0.0,0.0,0.0,0.0,0.0,0.0,0.0,0.7521,0.8231,0.8624,0.8835,0.8436,0.7977,0.7456,0.6412,0.5954,0.5899,0.503,0.4672,0.4579,0.0,0.0,0.0,0.0,0.0,0.0,0.0,0.0,0.0,0.0,0.0,0.0,0.0,0.0,0.0,0.0,0.0,0.0,0.0,0.0,0.0,0.0,0.0,0.0,0.0,0.0,0.0,0.0,0.0,0.0,0.0,0.0,0.0,0.0,0.0,0.0,0.0,0.0,0.0,-0.9894,-1.0415,0.0,0.0,0.0,0.0,-1.339,-1.345,-1.3631,-1.407,-1.4359,-1.4529,-1.4656,-1.497,-1.5156,-1.5156,-1.5303,-1.5625,-1.6035,-1.5853,-1.5828,-1.5908,-1.5192,-1.4541,-1.3785,-1.2588,-1.1804,-1.1407,-1.0412,-0.9786,-0.9454,-0.9268,-0.9081,-0.8952,-0.9145,-0.9332,-0.946,0.0,0.0,0.0,0.0,0.0,0.0,0.0,0.0,0.0,0.0,0.0,0.0,0.0,-0.5158,-0.4517,-0.3974,-0.3272,-0.2462,-0.1512,0.0,0.0,0.0,0.0,0.0,0.0,0.0,0.6342,0.7003,0.7587,0.8042,0.8436,0.8047,0.7661,0.7265,0.6083,0.5343,0.4888,0.4314,0.4018,0.3885,0.339,0.2916,0.0,0.0,0.0,0.0,0.0,0.0,0.0,0.0,0.0,0.0,0.0,0.0,0.0,0.0,0.0,0.0,0.0,0.0,0.0,0.0,0.0,0.0,0.0,0.0,0.0,0.0,0.0,0.0,0.0,0.0,0.0,0.0,0.0,0.0,0.0,0.0,0.0,-1.073,-1.1296,0.0,-1.2781,-1.3364,-1.3879,-1.4382,-1.4853,-1.5177,-1.5374,-1.5632,-1.5828,-1.589,-1.6085,-1.6156,-1.6156,-1.6198,-1.6338,-1.6494,-1.6307,-1.6195,-1.6138,-1.556,-1.4902,-1.4164,-1.3317,-1.2609,-1.1928,-1.1159,-1.0528,-0.9977,-0.9728,-0.96,-0.9664,-0.9606,-0.9792,-1.004,0.0,0.0,0.0,0.0,0.0,0.0,0.0,0.0,0.0,0.0,0.0,-0.6384,-0.6041,-0.5349,-0.4794,-0.4378,-0.3627,-0.2863,-0.2159,0.0,0.0,0.0,0.0,0.0,0.0,0.4818,0.5617,0.6412,0.6933,0.7456,0.7847,0.7531,0.7199,0.6806,0.574,0.4828,0.4038,0.3721,0.3447,0.3183,0.2673,0.1934,0.1176,0.0,0.0,0.0,0.0,0.0,0.0,0.0,0.0,0.0,0.0,0.0,0.0,0.0,0.0,0.0,0.0,0.0,0.0,0.0,0.0,0.0,0.0,0.0,0.0,0.0,0.0,0.0,0.0,0.0,0.0,0.0,0.0,0.0,0.0,0.0,-1.0335,-1.1668,-1.2258,-1.2956,-1.3834,-1.4442,-1.4971,-1.5429,-1.5914,-1.6192,-1.6256,-1.6465,-1.6538,-1.6538,-1.6665,-1.6665,-1.6665,-1.6665,-1.6807,-1.6953,-1.6825,-1.6754,-1.6674,-1.629,-1.5686,-1.4866,-1.4077,-1.3353,-1.2589,-1.1868,-1.1227,-1.0705,-1.0258,-1.0117,-1.018,-1.0117,-1.018,-1.0371,0.0,0.0,0.0,0.0,0.0,0.0,0.0,0.0,0.0,0.0,-0.6992,-0.6599,-0.6229,-0.5643,-0.5107,-0.4769,-0.4073,-0.3396,-0.287,-0.2057,0.0,0.0,0.0,0.0,0.342,0.4223,0.5024,0.5888,0.6412,0.6872,0.7199,0.6872,0.6478,0.6028,0.5303,0.4393,0.3354,0.3145,0.2953,0.2657,0.1711,0.1021,0.0628,0.0,0.0,0.0,0.0,0.0,0.0,0.0,0.0,0.0,0.0,0.0,0.0,0.0,0.0,0.0,0.0,0.0,0.0,0.0,0.0,0.0,0.0,0.0,0.0,0.0,0.0,0.0,0.0,0.0,0.0,0.0,0.0,0.0,-0.9764,-1.0188,-1.1228,-1.2662,-1.3384,-1.4131,-1.5124,-1.5449,-1.5836,-1.6494,-1.6567,-1.6577,-1.6704,-1.6714,-1.6714,-1.6714,-1.6714,-1.6714,-1.6714,-1.6714,-1.6982,-1.7402,-1.7402,-1.7541,-1.7706,-1.7373,-1.6742,-1.5948,-1.4963,-1.4047,-1.3252,-1.2391,-1.1922,-1.1655,-1.0945,-1.0651,-1.0651,-1.0651,-1.0651,-1.0651,0.0,0.0,0.0,0.0,0.0,0.0,0.0,0.0,0.0,0.0,-0.7387,-0.6993,-0.6523,-0.6122,-0.5661,-0.5156,-0.457,-0.402,-0.3571,0.0,0.0,0.0,0.0,0.0,0.2751,0.3692,0.4628,0.5561,0.6083,0.6544,0.6942,0.6478,0.6144,0.5859,0.4795,0.3937,0.3215,0.2642,0.2143,0.1712,0.141,0.0864,0.0079,0.0,0.0,0.0,0.0,0.0,0.0,0.0,0.0,0.0,0.0,0.0,0.0,0.0,0.0,0.0,0.0,0.0,0.0,0.0,0.0,0.0,0.0,0.0,0.0,0.0,0.0,0.0,0.0,0.0,0.0,0.0,0.0,-1.1895,-1.1438,-1.1654,-1.226,-1.3435,-1.4189,-1.492,-1.5707,-1.629,-1.6796,-1.7142,-1.7414,-1.7589,-1.7656,-1.7656,-1.7656,-1.7656,-1.7656,-1.7656,-1.7656,-1.7656,-1.7725,-1.7842,-1.7842,-1.7891,-1.793,-1.7647,-1.7235,-1.6612,-1.587,-1.4969,-1.3953,-1.3072,-1.2522,-1.2207,-1.1472,-1.1189,-1.1189,-1.1189,-1.1189,-1.1189,0.0,0.0,0.0,0.0,0.0,0.0,0.0,0.0,0.0,0.0,-0.7766,-0.7393,-0.6919,-0.6579,-0.6243,-0.5701,-0.5171,-0.4661,-0.4174,0.0,0.0,0.0,0.0,0.1411,0.2348,0.3222,0.4161,0.5163,0.5624,0.6086,0.6486,0.6026,0.563,0.5237,0.4359,0.3599,0.2948,0.2527,0.194,0.1257,0.0864,0.0314,-0.0314,-0.0628,-0.1021,-0.1412,-0.2195,-0.3448,-0.4706,-0.5082,0.0,0.0,0.0,0.0,0.0,0.0,0.0,0.0,0.0,0.0,0.0,0.0,0.0,0.0,0.0,0.0,0.0,0.0,0.0,0.0,0.0,0.0,0.0,0.0,-1.305,-1.3429,-1.3399,-1.308,-1.3355,-1.4552,-1.5255,-1.5936,-1.6552,-1.7083,-1.7417,-1.7646,-1.7871,-1.8008,-1.8008,-1.8174,-1.8271,-1.8271,-1.8447,-1.8545,-1.8545,-1.8545,-1.8545,-1.8545,-1.8545,-1.8545,-1.8545,-1.8325,-1.7948,0.0,-1.6785,-1.5908,-1.4895,-1.3915,-1.3341,0.0,0.0,0.0,0.0,0.0,-1.1498,-1.1423,0.0,0.0,0.0,0.0,0.0,0.0,0.0,0.0,0.0,0.0,0.0,-0.7927,-0.7408,-0.7206,-0.69,-0.646,-0.5823,-0.5204,0.0,0.0,0.0,-0.1143,-0.0202,0.0873,0.208,0.282,0.3694,0.4761,0.516,0.5561,0.5892,0.5583,0.5108,0.4501,0.3994,0.3332,0.2662,0.2571,0.2044,0.1178,0.0236,-0.0393,-0.0628,-0.0314,-0.0706,-0.1567,-0.2584,-0.3915,-0.5171,-0.547,0.0,0.0,0.0,0.0,0.0,0.0,0.0,0.0,0.0,0.0,0.0,0.0,0.0,0.0,0.0,0.0,0.0,0.0,0.0,0.0,0.0,0.0,0.0,0.0,-1.4977,-1.5185,-1.5405,-1.4628,-1.4514,-1.5632,-1.6315,-1.689,-1.7461,-1.7647,-1.7784,-1.8008,-1.8057,-1.8076,-1.8076,0.0,0.0,0.0,0.0,-1.9287,-1.9287,-1.9287,-1.9287,-1.9287,-1.9287,-1.9287,-1.9287,-1.9151,-1.872,-1.8142,-1.7585,-1.6786,-1.5822,-1.4856,-1.4194,-1.37,-1.2361,-1.1943,-1.2081,-1.1875,-1.1668,-1.1523,0.0,0.0,0.0,0.0,0.0,0.0,0.0,0.0,0.0,-0.8886,-0.8854,-0.876,-0.8353,-0.827,-0.8088,-0.7599,-0.6961,-0.5927,0.0,0.0,-0.2553,-0.1411,-0.047,0.0538,0.1546,0.2621,0.3625,0.4422,0.509,0.5491,0.562,0.53,0.4728,0.4039,0.373,0.3062,0.2264,0.2433,0.2044,0.1178,-0.0393,-0.11,-0.1178,-0.11,-0.157,-0.2588,-0.4794,-0.5736,-0.6038,-0.6574,-0.6872,-0.7169,-0.794,0.0,0.0,0.0,0.0,0.0,0.0,0.0,0.0,0.0,0.0,0.0,0.0,0.0,0.0,0.0,0.0,0.0,0.0,0.0,0.0,-1.5158,-1.5732,-1.6201,-1.6519,-1.6394,-1.6157,-1.5852,-1.6609,-1.7285,-1.756,-1.7784,-1.794,-1.8008,-1.832,-1.8446,-1.8446,-1.8926,-1.916,-1.916,-1.9248,-1.9287,-1.9287,-1.9287,-1.9287,-1.9287,0.0,0.0,-1.9287,-1.9287,-1.9102,-1.8787,-1.7993,-1.7378,-1.665,-1.5535,-1.4625,-1.397,-1.3057,-1.2573,-1.2501,-1.2428,-1.2421,-1.2356,0.0,0.0,0.0,0.0,0.0,0.0,0.0,0.0,0.0,0.0,-0.9103,-0.9048,-0.8851,-0.8827,-0.8714,-0.8488,-0.7492,0.0,0.0,-0.3971,-0.2927,-0.1677,-0.0941,0.0,0.121,0.2216,0.3086,0.3887,0.4561,0.496,0.5093,0.4818,0.4232,0.3495,0.326,0.264,0.1729,0.1808,0.165,0.1178,-0.0628,-0.1572,-0.1887,-0.1492,-0.1803,-0.2899,-0.5821,-0.6843,-0.6976,-0.7512,-0.7727,-0.7936,-0.878,-0.9311,-0.9685,0.0,0.0,0.0,0.0,0.0,0.0,0.0,0.0,0.0,0.0,0.0,0.0,0.0,0.0,-1.4322,0.0,0.0,-1.5576,-1.6053,-1.6386,-1.6693,-1.6866,-1.6987,-1.7038,-1.6941,-1.7198,-1.7482,-1.7774,-1.793,-1.8096,-1.8311,-1.8516,-1.873,-1.8955,-1.9365,-1.96,-1.96,-1.9814,-1.9922,-1.9922,-1.9922,-1.9922,-1.9922,-1.9922,-1.9922,-1.9922,-1.9922,-1.9739,-1.9451,-1.8934,-1.8319,-1.7468,-1.6139,-1.5196,-1.4482,-1.4042,-1.3615,-1.32,-1.32,-1.3119,-1.3046,0.0,0.0,0.0,0.0,0.0,0.0,0.0,0.0,0.0,0.0,0.0,-0.9344,-0.9388,-0.9358,-0.9298,0.0,0.0,0.0,0.0,-0.4572,-0.3363,-0.2142,-0.1478,-0.0538,0.0874,0.1679,0.2551,0.342,0.3961,0.4295,0.4431,0.4252,0.3706,0.2994,0.2843,0.2277,0.1257,0.11,0.1021,0.0943,-0.0629,-0.165,-0.22,-0.1724,-0.1956,-0.3051,-0.6362,-0.7622,-0.7833,-0.8205,-0.8493,-0.8856,-0.9614,-1.0293,-1.0887,-1.1335,-1.207,0.0,0.0,0.0,0.0,0.0,0.0,0.0,0.0,0.0,-1.5117,-1.5125,-1.5417,-1.578,-1.6114,-1.6333,-1.6621,-1.6978,-1.7047,-1.7028,-1.7051,-1.7198,-1.7529,-1.7968,-1.7745,-1.7687,-1.794,-1.8008,-1.8193,-1.8613,-1.8721,-1.8945,-1.9458,-1.9889,-2.0124,-2.019,-2.0611,-2.0799,-2.0799,-2.0799,-2.0722,-2.0654,-2.0654,-2.0644,-2.0566,-2.0566,-2.0371,-2.0039,-1.9829,-1.9084,-1.7967,-1.6856,-1.5893,-1.5259,-1.5259,-1.484,-1.4281,-1.4,-1.3855,-1.3775,0.0,0.0,0.0,0.0,0.0,0.0,0.0,0.0,0.0,0.0,0.0,0.0,0.0,0.0,0.0,0.0,0.0,0.0,-0.6716,-0.5328,-0.4107,-0.3074,-0.2082,-0.1008,0.0067,0.1143,0.2151,0.3023,0.3625,0.3892,0.3897,0.3617,0.3199,0.2627,0.2614,0.2044,0.1257,0.0471,0.0157,0.0079,-0.0943,-0.1334,-0.1489,-0.211,-0.2655,-0.3437,-0.643,-0.7927,-0.8607,-0.8646,-0.916,-0.9841,-1.0663,-1.1335,-1.2003,-1.2746,0.0,-1.3897,-1.4243,-1.4689,-1.5125,-1.548,-1.5338,-1.5133,0.0,0.0,-1.5762,-1.5921,-1.6263,-1.6542,-1.676,-1.6968,-1.7176,-1.7401,-1.7401,-1.7461,-1.7569,-1.756,-1.7696,-1.7949,-1.794,-1.794,-1.8008,-1.8008,-1.8272,-1.8803,-1.9095,-1.9468,-2.0039,-2.0503,-2.0981,-2.1278,-2.1395,-2.1425,-2.1425,-2.1425,-2.1205,-2.0906,-2.0906,-2.0741,-2.0566,-2.0566,-2.0537,-2.0469,-1.9955,-1.9001,-1.7834,-1.7645,-1.7131,-1.6394,-1.6394,-1.6245,-1.5886,-1.4689,-1.433,-1.4466,0.0,0.0,0.0,0.0,0.0,0.0,0.0,0.0,0.0,0.0,0.0,0.0,0.0,0.0,0.0,0.0,0.0,0.0,-0.7661,-0.6211,-0.4905,-0.3875,-0.2751,-0.1679,-0.0672,0.047,0.1412,0.2218,0.282,0.3155,0.3159,0.3143,0.2798,0.2189,0.2425,0.2017,0.1178,-0.0157,-0.0786,-0.0786,-0.1493,-0.1885,-0.2038,-0.2343,-0.288,-0.3883,-0.6546,-0.8025,0.0,0.0,-1.026,-1.1013,-1.1983,-1.2725,-1.3317,-1.4106,-1.4752,0.0,-1.5807,-1.6035,0.0,0.0,-1.6263,-1.6193,-1.6123,-1.6403,-1.6673,-1.6751,-1.6968,-1.7176,-1.7304,-1.7432,-1.7579,0.0,-1.7813,-1.7803,-1.7862,-1.7852,-1.7852,-1.8008,-1.8154,-1.8154,-1.8008,-1.8008,-1.8281,-1.8864,-1.9242,-1.9875,-2.0721,-2.1171,-2.1578,-2.1807,-2.1949,-2.2025,-2.2025,-2.1883,-2.1731,-2.1436,-2.1282,-2.1128,-2.0964,-2.0819,-2.0731,-2.0537,-2.0041,-1.9502,-1.8841,-1.8356,-1.7821,-1.7272,-1.7042,-1.6821,-1.6533,-1.5754,-1.5525,-1.5596,0.0,0.0,0.0,0.0,0.0,0.0,0.0,0.0,0.0,0.0,0.0,0.0,0.0,0.0,0.0,0.0,0.0,0.0,0.0,-0.7131,-0.5813,-0.4686,-0.3604,-0.2482,-0.1411,-0.0336,0.0605,0.1412,0.2016,0.2418,0.2555,0.2628,0.2407,0.2023,0.2077,0.1742,0.0847,-0.0698,-0.14,-0.1635,-0.1959,-0.2356,-0.2824,-0.2575,-0.3496,-0.5109,-0.7138,-0.8523,0.0,0.0,-1.1675,-1.2338,-1.3368,-1.4099,-1.4744,-1.5587,-1.6228,-1.6802,-1.7285,0.0,0.0,-1.7148,-1.7235,-1.7245,-1.695,-1.7166,-1.7373,-1.7373,-1.752,-1.7666,-1.7784,-1.7784,-1.7862,-1.8008,-1.8008,-1.8008,-1.8076,-1.8076,-1.8076,-1.8144,-1.8347,-1.8414,-1.8192,-1.8134,-1.8419,-1.9088,-1.9558,-2.0343,-2.1385,-2.1807,-2.2252,-2.2553,-2.2767,-2.2916,-2.2916,-2.2692,-2.2478,-2.2101,-2.1883,-2.1655,-2.1436,-2.1205,-2.0974,-2.0712,-2.0311,-2.0039,-1.9817,-1.9131,-1.8577,-1.8199,-1.7906,-1.7722,-1.7511,-1.7211,-1.6854,-1.6594,0.0,0.0,0.0,0.0,0.0,0.0,0.0,0.0,0.0,0.0,0.0,0.0,0.0,0.0,0.0,0.0,0.0,0.0,0.0,-0.8022,-0.6727,-0.5505,-0.4683,-0.3551,-0.208,-0.1411,-0.0403,0.0807,0.1143,0.1614,0.2223,0.2008,0.2034,0.2179,0.1587,0.0876,-0.0,-0.09,-0.1745,-0.2435,-0.2021,-0.2668,-0.369,-0.2803,-0.4501,-0.7476,-0.8376,0.0,0.0,0.0,-1.3127,-1.3855,-1.4593,-1.5367,0.0,-1.7051,-1.7881,-1.8442,-1.8664,0.0,-1.8442,-1.8432,-1.8317,-1.8134,-1.7774,-1.7862,-1.794,-1.7716,-1.7862,-1.8008,-1.8008,-1.8008,-1.8008,-1.8008,-1.8008,-1.8076,-1.8269,-1.8269,-1.8337,-1.8482,-1.8596,-1.8633,0.0,-1.8509,-1.8853,-1.9817,-2.0216,-2.0907,-2.1983,-2.2478,-2.3001,-2.3824,-2.4009,-2.4154,-2.4154,-2.3959,-2.3519,-2.2927,-2.2553,-2.2252,-2.2035,-2.1655,-2.1349,-2.1128,-2.0964,-2.0629,-2.0202,-1.9958,-1.9639,-1.9268,-1.9248,-1.9248,-1.9248,-1.9175,-1.8356,-1.7166,0.0,0.0,0.0,0.0,0.0,0.0,0.0,0.0,0.0,0.0,0.0,0.0,0.0,0.0,0.0,0.0,0.0,0.0,0.0,-0.8918,-0.7624,-0.6483,-0.5552,-0.4525,-0.3413,-0.2415,-0.1478,-0.047,0.0134,0.0605,0.0941,0.0882,0.0826,0.07,0.0495,0.0287,-0.0,-0.0515,-0.1417,-0.2504,-0.2138,-0.2393,-0.2969,-0.3263,-0.5425,-0.847,0.0,0.0,0.0,0.0,0.0,-1.6131,-1.6576,-1.7161,-1.7842,-1.888,-1.9365,-1.9573,-1.9649,-1.9452,-1.9187,-1.9044,-1.8921,-1.8741,-1.8337,-1.8202,-1.8134,-1.793,-1.794,-1.8008,-1.8008,-1.8008,-1.8008,-1.8008,-1.8008,-1.8076,-1.8269,-1.8405,-1.8549,-1.8875,-1.9131,0.0,0.0,0.0,0.0,-2.0564,-2.0876,-2.1481,-2.267,-2.3298,-2.3948,-2.4443,-2.4731,-2.4945,-2.4945,-2.4587,-2.4288,-2.3925,-2.3287,-2.2927,-2.2703,-2.2252,-2.1959,-2.1807,-2.1436,-2.1115,-2.0791,-2.0331,-1.9974,-1.9678,-1.9394,-1.9287,-1.9287,-1.9287,-1.9029,-1.8562,0.0,0.0,0.0,0.0,0.0,0.0,0.0,0.0,0.0,0.0,0.0,0.0,0.0,0.0,0.0,0.0,0.0,0.0,0.0,0.0,-0.8638,-0.7588,-0.6648,-0.5638,-0.4607,-0.3616,-0.2549,-0.1545,-0.094,-0.0537,-0.0202,-0.0067,-0.0204,-0.0552,-0.0552,-0.0488,-0.0425,-0.0859,-0.1605,-0.2618,-0.2488,-0.268,-0.3122,-0.4588,-0.6597,0.0,0.0,0.0,0.0,0.0,0.0,-1.7593,-1.7988,-1.867,-1.9475,-2.0161,-2.0495,-2.0688,-2.0549,-2.042,-2.0226,-2.0031,-1.9781,-1.9528,-1.9008,-1.8674,-1.8405,-1.8144,-1.8076,-1.8008,-1.8008,-1.8008,-1.8008,-1.8008,-1.8076,-1.8202,-1.8405,-1.8664,-1.8911,-1.9191,-1.953,-1.9576,0.0,0.0,0.0,-2.1572,-2.2095,-2.2644,-2.3368,-2.4082,-2.4671,-2.5087,-2.5453,-2.5606,-2.5606,-2.53,-2.4933,-2.4636,-2.407,-2.3644,-2.3434,-2.3075,-2.2777,-2.2478,-2.2101,-2.1807,-2.1558,-2.1024,-2.0677,-2.043,-2.0227,-1.9979,-1.9905,-1.9905,-1.983,-1.9697,0.0,0.0,0.0,0.0,0.0,0.0,0.0,0.0,0.0,0.0,0.0,0.0,0.0,0.0,0.0,0.0,0.0,0.0,0.0,0.0,0.0,-0.8817,-0.7786,-0.6768,-0.5712,-0.4809,-0.3751,-0.2484,-0.2147,-0.1678,-0.121,-0.0941,-0.1075,-0.1681,-0.1614,-0.1479,-0.1212,-0.1729,-0.2273,-0.2914,-0.3216,-0.3522,-0.4135,-0.6556,0.0,0.0,0.0,0.0,0.0,0.0,0.0,-1.8213,-1.8751,-1.9835,-2.0903,-2.0967,-2.1285,-2.1651,-2.1514,-2.1502,-2.1565,-2.1187,-2.088,-2.0442,-1.9802,-1.9208,-1.8741,-1.8405,-1.8144,-1.8008,0.0,0.0,-1.8008,-1.8008,-1.8134,-1.8405,-1.8741,-1.911,-1.9312,0.0,0.0,0.0,0.0,0.0,0.0,-2.3029,0.0,-2.4224,-2.4172,-2.4755,-2.53,-2.5898,-2.6131,-2.6201,-2.6201,-2.598,-2.5606,-2.5004,-2.4862,-2.4576,-2.4299,-2.4032,-2.374,-2.3372,-2.2927,-2.2628,-2.2402,-2.2025,-2.1731,-2.1578,-2.1502,-2.1282,-2.0906,-2.0906,-2.0809,-2.0526,0.0,0.0,0.0,0.0,0.0,0.0,0.0,0.0,0.0,0.0,0.0,0.0,0.0,0.0,0.0,0.0,0.0,0.0,0.0,0.0,0.0,0.0,0.0,0.0,0.0,0.0,0.0,0.0,0.0,-0.2755,-0.2487,-0.2284,-0.2284,-0.2418,-0.2149,-0.2014,-0.1947,-0.2237,-0.2833,-0.3549,0.0,-0.3869,-0.4483,0.0,0.0,0.0,0.0,0.0,0.0,0.0,0.0,0.0,-1.9878,-2.0518,-2.1158,-2.14,-2.1663,-2.1862,-2.1987,-2.2049,-2.1987,-2.1651,-2.1262,-2.0816,-2.0107,-1.966,-1.9274,-1.8741,-1.8607,-1.8539,0.0,0.0,0.0,-1.8008,-1.8037,0.0,-1.8546,-1.8874,0.0,-1.9878,0.0,-2.0859,-2.0692,-2.0839,0.0,0.0,-2.5247,-2.4767,-2.4213,-2.4885,-2.5496,-2.6025,-2.6314,-2.6396,-2.6396,-2.6201,-2.598,-2.5676,-2.5465,-2.5312,-2.5241,-2.4874,-2.4587,-2.4288,-2.3998,-2.3497,-2.3075,-2.2777,-2.2478,-2.2176,-2.2025,-2.1807,-2.1578,-2.1436,-2.1205,-2.1011,0.0,0.0,0.0,0.0,0.0,0.0,0.0,0.0,0.0,0.0,0.0,0.0,0.0,0.0,0.0,0.0,0.0,0.0,0.0,0.0,0.0,0.0,0.0,0.0,0.0,0.0,0.0,0.0,0.0,0.0,0.0,-0.3355,-0.3224,-0.3155,-0.282,-0.2618,-0.2551,0.0,0.0,0.0,0.0,0.0,0.0,0.0,0.0,0.0,0.0,0.0,0.0,0.0,0.0,-1.966,-1.9933,-2.0518,-2.1094,-2.1336,0.0,-2.2173,-2.2371,-2.2494,-2.2543,-2.2285,-2.1901,-2.1463,-2.0869,-2.0366,-1.9791,-1.933,-1.9065,-1.8808,-1.8472,-1.8337,0.0,0.0,0.0,0.0,-1.8496,-1.8944,-1.9523,0.0,-2.0734,0.0,-2.1961,-2.2946,-2.4357,0.0,-2.607,-2.5667,-2.5226,-2.5436,-2.5787,-2.6233,-2.6383,-2.6533,-2.6533,-2.6396,-2.627,-2.6176,-2.6087,-2.6029,-2.5959,-2.5548,-2.5312,-2.5087,0.0,-2.4443,-2.4009,-2.3863,-2.3497,-2.3202,-2.3001,-2.2628,-2.2176,-2.1883,-2.1578,-2.1359,0.0,0.0,0.0,0.0,0.0,0.0,0.0,0.0,0.0,0.0,0.0,0.0,0.0,0.0,0.0,0.0,0.0,0.0,0.0,0.0,0.0,0.0,0.0,0.0,0.0,0.0,0.0,0.0,0.0,0.0,0.0,0.0,0.0,0.0,0.0,0.0,0.0,0.0,0.0,0.0,0.0,0.0,0.0,0.0,0.0,0.0,0.0,0.0,0.0,0.0,-1.8357,-1.9243,-1.9462,-2.0129,-2.0903,-2.1008,-2.1714,-2.242,-2.2616,-2.2909,-2.3078,-2.2909,-2.2555,-2.2173,-2.1765,-2.1123,-2.0484,-2.0031,0.0,-1.9142,-1.8684,-1.8472,-1.8269,-1.8066,0.0,-1.8412,-1.8532,-1.9196,-1.9845,-2.0288,-2.0985,-2.1889,-2.2992,-2.5153,-2.6531,-2.6483,-2.6496,-2.6514,-2.6521,-2.6176,-2.6126,-2.6465,-2.6533,-2.6533,-2.6533,-2.6533,-2.6533,-2.6533,-2.6483,-2.6521,-2.6509,-2.6156,-2.5898,-2.5676,-2.5535,0.0,-2.5087,-2.4862,-2.4647,-2.4299,-2.4093,-2.3519,-2.2777,-2.2478,-2.2025,-2.1731,0.0,0.0,0.0,0.0,0.0,0.0,0.0,0.0,0.0,0.0,-1.3198,0.0,0.0,0.0,0.0,0.0,0.0,0.0,0.0,0.0,0.0,0.0,0.0,0.0,0.0,0.0,0.0,0.0,0.0,0.0,0.0,0.0,0.0,0.0,0.0,0.0,0.0,0.0,0.0,0.0,0.0,0.0,0.0,0.0,0.0,0.0,0.0,0.0,0.0,0.0,-1.8154,-1.8931,-1.9142,-1.9802,-2.0529,-2.0839,-2.1537,-2.2309,-2.2629,-2.2909,-2.3078,-2.2909,-2.2739,-2.2494,-2.2185,-2.1839,0.0,0.0,-2.0506,-2.0053,-1.9131,-1.8808,-1.8596,-1.8075,-1.8055,-1.8315,-1.8936,-1.9553,-2.0493,0.0,-2.238,-2.286,0.0,0.0,0.0,0.0,0.0,-2.6502,-2.649,-2.6452,-2.6452,-2.6533,-2.6533,-2.6533,-2.6533,-2.6533,-2.6533,-2.6533,-2.6477,-2.649,-2.649,-2.6396,-2.6258,-2.6062,-2.6062,0.0,-2.5453,-2.5453,-2.5229,-2.4862,-2.4647,-2.4238,-2.3677,-2.3457,-2.3075,-2.2777,0.0,0.0,0.0,0.0,0.0,0.0,0.0,0.0,0.0,0.0,-1.3391,-1.3357,0.0,0.0,0.0,0.0,0.0,0.0,0.0,0.0,0.0,0.0,0.0,0.0,0.0,0.0,0.0,0.0,0.0,0.0,0.0,0.0,0.0,0.0,0.0,0.0,0.0,0.0,0.0,0.0,0.0,0.0,0.0,0.0,0.0,0.0,0.0,0.0,0.0,0.0,-1.7919,-1.8434,-1.8684,-1.9341,-2.0074,-2.0571,-2.1336,-2.2161,-2.2555,-2.2909,-2.3078,-2.3017,-2.2909,-2.2739,-2.2616,0.0,0.0,0.0,-2.0631,-2.0054,-1.9038,-1.8647,0.0,-1.8026,-1.8142,-1.8489,-1.9023,-1.9705,0.0,-2.1533,-2.2258,-2.2762,0.0,0.0,0.0,0.0,0.0,-2.6533,-2.6533,-2.6533,-2.6533,-2.6533,-2.6533,-2.6533,-2.6533,-2.6533,-2.6533,-2.6533,-2.6533,-2.6533,-2.6533,-2.6533,-2.6465,-2.6339,-2.6339,0.0,-2.6037,-2.6037,-2.5816,-2.5453,-2.5241,-2.4814,-2.4345,-2.4043,-2.3751,-2.3446,0.0,0.0,0.0,0.0,0.0,0.0,0.0,-1.356,-1.3628,-1.3594,-1.3628,-1.3594,-1.3335,-1.3267,-1.3672,0.0,0.0,0.0,0.0,0.0,0.0,0.0,0.0,0.0,0.0,0.0,0.0,0.0,0.0,0.0,0.0,0.0,0.0,0.0,0.0,0.0,0.0,0.0,0.0,0.0,0.0,0.0,0.0,0.0,0.0,0.0,0.0,0.0,0.0,0.0,-1.7684,-1.8135,-1.8492,-1.9142,-1.9868,-2.0506,-2.1262,-2.2087,-2.2555,-2.2909,-2.3078,-2.3078,-2.3017,-2.2932,-2.282,-2.2554,0.0,-2.1069,-2.0542,-1.9862,-1.8806,-1.8394,-1.8171,0.0,-1.8237,-1.8576,-1.9013,-1.9705,-2.0353,0.0,-2.1791,0.0,0.0,0.0,0.0,0.0,0.0,0.0,-2.6533,-2.6533,-2.6533,-2.6533,-2.6533,-2.6533,-2.6533,-2.6533,-2.6533,-2.6533,-2.6533,-2.6533,-2.6533,-2.6533,-2.6533,-2.6533,-2.6533,0.0,0.0,-2.6533,-2.6327,-2.598,-2.5758,-2.5407,-2.4933,-2.4634,-2.4406,-2.4177,0.0,0.0,0.0,0.0,0.0,0.0,0.0,-1.3708,-1.3821,-1.3841,-1.3874,-1.3841,-1.3754,-1.3539,-1.3801,0.0,0.0,0.0,0.0,0.0,0.0,0.0,0.0,0.0,0.0,0.0,0.0,0.0,0.0,0.0,0.0,0.0,0.0,0.0,0.0,0.0,0.0,0.0,0.0,0.0,0.0,0.0,0.0,0.0,0.0,0.0,0.0,0.0,0.0,0.0,0.0,-1.834,-1.8906,-1.9518,-2.0172,-2.07,0.0,0.0,-2.2616,-2.2909,-2.3078,-2.3078,-2.3078,-2.294,-2.2451,0.0,-2.2002,-2.0998,-2.0427,-1.9818,-1.8791,-1.8511,-1.8379,-1.8025,0.0,-1.8285,-1.9007,-1.9661,-2.0355,-2.1083,0.0,0.0,0.0,0.0,0.0,0.0,0.0,0.0,-2.6533,-2.6533,-2.6533,-2.6533,-2.6533,-2.6533,-2.6533,-2.6533,-2.6533,-2.6533,-2.6533,-2.6533,-2.6533,-2.6533,-2.6533,-2.6533,-2.6533,0.0,0.0,-2.6533,-2.6396,-2.6131,-2.6131,-2.591,-2.5535,-2.5465,-2.5324,-2.517,0.0,0.0,0.0,0.0,0.0,0.0,0.0,-1.4111,-1.4208,-1.4189,-1.4254,-1.4208,-1.4013,-1.3795,-1.4059,0.0,0.0,0.0,0.0,0.0,0.0,0.0,0.0,0.0,0.0,0.0,0.0,0.0,0.0,0.0,0.0,0.0,0.0,0.0,0.0,0.0,0.0,0.0,0.0,0.0,0.0,0.0,0.0,0.0,0.0,0.0,0.0,0.0,0.0,0.0,0.0,0.0,-1.813,-1.9057,0.0,0.0,-2.16,-2.2247,-2.2616,-2.286,-2.2969,-2.2969,-2.266,-2.2362,-2.2197,0.0,-2.1443,-2.0482,-2.0025,-1.9459,-1.8357,-1.8109,-1.803,0.0,0.0,0.0,-1.9027,0.0,-2.0366,-2.1094,0.0,0.0,0.0,0.0,0.0,0.0,0.0,0.0,-2.6533,-2.6533,-2.6533,-2.6533,-2.6533,-2.6533,-2.6533,-2.6533,-2.6533,-2.6533,-2.6533,-2.6533,-2.6533,-2.6533,-2.6533,-2.6533,-2.6533,0.0,0.0,-2.6533,-2.6396,-2.6213,-2.6213,-2.605,-2.5758,-2.5758,-2.5758,-2.5676,0.0,0.0,0.0,0.0,0.0,0.0,-1.4365,-1.4497,-1.4578,-1.456,-1.4592,-1.4515,-1.4292,-1.4092,-1.4267,-1.5006,0.0,0.0,0.0,0.0,0.0,0.0,0.0,0.0,0.0,0.0,0.0,0.0,0.0,0.0,0.0,0.0,0.0,0.0,0.0,0.0,0.0,0.0,0.0,0.0,0.0,0.0,0.0,0.0,0.0,0.0,0.0,0.0,0.0,0.0,0.0,0.0,0.0,0.0,0.0,0.0,-2.1315,-2.1898,-2.2198,-2.2377,-2.2424,-2.2424,-2.2033,-2.1654,0.0,0.0,-2.0816,-2.003,-1.9582,-1.9101,-1.8227,-1.7748,-1.7507,0.0,0.0,-1.8287,-1.9027,-1.9683,-2.0333,0.0,0.0,0.0,0.0,0.0,0.0,0.0,0.0,0.0,0.0,-2.6533,-2.6533,-2.6533,-2.6533,-2.6533,-2.6533,-2.6533,-2.6533,-2.6533,-2.6533,-2.6533,-2.6533,-2.6533,-2.6533,-2.6533,-2.6533,0.0,0.0,-2.6533,-2.6396,-2.627,-2.627,-2.6188,-2.605,-2.605,-2.605,-2.605,0.0,0.0,0.0,0.0,0.0,0.0,0.0,-1.4746,-1.4856,-1.4982,-1.4949,-1.4825,-1.4714,-1.4324,-1.4411,-1.5221,0.0,0.0,0.0,0.0,0.0,0.0,0.0,0.0,0.0,0.0,0.0,0.0,0.0,0.0,0.0,0.0,0.0,0.0,0.0,0.0,0.0,0.0,0.0,0.0,0.0,0.0,0.0,0.0,0.0,0.0,0.0,0.0,0.0,0.0,0.0,0.0,0.0,0.0,0.0,0.0,-2.0632,-2.1055,-2.1237,-2.1294,-2.1294,-2.1294,-2.1193,-2.0989,0.0,0.0,-2.0312,-1.9741,-1.9158,-1.8703,-1.8468,-1.7527,-1.6707,-1.6481,-1.7326,0.0,-1.9027,-1.9705,0.0,0.0,0.0,0.0,0.0,0.0,0.0,0.0,0.0,0.0,0.0,-2.6533,-2.6533,-2.6533,-2.6533,-2.6533,-2.6533,-2.6533,-2.6533,-2.6533,-2.6533,-2.6533,-2.6533,-2.6533,-2.6533,0.0,0.0,0.0,0.0,-2.6533,-2.6533,-2.6533,-2.6533,-2.6533,-2.6465,-2.6465,-2.6465,-2.6465,0.0,0.0,0.0,0.0,0.0,0.0,0.0,-1.5163,-1.5239,-1.5255,-1.5224,-1.5086,-1.4871,-1.4883,-1.5036,-1.5359,0.0,0.0,0.0,0.0,0.0,0.0,0.0,0.0,0.0,0.0,0.0,0.0,0.0,0.0,0.0,0.0,0.0,0.0,0.0,0.0,0.0,0.0,0.0,0.0,0.0,0.0,0.0,0.0,0.0,0.0,0.0,0.0,0.0,0.0,0.0,0.0,0.0,0.0,0.0,0.0,0.0,0.0,-2.1188,-2.1144,-2.1099,-2.1099,-2.0741,-2.0404,-2.036,0.0,-1.9837,-1.9664,-1.9235,-1.8756,-1.8297,-1.7756,-1.7217,-1.6533,-1.7284,0.0,0.0,0.0,0.0,0.0,0.0,0.0,0.0,0.0,0.0,0.0,0.0,0.0,0.0,-2.6533,-2.6533,-2.6533,-2.6533,-2.6533,-2.6533,-2.6533,-2.6533,-2.6533,-2.6533,-2.6533,-2.6533,-2.6533,-2.6533,0.0,0.0,0.0,0.0,-2.6533,-2.6533,-2.6533,-2.6533,-2.6533,-2.6533,-2.6533,-2.6533,-2.6533,0.0,0.0,0.0,0.0,0.0,0.0,0.0,-1.5403,-1.5448,-1.5477,-1.5403,-1.5355,-1.5353,-1.5319,-1.5473,-1.5811,0.0,0.0,0.0,0.0,0.0,0.0,0.0,0.0,0.0,0.0,0.0,0.0,0.0,0.0,0.0,0.0,0.0,0.0,0.0,0.0,0.0,0.0,0.0,0.0,0.0,0.0,-0.5428,0.0,0.0,0.0,0.0,0.0,0.0,0.0,0.0,0.0,0.0,0.0,0.0,0.0,-2.0019,-2.0677,0.0,-2.0593,-2.0551,-2.0391,-2.0049,0.0,0.0,0.0,-1.955,-1.9639,-1.9401,-1.9078,-1.8787,-1.8259,-1.7532,-1.6584,-1.7534,0.0,0.0,0.0,0.0,0.0,0.0,0.0,0.0,0.0,0.0,0.0,0.0,0.0,0.0,-2.6533,-2.6533,-2.6533,-2.6533,-2.6533,-2.6533,-2.6533,-2.6533,-2.6533,-2.6533,-2.6533,-2.6533,-2.6533,-2.6533,0.0,0.0,0.0,0.0,-2.6533,-2.6533,-2.6533,-2.6533,-2.6533,-2.6533,-2.6533,-2.6533,-2.6533,0.0,0.0,0.0,0.0,0.0,0.0,0.0,0.0,0.0,0.0,-1.5522,-1.5635,-1.6056,-1.5772,-1.5823,0.0,0.0,0.0,0.0,0.0,0.0,0.0,0.0,0.0,0.0,0.0,0.0,-1.2538,-1.2408,-1.1648,-1.0338,0.0,0.0,0.0,0.0,0.0,0.0,0.0,0.0,0.0,0.0,0.0,0.0,0.0,0.0,0.0,0.0,0.0,0.0,0.0,0.0,0.0,0.0,0.0,0.0,0.0,0.0,0.0,0.0,-1.9809,-1.9718,-1.9515,-1.9193,0.0,0.0,0.0,0.0,-1.9731,-1.958,-1.9473,-1.9703,-1.8832,-1.7734,-1.6564,-1.7894,0.0,0.0,0.0,0.0,0.0,0.0,0.0,0.0,0.0,0.0,0.0,0.0,0.0,0.0,-2.6533,-2.6533,-2.6533,-2.6533,-2.6533,-2.6533,-2.6533,-2.6533,-2.6533,-2.6533,-2.6533,-2.6533,-2.6533,-2.6533,0.0,0.0,0.0,0.0,-2.6533,-2.6533,-2.6533,-2.6533,-2.6533,-2.6533,-2.6533,-2.6533,-2.6533,0.0,0.0,0.0,0.0,0.0,0.0,0.0,0.0,0.0,0.0,-1.6039,-1.6208,-1.6181,-1.6634,-1.6899,0.0,0.0,0.0,0.0,0.0,0.0,0.0,0.0,0.0,0.0,0.0,0.0,-1.3086,-1.2823,-1.2027,-1.0793,-0.9964,0.0,0.0,0.0,0.0,0.0,0.0,0.0,0.0,0.0,0.0,0.0,0.0,0.0,0.0,-0.6284,-0.706,0.0,0.0,0.0,0.0,0.0,0.0,0.0,0.0,-1.9735,-1.9822,-1.9822,0.0,-1.9783,-1.9718,-1.9347,-1.8988,0.0,0.0,0.0,0.0,0.0,0.0,0.0,-1.8608,-1.7704,-1.6566,-1.7922,-1.951,0.0,0.0,0.0,0.0,0.0,0.0,0.0,0.0,0.0,0.0,0.0,0.0,0.0,-2.6533,-2.6533,-2.6533,-2.6533,-2.6533,-2.6533,-2.6533,-2.6533,-2.6533,-2.6533,-2.6533,-2.6533,-2.6533,-2.6533,0.0,0.0,0.0,-2.6533,-2.6533,-2.6533,-2.6533,-2.6533,-2.6533,-2.6533,-2.6533,-2.6533,-2.6533,0.0,0.0,0.0,0.0,0.0,0.0,0.0,0.0,0.0,0.0,0.0,0.0,0.0,0.0,0.0,0.0,0.0,0.0,0.0,0.0,0.0,0.0,0.0,0.0,0.0,0.0,0.0,0.0,0.0,-1.2466,0.0,0.0,0.0,0.0,0.0,0.0,0.0,0.0,0.0,0.0,-0.5292,0.0,0.0,0.0,0.0,0.0,-0.5954,-0.6671,0.0,-0.8047,-0.965,-1.1836,0.0,0.0,0.0,0.0,-1.9434,-1.9473,-1.9716,-1.982,-1.9795,-1.9795,-1.9602,-1.9384,-1.9374,0.0,0.0,0.0,0.0,0.0,0.0,0.0,0.0,0.0,-1.8347,0.0,0.0,0.0,0.0,0.0,0.0,0.0,0.0,0.0,0.0,0.0,0.0,0.0,0.0,-2.6533,-2.6533,-2.6533,-2.6533,-2.6533,-2.6533,-2.6533,-2.6533,-2.6533,-2.6533,-2.6533,-2.6533,-2.6533,-2.6533,0.0,0.0,0.0,-2.6533,-2.6533,-2.6533,-2.6533,-2.6533,-2.6533,-2.6533,-2.6533,-2.6533,-2.6533,0.0,0.0,0.0,0.0,0.0,0.0,0.0,0.0,0.0,0.0,0.0,0.0,0.0,0.0,0.0,0.0,0.0,0.0,0.0,0.0,0.0,0.0,0.0,0.0,0.0,0.0,0.0,0.0,0.0,0.0,0.0,0.0,-1.0034,0.0,0.0,0.0,0.0,0.0,0.0,0.0,-0.5156,0.0,0.0,0.0,0.0,0.0,0.0,0.0,0.0,-0.7812,-0.9412,-1.1409,-1.3767,0.0,0.0,0.0,0.0,0.0,-1.9531,-1.9688,-1.9691,-1.9666,-1.9703,-1.9676,-1.9654,0.0,0.0,0.0,0.0,0.0,0.0,-1.6899,0.0,0.0,0.0,0.0,0.0,0.0,0.0,0.0,0.0,0.0,0.0,0.0,0.0,0.0,0.0,0.0,0.0,-2.6533,-2.6533,-2.6533,-2.6533,-2.6533,-2.6533,-2.6533,-2.6533,-2.6533,-2.6533,-2.6533,-2.6533,-2.6533,-2.6533,-2.6533,0.0,0.0,-2.6533,-2.6533,-2.6533,-2.6533,-2.6533,-2.6533,-2.6533,-2.6533,-2.6533,-2.6533,0.0,0.0,0.0,0.0,0.0,0.0,0.0,0.0,0.0,0.0,0.0,0.0,0.0,0.0,0.0,0.0,0.0,0.0,0.0,0.0,0.0,0.0,0.0,0.0,0.0,0.0,0.0,0.0,0.0,0.0,-1.2182,-1.149,-1.0358,-0.877,0.0,-0.6811,-0.6284,-0.5818,-0.5554,-0.5362,-0.5156,0.0,0.0,0.0,0.0,0.0,0.0,0.0,0.0,-0.8174,-0.9768,-1.1571,-1.3795,0.0,0.0,0.0,0.0,0.0,-1.9107,-1.9148,-1.91,-1.9125,-1.9141,-1.9129,-1.912,0.0,0.0,0.0,0.0,0.0,0.0,-1.722,-1.7685,0.0,0.0,0.0,0.0,0.0,0.0,0.0,0.0,0.0,0.0,0.0,0.0,0.0,0.0,0.0,0.0,-2.6533,-2.6533,-2.6533,-2.6533,-2.6533,-2.6533,-2.6533,-2.6533,-2.6533,-2.6533,-2.6533,-2.6533,-2.6533,-2.6533,-2.6533,0.0,-2.6533,-2.6533,-2.6533,-2.6533,-2.6533,-2.6533,-2.6533,-2.6533,-2.6533,-2.6533,-2.6533,0.0,0.0,0.0,0.0,0.0,0.0,0.0,0.0,0.0,0.0,0.0,0.0,0.0,0.0,0.0,0.0,0.0,0.0,0.0,0.0,0.0,0.0,0.0,0.0,0.0,0.0,0.0,0.0,0.0,-1.3803,-1.2781,-1.1608,-1.0351,-0.9145,0.0,-0.7396,-0.6811,-0.621,-0.5749,-0.5488,0.0,0.0,0.0,0.0,0.0,0.0,0.0,0.0,0.0,0.0,-0.94,-1.1205,-1.3275,0.0,0.0,0.0,0.0,0.0,-1.8534,-1.8499,-1.853,-1.8531,-1.8768,-1.9004,-1.8988,-1.9393,0.0,0.0,0.0,0.0,0.0,0.0,0.0,0.0,0.0,0.0,0.0,0.0,0.0,0.0,0.0,0.0,0.0,0.0,0.0,0.0,0.0,0.0,0.0,0.0,-2.6533,-2.6533,-2.6533,-2.6533,-2.6533,-2.6533,-2.6533,-2.6533,-2.6533,-2.6533,-2.6533,-2.6533,-2.6533,-2.6533,0.0,-2.6533,-2.6533,-2.6533,-2.6533,-2.6533,-2.6533,-2.6533,-2.6533,-2.6533,-2.6533,-2.6533,0.0,0.0,0.0,0.0,0.0,0.0,0.0,0.0,0.0,0.0,0.0,0.0,0.0,0.0,0.0,0.0,0.0,0.0,0.0,0.0,0.0,0.0,0.0,0.0,0.0,0.0,-1.5433,-1.4767,-1.4706,-1.4172,-1.3139,-1.167,-1.0478,0.0,0.0,-0.7977,-0.7199,-0.6544,-0.6013,-0.555,0.0,0.0,0.0,0.0,0.0,0.0,0.0,0.0,0.0,0.0,0.0,0.0,0.0,0.0,0.0,-1.5746,-1.6973,-1.7902,-1.7922,-1.792,-1.7886,-1.7927,0.0,-1.9006,-1.8996,-1.9401,0.0,0.0,0.0,0.0,0.0,0.0,0.0,0.0,0.0,0.0,0.0,0.0,0.0,0.0,0.0,0.0,0.0,0.0,0.0,0.0,0.0,0.0,0.0,0.0,-2.6514,-2.6533,-2.6533,-2.6533,-2.6533,-2.6533,-2.6533,-2.6533,-2.6533,-2.6533,-2.6533,-2.6533,-2.6533,-2.6533,-2.6533,-2.6533,-2.6533,-2.6533,-2.6533,-2.6533,-2.6533,-2.6533,-2.6533,-2.6533,-2.6533,-2.6533,0.0,0.0,0.0,0.0,0.0,0.0,0.0,0.0,0.0,0.0,0.0,0.0,0.0,0.0,0.0,0.0,0.0,0.0,0.0,0.0,0.0,0.0,0.0,0.0,0.0,-1.6228,-1.6047,-1.5258,-1.5329,-1.451,-1.2826,-1.1849,-1.1052,-1.0174,0.0,-0.8366,-0.7456,-0.6679,-0.6083,-0.555,-0.4891,0.0,0.0,0.0,0.0,0.0,0.0,0.0,0.0,0.0,0.0,0.0,0.0,0.0,-1.376,-1.4827,-1.6158,-1.7381,-1.7366,-1.7368,-1.7335,-1.7357,-1.8201,0.0,-1.898,-1.9413,0.0,-1.9109,0.0,0.0,0.0,0.0,0.0,0.0,0.0,0.0,0.0,0.0,0.0,0.0,0.0,0.0,0.0,0.0,0.0,0.0,0.0,0.0,0.0,0.0,0.0,-2.6521,-2.6533,-2.6533,-2.6533,-2.6533,-2.6533,-2.6533,-2.6533,-2.6533,-2.6533,-2.6533,-2.6533,-2.6533,-2.6533,-2.6533,-2.6533,-2.6533,-2.6533,-2.6533,-2.6533,-2.6533,-2.6533,-2.6533,-2.6533,-2.6533,0.0,0.0,0.0,0.0,0.0,0.0,0.0,0.0,0.0,0.0,0.0,0.0,0.0,0.0,0.0,0.0,0.0,0.0,0.0,0.0,0.0,0.0,0.0,-1.6913,-1.6781,-1.6692,-1.6458,-1.6041,-1.5345,-1.4469,-1.339,-1.2421,0.0,0.0,0.0,-0.8877,-0.8037,-0.7003,-0.6346,-0.5881,-0.4957,-0.4489,0.0,0.0,0.0,0.0,0.0,0.0,0.0,0.0,-0.8291,-0.9564,0.0,-1.195,-1.3114,-1.3826,-1.5031,-1.6206,-1.6648,-1.6722,-1.6826,-1.7214,-1.7863,0.0,0.0,-1.9413,-1.9642,-1.9137,-1.897,0.0,0.0,0.0,0.0,0.0,0.0,0.0,0.0,0.0,0.0,0.0,0.0,0.0,0.0,0.0,0.0,0.0,0.0,0.0,0.0,0.0,-2.6491,-2.6475,-2.6488,-2.6511,-2.6489,-2.6489,-2.6536,-2.6533,-2.6533,-2.6533,-2.6533,-2.6533,-2.6533,-2.6521,-2.6511,-2.6489,-2.6477,-2.6499,-2.6488,-2.6501,-2.6493,-2.6489,-2.6515,-2.6526,-2.6533,-2.6533,0.0,0.0,0.0,0.0,0.0,0.0,0.0,0.0,0.0,0.0,0.0,0.0,0.0,0.0,0.0,0.0,0.0,0.0,0.0,0.0,0.0,0.0,0.0,-1.7265,-1.7614,-1.7219,-1.6915,-1.678,-1.5585,-1.4647,-1.4001,0.0,0.0,0.0,0.0,0.0,-0.8484,-0.7386,-0.6671,-0.6083,-0.509,-0.4558,0.0,0.0,0.0,0.0,0.0,0.0,0.0,0.0,-0.7842,0.0,0.0,0.0,0.0,-1.3184,-1.4218,-1.5274,-1.6171,-1.6518,-1.6802,0.0,0.0,0.0,-1.8874,-1.9438,-1.9625,-1.9124,-1.955,0.0,0.0,0.0,0.0,0.0,0.0,0.0,0.0,0.0,0.0,0.0,0.0,0.0,0.0,0.0,0.0,0.0,0.0,0.0,0.0,-2.4583,-2.5422,-2.5408,-2.5408,-2.5445,-2.5451,-2.6151,-2.6486,-2.6502,-2.6502,-2.6485,-2.6506,-2.6485,-2.6502,-2.6489,-2.6473,-2.6059,-2.5438,-2.5432,-2.5408,-2.5434,-2.5441,-2.5904,-2.6475,-2.6527,-2.6506,-2.6519,0.0,0.0,0.0,0.0,0.0,0.0,0.0,0.0,0.0,0.0,0.0,0.0,0.0,0.0,0.0,0.0,0.0,0.0,0.0,0.0,0.0,0.0,0.0,-1.7648,-1.8094,-1.7774,-1.749,-1.7294,-1.615,-1.5235,-1.4469,-1.3692,0.0,0.0,0.0,0.0,0.0,-0.7842,-0.6999,-0.6148,-0.516,-0.4694,-0.4558,0.0,0.0,0.0,0.0,0.0,0.0,0.0,-0.7517,-0.8619,0.0,0.0,0.0,0.0,-1.3803,-1.4805,-1.6032,-1.6846,-1.73,0.0,0.0,0.0,-1.8857,-1.9422,-1.9646,-1.9159,0.0,-2.2198,-2.2225,0.0,0.0,0.0,0.0,0.0,0.0,0.0,0.0,0.0,0.0,0.0,0.0,0.0,0.0,0.0,0.0,0.0,0.0,-2.307,-2.3091,-2.3099,-2.3111,-2.3111,-2.3111,-2.537,-2.6505,-2.644,-2.6505,-2.6466,-2.6486,-2.644,-2.644,-2.644,-2.6505,-2.5178,-2.3111,-2.3111,-2.3111,-2.3111,-2.3111,-2.4489,-2.6466,-2.6449,-2.6499,-2.6483,0.0,0.0,0.0,0.0,0.0,0.0,0.0,0.0,0.0,0.0,0.0,0.0,0.0,0.0,0.0,0.0,0.0,0.0,0.0,0.0,0.0,0.0,0.0,0.0,0.0,0.0,-1.8025,-1.7247,-1.6373,-1.5594,0.0,0.0,0.0,-1.2297,0.0,0.0,0.0,-0.8096,-0.726,-0.6613,-0.5752,-0.5289,-0.5093,0.0,0.0,0.0,0.0,0.0,0.0,0.0,0.0,0.0,0.0,0.0,0.0,-1.2621,-1.37,-1.4775,-1.6032,-1.6846,0.0,-1.7767,0.0,0.0,0.0,-1.939,0.0,0.0,0.0,-2.2355,0.0,0.0,0.0,0.0,0.0,0.0,0.0,0.0,0.0,0.0,0.0,0.0,0.0,0.0,0.0,0.0,0.0,0.0,0.0,-2.3106,-2.3083,-2.3121,-2.3121,-2.3108,-2.3091,-2.374,-2.4115,-2.4082,-2.4115,-2.4101,-2.4087,-2.4131,-2.4094,-2.4134,-2.4103,-2.3715,-2.3079,-2.3096,-2.3121,-2.3084,-2.3131,-2.3503,-2.4104,-2.4107,-2.4756,-2.5728,0.0,0.0,0.0,0.0,0.0,0.0,0.0,0.0,0.0,0.0,0.0,0.0,0.0,0.0,0.0,0.0,0.0,0.0,0.0,0.0,0.0,0.0,0.0,0.0,0.0,-1.8914,-1.8494,0.0,0.0,0.0,0.0,0.0,0.0,-1.2842,0.0,-1.0591,0.0,-0.8619,-0.7717,-0.6942,-0.6079,-0.555,-0.5226,0.0,0.0,0.0,0.0,0.0,0.0,0.0,0.0,0.0,0.0,0.0,0.0,-1.205,-1.3268,-1.4478,-1.5702,0.0,0.0,-1.7956,-1.855,-1.9102,-1.9395,0.0,0.0,0.0,0.0,0.0,0.0,0.0,0.0,0.0,0.0,0.0,0.0,0.0,0.0,0.0,0.0,0.0,0.0,0.0,0.0,0.0,0.0,0.0,0.0,-2.3078,-2.3078,-2.3078,-2.3078,-2.3105,-2.3121,-2.3121,-2.3108,-2.3105,-2.3096,-2.3108,-2.3118,-2.3118,-2.3118,-2.3093,-2.3096,-2.3121,-2.3108,-2.3092,-2.3078,-2.309,-2.3107,-2.3121,-2.3109,-2.3128,-2.3845,-2.4893,0.0,0.0,0.0,0.0,0.0,0.0,0.0,0.0,0.0,0.0,0.0,0.0,0.0,0.0,0.0,0.0,0.0,0.0,0.0,0.0,0.0,0.0,0.0,0.0,0.0,0.0,0.0,0.0,0.0,0.0,0.0,0.0,-1.4001,-1.345,0.0,-1.1101,-1.0275,-0.9274,-0.8247,-0.7199,-0.6334,-0.5609,-0.5087,-0.4758,0.0,0.0,0.0,0.0,0.0,0.0,0.0,0.0,-0.7912,-0.9,-1.0205,-1.1392,-1.2704,-1.4001,-1.5059,0.0,0.0,-1.789,-1.8507,0.0,-1.9294,-2.0876,-2.2251,-2.2194,0.0,0.0,0.0,0.0,0.0,0.0,0.0,0.0,0.0,0.0,0.0,0.0,0.0,0.0,0.0,0.0,0.0,0.0,0.0,0.0,0.0,-2.3078,-2.3078,-2.3078,-2.3078,-2.3078,-2.3078,-2.3078,-2.3078,-2.3078,-2.3078,-2.3078,-2.3078,-2.3078,-2.3078,-2.3078,-2.3078,-2.3078,-2.3078,-2.3078,-2.3078,-2.3078,-2.3078,-2.3078,-2.3115,-2.3109,-2.3542,-2.418,0.0,0.0,0.0,0.0,0.0,0.0,0.0,0.0,0.0,0.0,0.0,0.0,0.0,0.0,0.0,0.0,0.0,0.0,0.0,0.0,0.0,0.0,0.0,0.0,0.0,0.0,0.0,0.0,0.0,0.0,0.0,0.0,0.0,-1.345,0.0,-1.1593,-1.0611,-0.9588,-0.8694,-0.7722,-0.6728,-0.5939,-0.5484,-0.5087,-0.502,0.0,0.0,0.0,0.0,0.0,0.0,0.0,-0.7787,-0.8941,-1.0205,-1.1267,-1.2512,-1.3743,-1.4669,-1.572,0.0,0.0,-1.8225,-1.9559,-2.1706,-2.2584,-2.277,0.0,0.0,0.0,0.0,0.0,0.0,0.0,0.0,0.0,0.0,0.0,0.0,0.0,0.0,0.0,0.0,0.0,0.0,0.0,0.0,0.0,-2.3078,-2.3078,-2.3078,-2.3078,-2.3078,-2.3078,-2.3078,-2.3078,-2.3078,0.0,-2.3078,-2.3078,-2.3078,-2.3078,-2.3078,-2.3078,-2.3078,-2.3078,-2.3078,-2.3078,-2.3078,-2.3078,-2.3078,-2.3078,-2.309,-2.3092,-2.3503,-2.4029,0.0,0.0,0.0,0.0,0.0,0.0,0.0,0.0,0.0,0.0,0.0,0.0,0.0,0.0,0.0,0.0,0.0,0.0,0.0,0.0,0.0,0.0,0.0,0.0,0.0,0.0,0.0,0.0,0.0,0.0,0.0,0.0,0.0,-1.3821,0.0,-1.1919,-1.1052,-1.004,-0.9081,-0.8172,-0.7055,-0.6203,-0.555,-0.5219,-0.5024,-0.5024,-0.5292,0.0,0.0,0.0,0.0,0.0,0.0,0.0,-0.9831,-1.0892,-1.202,-1.3139,-1.4127,0.0,0.0,-1.7024,0.0,-1.9377,-2.2417,-2.3086,-2.2987,0.0,0.0,0.0,0.0,0.0,0.0,0.0,0.0,0.0,0.0,0.0,0.0,0.0,0.0,0.0,0.0,0.0,0.0,0.0,0.0,-2.3078,-2.3078,-2.3078,-2.3078,-2.3078,-2.3078,-2.3078,-2.3078,-2.3078,-2.3078,-2.3078,-2.3078,-2.3078,-2.3078,-2.3078,-2.3078,-2.3078,-2.3078,-2.3078,-2.3078,-2.3078,-2.3078,-2.3078,-2.3078,-2.3078,-2.3078,-2.3078,-2.3326,-2.359,0.0,0.0,0.0,0.0,0.0,0.0,0.0,0.0,0.0,0.0,0.0,0.0,0.0,0.0,0.0,0.0,0.0,0.0,0.0,0.0,0.0,0.0,0.0,0.0,0.0,0.0,0.0,0.0,0.0,0.0,0.0,0.0,0.0,-1.4249,0.0,-1.2297,-1.1553,-1.0548,-0.9524,-0.8554,-0.7447,-0.647,-0.5683,-0.5355,-0.509,-0.4964,-0.5296,-0.5428,-0.5428,-0.555,0.0,0.0,0.0,0.0,-0.9396,-1.0338,-1.1351,-1.2413,-1.3416,0.0,-1.5595,-1.6896,-1.7926,0.0,-2.2434,-2.311,0.0,0.0,0.0,0.0,0.0,0.0,0.0,0.0,0.0,0.0,0.0,0.0,0.0,0.0,0.0,0.0,0.0,0.0,0.0,0.0,0.0,-2.3078,-2.3078,-2.3078,-2.3078,-2.3078,-2.3078,-2.3078,-2.3078,-2.3078,-2.3078,-2.3078,-2.3078,-2.3078,-2.3078,-2.3078,-2.3078,-2.3078,-2.3078,-2.3078,-2.3078,-2.3078,-2.3138,-2.3138,-2.3138,-2.3198,-2.3198,-2.3198,-2.3198,-2.3138,0.0,0.0,0.0,0.0,0.0,0.0,0.0,0.0,0.0,0.0,0.0,0.0,0.0,0.0,0.0,0.0,0.0,0.0,-2.404,0.0,0.0,-2.2844,-2.2402,-2.1793,0.0,0.0,0.0,0.0,0.0,0.0,0.0,0.0,0.0,-1.4597,0.0,0.0,-1.212,-1.0926,-0.9977,-0.9081,-0.7907,-0.6933,-0.6284,-0.5888,-0.5624,-0.5359,-0.5488,-0.5488,-0.5428,-0.555,-0.5881,0.0,0.0,0.0,-0.893,-0.9703,-1.085,-1.2042,0.0,0.0,-1.6012,0.0,-1.8836,-2.1158,0.0,0.0,0.0,0.0,0.0,0.0,0.0,0.0,0.0,0.0,0.0,0.0,0.0,0.0,0.0,0.0,0.0,0.0,0.0,0.0,0.0,0.0,-2.3078,-2.3078,-2.3078,-2.3078,-2.3078,-2.3078,-2.3078,-2.3078,-2.3078,-2.3078,-2.3078,-2.3078,-2.3078,-2.3078,-2.3078,-2.3078,-2.3078,-2.3078,-2.3078,-2.3078,-2.3078,-2.3078,-2.3198,-2.3343,-2.3343,-2.345,-2.3497,-2.3497,-2.345,-2.3403,0.0,0.0,0.0,0.0,0.0,0.0,0.0,0.0,0.0,0.0,0.0,0.0,0.0,0.0,0.0,-2.5438,-2.5285,-2.4974,-2.4441,-2.3882,-2.3436,-2.3127,-2.2678,-2.2137,-2.1423,0.0,0.0,0.0,0.0,0.0,0.0,-1.7067,-1.6036,0.0,0.0,0.0,0.0,-1.1483,-1.0534,-0.9582,-0.8613,-0.7647,-0.6811,-0.6478,-0.6086,-0.5693,-0.5885,-0.5752,-0.5554,-0.555,-0.5881,-0.6276,-0.6741,0.0,0.0,0.0,-1.0351,0.0,-1.2834,-1.4332,-1.5703,0.0,-1.8327,-2.0618,-2.2665,0.0,0.0,0.0,0.0,0.0,0.0,0.0,0.0,0.0,0.0,0.0,0.0,0.0,0.0,0.0,0.0,0.0,0.0,0.0,0.0,0.0,-2.3078,-2.3078,-2.3078,-2.3078,-2.3078,-2.3078,-2.3078,-2.3078,-2.3078,-2.3078,-2.3078,-2.3078,-2.3078,-2.3078,-2.3078,-2.3078,-2.3078,-2.3078,-2.3078,-2.3138,-2.3271,-2.3271,-2.345,-2.3713,-2.3713,-2.3747,-2.3839,-2.3819,-2.37,-2.3713,0.0,0.0,0.0,0.0,0.0,0.0,0.0,0.0,0.0,0.0,0.0,0.0,0.0,0.0,0.0,0.0,-2.5642,-2.5301,-2.463,-2.4078,-2.3653,-2.3392,-2.2918,-2.2356,-2.1698,0.0,0.0,0.0,0.0,0.0,-1.8398,-1.7733,-1.6775,0.0,-1.4678,0.0,0.0,0.0,0.0,0.0,-0.925,-0.8355,-0.7526,-0.7195,-0.6736,-0.6346,-0.6412,-0.6145,-0.5815,-0.5683,-0.5885,-0.628,-0.6544,-0.726,0.0,0.0,0.0,0.0,0.0,0.0,-1.5257,-1.5988,-1.7632,-1.975,0.0,0.0,0.0,0.0,0.0,0.0,0.0,0.0,0.0,0.0,0.0,0.0,0.0,0.0,0.0,0.0,0.0,0.0,0.0,0.0,0.0,0.0,-2.3078,-2.3078,-2.3078,-2.3078,-2.3078,-2.3078,-2.3078,-2.3078,-2.3078,-2.3078,-2.3163,-2.3334,-2.3236,-2.3223,-2.3283,-2.3258,-2.3258,-2.3258,-2.3198,-2.3271,-2.3463,-2.3509,-2.3806,-2.4112,-2.4171,-2.4274,-2.4363,-2.4274,-2.4171,-2.4112,0.0,0.0,0.0,0.0,0.0,0.0,0.0,0.0,0.0,0.0,0.0,0.0,0.0,-2.6347,-2.6225,-2.6168,-2.6026,-2.5663,-2.4942,-2.4492,-2.4036,-2.3595,-2.3113,0.0,-2.1996,0.0,0.0,0.0,0.0,0.0,-1.8744,-1.8267,-1.7655,-1.6832,-1.5497,-1.4492,-1.3846,0.0,0.0,0.0,0.0,-0.9069,0.0,0.0,-0.7847,0.0,0.0,-0.6811,-0.6284,-0.602,-0.602,-0.6214,-0.635,-0.7007,-0.7862,0.0,0.0,0.0,0.0,-1.4057,0.0,-1.5766,-1.7348,0.0,0.0,0.0,0.0,0.0,0.0,0.0,0.0,0.0,0.0,0.0,0.0,0.0,0.0,0.0,0.0,0.0,0.0,0.0,0.0,0.0,0.0,0.0,-2.3078,-2.3078,-2.3078,-2.3078,-2.3078,-2.3078,-2.3078,-2.3078,-2.3078,-2.3078,-2.3419,-2.4043,-2.3722,-2.3658,-2.3765,-2.3654,-2.3569,-2.3569,-2.3463,-2.345,-2.3628,-2.3956,-2.4363,-2.4778,-2.4892,-2.5005,-2.5174,-2.5118,-2.4948,-2.4778,0.0,0.0,0.0,0.0,0.0,0.0,0.0,0.0,0.0,0.0,0.0,0.0,0.0,-2.6537,-2.6503,-2.645,-2.6151,-2.5754,-2.5362,-2.4895,-2.4451,-2.4094,-2.3508,-2.292,-2.2328,0.0,0.0,0.0,0.0,-1.9668,-1.9303,-1.8774,-1.8224,-1.7655,-1.6255,-1.5225,-1.4401,-1.3502,0.0,0.0,0.0,0.0,0.0,0.0,0.0,0.0,0.0,0.0,0.0,-0.6618,-0.6548,-0.6544,-0.6811,-0.7335,-0.8117,-0.9151,0.0,0.0,0.0,0.0,0.0,-1.5921,-1.7196,-1.867,0.0,0.0,0.0,0.0,0.0,0.0,0.0,0.0,0.0,0.0,0.0,0.0,0.0,0.0,0.0,0.0,0.0,0.0,0.0,0.0,0.0,0.0,0.0,-2.3078,-2.3078,-2.3078,-2.3078,-2.3078,-2.3078,-2.3078,-2.3078,-2.3088,-2.3624,-2.4668,-2.457,-2.4367,-2.4191,-2.4112,-2.4015,-2.3969,-2.4203,-2.4203,-2.4073,-2.4421,-2.4878,-2.5397,-2.5453,-2.5564,-2.5784,-2.5564,-2.5453,-2.5397,0.0,0.0,0.0,0.0,0.0,0.0,0.0,0.0,0.0,0.0,0.0,0.0,0.0,0.0,-2.664,-2.6606,-2.6241,-2.5954,-2.5754,-2.5323,-2.4855,-2.441,-2.3879,-2.326,-2.2649,0.0,0.0,0.0,0.0,0.0,0.0,-1.921,-1.8774,-1.8278,-1.7213,-1.6151,0.0,0.0,0.0,-1.2474,0.0,0.0,-1.0598,0.0,0.0,0.0,0.0,0.0,0.0,0.0,-0.7265,-0.7134,-0.733,0.0,0.0,0.0,0.0,0.0,-1.1996,0.0,0.0,0.0,0.0,-1.8202,0.0,0.0,0.0,0.0,0.0,0.0,0.0,0.0,0.0,0.0,0.0,0.0,0.0,0.0,0.0,0.0,0.0,0.0,0.0,0.0,0.0,0.0,0.0,0.0,-2.3078,-2.3078,-2.3078,-2.3078,-2.3078,-2.3125,-2.31,-2.3097,-2.3752,-2.501,-2.519,-2.5087,-2.4673,-2.4664,-2.4624,-2.4567,-2.4991,-2.4935,-2.4593,-2.5048,-2.555,-2.5988,-2.6111,-2.6233,-2.6394,-2.6233,-2.6111,-2.6042,0.0,0.0,0.0,0.0,0.0,0.0,0.0,0.0,0.0,0.0,0.0,0.0,0.0,0.0,0.0,-2.6606,-2.6417,-2.6225,-2.601,-2.5754,-2.5323,-2.4664,-2.4173,-2.358,-2.2934,-2.2449,0.0,0.0,0.0,0.0,0.0,0.0,-1.921,-1.8798,-1.8333,-1.7313,-1.5874,0.0,-1.3983,-1.3009,0.0,-1.1802,-1.1303,0.0,0.0,0.0,-1.0471,-0.9901,0.0,-0.849,0.0,0.0,0.0,0.0,0.0,0.0,0.0,0.0,0.0,0.0,0.0,0.0,0.0,0.0,0.0,0.0,0.0,0.0,0.0,0.0,0.0,0.0,0.0,0.0,0.0,0.0,0.0,0.0,0.0,0.0,0.0,0.0,0.0,0.0,0.0,0.0,-2.3078,-2.3078,-2.3078,-2.3078,-2.3078,-2.3125,-2.3125,-2.31,-2.3097,-2.3153,-2.3741,-2.503,-2.5638,-2.5699,-2.523,-2.5356,-2.5398,-2.5453,-2.577,-2.5619,-2.5118,-2.5839,-2.6258,-2.6563,-2.6884,-2.7003,-2.7003,-2.7003,-2.687,-2.6736,0.0,0.0,0.0,0.0,0.0,0.0,0.0,0.0,0.0,0.0,0.0,0.0,0.0,0.0,-2.6691,-2.6674,-2.6589,-2.6452,-2.6279,-2.5974,-2.5621,-2.5208,-2.4517,-2.3994,-2.3566,-2.2889,0.0,0.0,0.0,0.0,0.0,0.0,0.0,0.0,-1.8786,-1.8061,-1.7101,-1.5968,0.0,0.0,-1.3511,-1.2972,0.0,0.0,0.0,0.0,0.0,-1.0724,-1.0268,0.0,-0.9384,-0.9262,0.0,0.0,0.0,0.0,0.0,0.0,-1.156,0.0,0.0,0.0,0.0,0.0,0.0,0.0,0.0,0.0,0.0,0.0,0.0,0.0,0.0,0.0,0.0,0.0,0.0,0.0,0.0,0.0,0.0,0.0,0.0,0.0,0.0,0.0,-2.3078,-2.3078,-2.3078,-2.3078,-2.3113,-2.3122,-2.3122,-2.3132,-2.3077,-2.3554,-2.4461,-2.5641,-2.6218,-2.6188,-2.5729,-2.5974,-2.5974,-2.577,-2.619,-2.6244,-2.6136,-2.6418,-2.6736,-2.7011,-2.713,-2.7181,-2.7299,-2.7196,-2.713,-2.7063,0.0,0.0,0.0,0.0,0.0,0.0,0.0,0.0,0.0,0.0,0.0,0.0,0.0,0.0,0.0,-2.6691,-2.664,-2.6589,-2.6469,-2.6225,-2.5901,-2.5492,-2.4895,-2.4328,-2.3882,-2.326,-2.2663,0.0,0.0,0.0,0.0,0.0,0.0,0.0,0.0,0.0,0.0,0.0,0.0,0.0,-1.4666,0.0,0.0,-1.3739,-1.3542,0.0,0.0,0.0,-1.2047,-1.1402,-1.0882,0.0,0.0,0.0,0.0,0.0,0.0,0.0,0.0,0.0,0.0,0.0,0.0,0.0,-1.8185,-1.9128,0.0,0.0,0.0,0.0,0.0,0.0,0.0,0.0,0.0,0.0,0.0,0.0,0.0,0.0,0.0,0.0,0.0,-2.3078,-2.3078,-2.3078,-2.3078,-2.3078,-2.3078,-2.3078,-2.31,-2.3097,-2.3365,-2.3492,-2.3522,-2.4629,-2.5545,-2.6231,-2.6629,-2.6662,-2.6394,-2.6578,-2.6578,-2.6486,-2.6736,-2.6893,-2.6893,-2.6997,-2.7167,-2.7284,-2.7335,-2.7423,-2.7488,-2.7386,-2.7372,-2.7372,0.0,0.0,0.0,0.0,0.0,0.0,0.0,0.0,0.0,0.0,0.0,0.0,0.0,0.0,0.0,0.0,-2.6945,-2.6928,-2.6859,-2.6584,0.0,-2.5793,-2.5224,-2.4639,-2.4067,-2.3625,-2.3083,-2.2463,0.0,0.0,0.0,0.0,0.0,0.0,0.0,0.0,0.0,0.0,0.0,-1.6445,-1.5846,-1.5682,0.0,0.0,-1.5486,-1.5422,-1.5024,-1.4558,-1.404,-1.3286,-1.2482,0.0,0.0,0.0,0.0,0.0,-1.1009,0.0,0.0,0.0,0.0,0.0,0.0,0.0,-1.8121,-1.8747,-1.9378,0.0,0.0,0.0,0.0,0.0,0.0,0.0,0.0,0.0,0.0,0.0,0.0,0.0,0.0,0.0,-2.3078,-2.3078,-2.3078,-2.3078,-2.3125,-2.3125,-2.3125,-2.3113,-2.3122,-2.3106,-2.3726,-2.4125,-2.4195,-2.6007,-2.6819,-2.6748,-2.6958,-2.703,-2.7055,-2.7144,-2.7233,-2.7233,-2.735,-2.7401,-2.7401,-2.7524,-2.7539,-2.7437,-2.7524,-2.7625,-2.7625,-2.7625,-2.7625,-2.7625,-2.6691,0.0,0.0,0.0,0.0,0.0,0.0,0.0,0.0,0.0,0.0,0.0,0.0,0.0,0.0,0.0,-2.8535,-2.8535,-2.8535,-2.7674,-2.7068,-2.6829,-2.5689,-2.4895,-2.4508,-2.4094,-2.3581,-2.2949,0.0,0.0,0.0,0.0,0.0,0.0,0.0,0.0,0.0,0.0,0.0,-1.8905,-1.7637,0.0,-1.6762,-1.6553,-1.6437,-1.6256,-1.5615,-1.5292,-1.5098,-1.423,-1.3568,-1.2967,0.0,0.0,0.0,0.0,0.0,0.0,0.0,0.0,0.0,0.0,0.0,0.0,-1.7736,-1.8168,-1.8446,0.0,0.0,0.0,0.0,0.0,0.0,0.0,0.0,0.0,0.0,0.0,0.0,0.0,0.0,0.0,-2.3078,-2.3078,-2.3078,-2.3078,-2.3088,-2.311,-2.311,-2.3069,-2.3132,-2.3096,-2.3728,-2.4353,-2.4846,-2.659,-2.735,-2.7132,-2.7365,-2.738,-2.7181,-2.7299,-2.7284,-2.7233,-2.735,-2.7401,-2.7401,-2.7524,-2.7575,-2.7575,-2.7575,-2.7625,-2.7625,-2.7625,-2.7625,-2.7625,-2.6691,0.0,0.0,0.0,0.0,0.0,0.0,0.0,0.0,0.0,0.0,0.0,0.0,0.0,0.0,0.0,0.0,0.0,0.0,0.0,0.0,-2.7798,-2.7049,-2.6222,-2.5431,-2.5046,-2.4399,-2.3508,0.0,0.0,0.0,0.0,0.0,0.0,0.0,0.0,0.0,0.0,-2.0511,-2.0293,-1.8978,0.0,-1.8317,-1.8094,-1.8039,-1.7845,-1.7193,-1.6675,-1.6093,-1.546,-1.478,0.0,0.0,-1.2959,-1.2455,0.0,-1.1803,-1.1678,0.0,0.0,0.0,-1.4296,0.0,0.0,0.0,-1.79,-1.8215,0.0,0.0,0.0,0.0,0.0,0.0,0.0,0.0,0.0,0.0,0.0,0.0,0.0,0.0,0.0,-2.3078,-2.3078,-2.3078,-2.3078,-2.3075,-2.328,-2.3599,-2.3603,-2.3748,-2.4058,-2.4637,-2.5438,-2.6269,-2.718,-2.7539,-2.7425,-2.7484,-2.7461,-2.7423,-2.7488,-2.7488,-2.7423,-2.7488,-2.7488,-2.7473,-2.7575,-2.7625,-2.7625,-2.7625,-2.7625,-2.7625,-2.7625,-2.7625,-2.7625,-2.6691,0.0,0.0,0.0,0.0,0.0,0.0,0.0,0.0,0.0,0.0,0.0,0.0,0.0,0.0,0.0,0.0,0.0,0.0,0.0,0.0,0.0,-2.8367,-2.7669,-2.6567,-2.6192,-2.5534,-2.4387,0.0,0.0,0.0,0.0,0.0,0.0,0.0,0.0,0.0,0.0,0.0,-2.1308,0.0,-1.9949,-1.9868,-1.9704,-1.9639,-1.9507,-1.89,-1.8037,-1.7097,-1.6664,-1.5895,-1.4996,-1.4299,-1.366,0.0,0.0,0.0,0.0,0.0,0.0,0.0,0.0,0.0,-1.6369,0.0,0.0,0.0,0.0,0.0,0.0,0.0,0.0,0.0,0.0,0.0,0.0,0.0,0.0,0.0,0.0,0.0,0.0,0.0,-2.3078,-2.3078,-2.3078,-2.3122,-2.3378,-2.4077,-2.4125,-2.4379,-2.4949,-2.5601,-2.6427,-2.7613,-2.7612,-2.7602,-2.7593,-2.7467,-2.7488,-2.7625,-2.7625,-2.7625,-2.7625,-2.7625,-2.7625,-2.7625,-2.7625,-2.7625,-2.7625,-2.7625,-2.7625,-2.7625,-2.7625,-2.7625,-2.7625,-2.6691,-2.7232,0.0,0.0,0.0,0.0,0.0,0.0,0.0,0.0,0.0,0.0,0.0,0.0,0.0,0.0,0.0,0.0,-3.1524,0.0,0.0,0.0,-2.8865,-2.8174,-2.7704,-2.7502,-2.6999,-2.6202,0.0,0.0,0.0,0.0,0.0,0.0,-2.33,0.0,0.0,0.0,-2.2794,0.0,-2.2176,-2.1667,0.0,-2.0764,-2.07,-2.0635,-1.977,-1.8834,-1.7978,0.0,-1.6612,-1.5842,0.0,-1.4442,-1.3924,0.0,0.0,0.0,0.0,0.0,0.0,0.0,-1.542,0.0,0.0,0.0,0.0,-1.8085,0.0,0.0,0.0,0.0,0.0,0.0,0.0,0.0,0.0,0.0,0.0,0.0,0.0,0.0,0.0,-2.3078,-2.3078,-2.3078,-2.3085,-2.3374,-2.4072,-2.4118,-2.4372,-2.4975,-2.5605,-2.6472,-2.7592,-2.7587,-2.7616,-2.759,-2.7575,-2.7575,-2.7625,-2.7625,-2.7625,-2.7625,-2.7625,-2.7625,-2.7625,-2.7625,-2.7625,-2.7625,-2.7625,-2.7625,-2.7625,-2.7625,-2.7625,-2.7625,-2.7351,-2.7604,0.0,0.0,0.0,0.0,0.0,0.0,0.0,0.0,0.0,0.0,0.0,0.0,0.0,0.0,0.0,-3.2249,0.0,0.0,0.0,0.0,0.0,0.0,0.0,-2.8673,-2.8093,0.0,-2.6642,0.0,0.0,0.0,0.0,0.0,-2.4351,0.0,-2.4529,0.0,-2.3895,0.0,0.0,0.0,0.0,-2.1463,-2.1083,-2.0828,-2.0495,-1.9704,-1.871,0.0,-1.7157,0.0,0.0,0.0,0.0,0.0,0.0,0.0,0.0,0.0,0.0,0.0,0.0,0.0,-1.707,0.0,-1.7978,0.0,0.0,0.0,0.0,0.0,0.0,0.0,-2.3106,0.0,0.0,0.0,0.0,0.0,0.0,0.0,0.0,0.0,0.0,0.0,-2.311,-2.3412,-2.4064,-2.408,-2.4363,-2.5,-2.5564,-2.6295,-2.7137,-2.715,-2.724,-2.7488,-2.7488,-2.7524,-2.7625,-2.7625,-2.7625,-2.7625,-2.7625,-2.7625,-2.7625,-2.7625,-2.7625,-2.7625,-2.7625,-2.7625,-2.7625,-2.7625,-2.7625,-2.7625,-2.8275,0.0,0.0,0.0,0.0,0.0,0.0,0.0,0.0,0.0,0.0,0.0,-3.2808,-3.2844,0.0,0.0,-3.2879,-3.2606,0.0,0.0,-3.1746,0.0,0.0,0.0,0.0,0.0,0.0,0.0,0.0,0.0,0.0,0.0,0.0,0.0,0.0,-2.5511,-2.5632,0.0,0.0,-2.435,-2.3956,-2.3497,-2.2848,-2.2087,-2.1588,-2.1285,-2.121,-2.056,-1.9639,-1.8834,-1.7891,0.0,-1.6376,0.0,0.0,0.0,0.0,0.0,-1.4266,0.0,0.0,0.0,0.0,0.0,0.0,0.0,0.0,0.0,0.0,0.0,0.0,0.0,0.0,0.0,0.0,0.0,0.0,0.0,0.0,0.0,0.0,0.0,0.0,0.0,0.0,-2.3078,-2.3075,-2.3305,-2.3808,-2.3832,-2.4131,-2.4713,-2.5353,-2.5924,-2.6551,-2.6664,-2.6922,-2.735,-2.7401,-2.7488,-2.7625,-2.7625,-2.7625,-2.7625,-2.7625,-2.7625,-2.7625,-2.7625,-2.7625,-2.7625,-2.7625,-2.7625,-2.7625,-2.7625,-2.7625,-2.7625,-2.9515,-2.9854,0.0,0.0,0.0,0.0,0.0,0.0,0.0,0.0,0.0,0.0,0.0,0.0,0.0,0.0,0.0,-3.282,-3.2588,0.0,-3.1929,0.0,0.0,-3.1179,0.0,0.0,0.0,0.0,0.0,0.0,0.0,0.0,0.0,0.0,0.0,-2.6683,-2.6283,-2.6096,-2.5646,-2.4951,-2.4624,-2.3943,-2.3078,0.0,-2.2543,-2.2285,-2.1951,0.0,0.0,-1.9835,-1.8946,0.0,0.0,0.0,0.0,0.0,0.0,0.0,0.0,0.0,0.0,-1.5762,0.0,0.0,0.0,0.0,-1.8008,0.0,0.0,0.0,0.0,0.0,0.0,0.0,0.0,0.0,0.0,0.0,0.0,0.0,0.0,0.0,0.0,0.0,0.0,-2.3078,-2.3075,-2.3097,-2.311,-2.3162,-2.3431,-2.4084,-2.4681,-2.5342,-2.5893,-2.6312,-2.6736,-2.7233,-2.735,-2.7488,-2.7625,-2.7625,-2.7625,-2.7625,-2.7625,-2.7625,-2.7625,-2.7625,-2.7625,-2.7625,-2.7625,-2.7625,-2.7625,-2.7625,-2.7625,-2.7625,0.0,0.0,0.0,0.0,0.0,0.0,0.0,-3.2683,0.0,0.0,0.0,0.0,0.0,-3.4921,-3.5044,0.0,0.0,-3.4699,-3.4452,-3.4006,0.0,0.0,0.0,-3.1822,0.0,0.0,0.0,0.0,0.0,0.0,0.0,0.0,0.0,0.0,0.0,-2.7093,0.0,0.0,0.0,0.0,0.0,-2.4363,-2.3839,0.0,0.0,-2.2555,-2.2482,-2.1963,0.0,-2.0579,-1.9738,-1.889,-1.8422,-1.7745,-1.6991,-1.695,-1.6324,0.0,0.0,0.0,-1.5762,-1.6403,0.0,0.0,0.0,0.0,0.0,0.0,0.0,0.0,0.0,0.0,0.0,0.0,0.0,0.0,0.0,0.0,0.0,0.0,0.0,0.0,0.0,0.0,0.0,-2.3078,-2.3113,-2.31,-2.31,-2.3072,-2.3187,-2.3431,-2.4284,-2.5005,-2.5619,-2.6042,-2.6539,-2.7041,-2.7181,-2.7372,-2.7625,-2.7625,-2.7625,-2.7625,-2.7625,-2.7625,-2.7625,-2.7625,-2.7625,-2.7625,-2.7625,-2.7625,-2.7625,-2.7625,-2.7625,-2.7625,-3.0673,0.0,0.0,0.0,0.0,0.0,0.0,0.0,0.0,0.0,-3.5,0.0,-3.5864,0.0,-3.6114,0.0,-3.5978,-3.5702,-3.5457,-3.4978,0.0,-3.3601,-3.3162,0.0,0.0,0.0,0.0,0.0,0.0,-2.9837,0.0,0.0,0.0,0.0,0.0,-2.7452,-2.7196,0.0,-2.675,0.0,0.0,-2.4935,0.0,0.0,-2.3318,-2.2921,0.0,-2.2408,-2.1951,-2.1428,-2.0719,-2.002,-1.9628,-1.889,-1.8085,-1.8046,-1.7364,-1.6603,-1.6751,-1.6742,0.0,-1.7364,-1.7571,0.0,-1.786,0.0,0.0,0.0,0.0,0.0,0.0,0.0,0.0,0.0,0.0,0.0,0.0,-2.3115,0.0,0.0,0.0,0.0,0.0,0.0,-2.3078,-2.3078,-2.3078,-2.3078,0.0,0.0,-2.3072,-2.3111,-2.4176,-2.5,-2.5633,-2.5976,-2.6447,-2.7003,-2.7196,-2.7386,-2.7625,-2.7625,-2.7625,-2.7625,-2.7625,-2.7625,-2.7625,-2.7625,-2.7625,-2.7625,-2.7625,-2.7625,-2.7625,-2.7625,-2.7625,-2.7625,0.0,0.0,0.0,0.0,-3.2883,0.0,0.0,0.0,-3.5108,0.0,-3.64,-3.7319,-3.7577,-3.723,-3.7043,-3.7144,-3.639,-3.586,-3.563,-3.519,0.0,0.0,-3.4014,-3.3373,-3.2576,0.0,0.0,0.0,0.0,0.0,0.0,0.0,0.0,0.0,-2.8186,0.0,-2.7625,-2.7488,-2.7248,-2.6951,-2.6218,-2.555,-2.5005,-2.4523,-2.3956,-2.339,-2.303,-2.286,-2.2678,-2.2309,-2.1851,-2.14,-2.1019,-2.0237,-1.9309,-1.9198,-1.8452,-1.7774,-1.7774,-1.7901,-1.8162,-1.8499,0.0,0.0,0.0,0.0,-1.8294,0.0,0.0,0.0,0.0,0.0,0.0,0.0,0.0,0.0,0.0,0.0,0.0,0.0,0.0,0.0,0.0,-2.3078,-2.3078,-2.3078,-2.3078,-2.3078,0.0,0.0,-2.3075,-2.3115,-2.4308,-2.5317,-2.5924,-2.6155,-2.6525,-2.7003,-2.7248,-2.7488,-2.7625,-2.7625,-2.7625,-2.7625,-2.7625,-2.7625,-2.7625,-2.7625,-2.7625,-2.7625,-2.7625,-2.7625,-2.7625,-2.7625,-2.7625,-2.7625,-3.1608,-3.2789,-3.3792,0.0,-3.4083,-3.4218,0.0,0.0,0.0,0.0,-3.6773,-3.7356,-3.7793,-3.7938,-3.8041,-3.8059,-3.7831,0.0,0.0,0.0,0.0,-3.5392,-3.4863,-3.4216,-3.3407,-3.3185,0.0,-3.1782,0.0,0.0,-3.0166,0.0,0.0,0.0,0.0,0.0,-2.7905,-2.774,-2.7488,-2.7078,-2.6578,-2.6096,0.0,0.0,-2.4536,-2.4015,-2.345,-2.309,-2.286,-2.2726,-2.2273,-2.1753,-2.1502,-2.0794,-2.0031,-1.9715,-1.9187,-1.8731,-1.8731,-1.8854,-1.9034,-1.9375,-1.9391,-1.935,0.0,0.0,0.0,0.0,0.0,0.0,0.0,0.0,0.0,0.0,0.0,0.0,0.0,0.0,0.0,-2.3078,0.0,0.0,-2.3078,-2.3078,-2.3078,-2.3078,-2.3078,-2.3078,-2.3078,0.0,0.0,-2.3115,-2.4308,-2.5358,-2.6176,-2.6252,-2.6525,-2.7003,-2.7248,-2.7488,-2.7625,-2.7625,-2.7625,-2.7625,-2.7625,-2.7625,-2.7625,-2.7625,-2.7625,-2.7625,-2.7625,-2.7625,-2.7625,-2.7625,-2.7625,-2.7625,-3.2462,0.0,0.0,-3.4884,0.0,0.0,-3.4979,0.0,0.0,-3.6527,-3.6995,0.0,-3.7933,-3.8252,-3.8446,-3.8446,-3.8354,0.0,-3.7846,0.0,0.0,-3.6098,-3.5572,-3.4917,-3.4133,-3.3965,0.0,-3.2681,0.0,0.0,-3.1032,0.0,0.0,0.0,0.0,-2.8574,0.0,-2.794,-2.759,-2.7284,-2.6959,0.0,0.0,-2.5605,-2.5048,-2.4536,-2.4073,-2.3556,-2.309,-2.303,-2.2714,-2.2334,-2.2149,-2.1565,-2.0869,-2.0549,-2.0172,-1.9791,-1.9791,-1.9901,-2.015,-2.042,-2.0534,-2.0583,-2.0744,-2.0917,-2.1026,0.0,0.0,0.0,0.0,0.0,0.0,0.0,0.0,0.0,0.0,0.0,0.0,0.0,-2.3078,0.0,-2.3078,-2.3078,-2.3078,-2.3078,-2.3078,-2.3078,0.0,0.0,0.0,-2.3077,-2.4358,-2.5404,-2.6287,-2.64,-2.6683,-2.7093,-2.7335,-2.7539,-2.7625,-2.7625,-2.7625,-2.7625,-2.7625,-2.7625,-2.7625,-2.7625,-2.7625,-2.7625,-2.7625,-2.7625,-2.7625,-2.7625,-2.7625,-2.7625,-3.3376,0.0,0.0,0.0,0.0,0.0,0.0,-3.5949,0.0,-3.6533,0.0,-3.7614,-3.8068,-3.8332,-3.8478,-3.8478,0.0,-3.8122,-3.7703,-3.7188,-3.6776,-3.6502,-3.6079,-3.5511,-3.4848,-3.4684,-3.4286,0.0,0.0,0.0,0.0,0.0,0.0,0.0,0.0,0.0,0.0,-2.8024,-2.769,-2.7452,-2.7284,-2.7011,-2.6563,-2.615,-2.5605,-2.5118,-2.4694,-2.4131,-2.3463,-2.3258,-2.3078,-2.2909,-2.28,-2.2273,-2.169,-2.1514,-2.1146,-2.0764,-2.0764,-2.1008,-2.1262,-2.1451,-2.1753,-2.1916,-2.183,-2.2099,-2.2332,-2.233,-2.2294,-2.2308,0.0,0.0,0.0,0.0,0.0,0.0,0.0,0.0,0.0,0.0,0.0,0.0,0.0,0.0,-2.3078,-2.3078,-2.3078,-2.3078,0.0,0.0,0.0,-2.3255,-2.4492,-2.5478,-2.6313,0.0,-2.6893,-2.7181,-2.7473,-2.7625,-2.7625,-2.7625,-2.7625,-2.7625,-2.7625,-2.7625,-2.7625,-2.7625,-2.7625,-2.7625,-2.7625,-2.7625,-2.7625,-2.7625,-2.7625,-2.7625,0.0,0.0,0.0,0.0,0.0,-3.5622,-3.5622,-3.5844,-3.6191,-3.6533,-3.6995,-3.7469,-3.8034,-3.8285,-3.8415,-3.8415,-3.8252,0.0,0.0,0.0,0.0,-3.6502,-3.6148,-3.5837,-3.5613,-3.548,-3.5064,0.0,0.0,0.0,0.0,0.0,0.0,0.0,0.0,0.0,-2.8463,-2.822,0.0,-2.774,-2.7575,-2.7372,-2.7011,-2.6563,-2.6204,-2.5839,-2.5272,-2.4549,-2.3832,-2.3772,-2.345,-2.3078,-2.3017,-2.2653,-2.2223,-2.2111,-2.1851,-2.169,-2.169,-2.1839,-2.2049,-2.2173,-2.2432,-2.2629,-2.2543,-2.2739,-2.2948,-2.296,-2.2948,-2.2923,-2.2935,0.0,0.0,0.0,0.0,0.0,0.0,0.0,0.0,0.0,0.0,-2.3078,0.0,0.0,-2.3078,-2.3078,-2.3078,0.0,0.0,0.0,0.0,0.0,-2.5091,0.0,0.0,0.0,-2.7041,-2.7181,-2.7473,-2.7625,-2.7625,-2.7625,-2.7625,-2.7625,-2.7625,-2.7625,-2.7625,-2.7625,-2.7625,-2.7625,-2.7625,-2.7625,-2.7625,-2.7625,-2.7625,-2.7625,0.0,0.0,0.0,0.0,0.0,0.0,0.0,-3.5844,0.0,-3.655,-3.6956,-3.7432,-3.8034,-3.8649,-3.8871,-3.8483,-3.8667,-3.8486,-3.7703,-3.7206,-3.6776,-3.6402,-3.6062,0.0,-3.5711,-3.5622,-3.5453,-3.5081,0.0,0.0,0.0,0.0,0.0,0.0,0.0,-2.9881,0.0,0.0,0.0,-2.8103,-2.789,-2.764,-2.7372,-2.6997,-2.6683,-2.6365,-2.5974,-2.5495,-2.4835,-2.4319,-2.3969,-2.3708,-2.3662,-2.3305,-2.3017,-2.2969,-2.2714,-2.2396,-2.2396,-2.2469,-2.2604,-2.2665,-2.286,-2.3128,-2.3128,-2.3125,-2.3075,-2.3075,-2.3097,-2.3217,-2.3569,-2.3607,0.0,0.0,0.0,0.0,0.0,0.0,0.0,0.0,0.0,0.0,0.0,0.0,0.0,0.0,0.0,0.0,0.0,0.0,0.0,0.0,0.0,0.0,0.0,0.0,0.0,-2.7284,-2.7539,-2.7625,-2.7625,-2.7625,-2.7625,-2.7625,-2.7625,-2.7625,-2.7625,-2.7625,-2.7625,-2.7625,-2.7625,-2.7625,-2.7625,-2.7625,-2.7625,-2.767,0.0,-3.5622,0.0,0.0,-3.5757,0.0,-3.5876,-3.6174,-3.6517,-3.6793,-3.7163,-3.7733,-3.8418,-3.9291,-3.9553,-3.898,-3.9264,-3.9061,-3.8026,-3.7352,-3.6799,-3.6343,-3.6062,-3.5817,-3.5622,-3.5622,-3.5622,0.0,0.0,0.0,0.0,0.0,0.0,0.0,0.0,0.0,0.0,0.0,-2.9108,-2.8693,-2.8296,-2.7989,-2.7725,-2.7473,-2.7269,-2.6982,-2.6826,-2.6563,-2.6136,-2.5231,-2.4681,-2.4408,-2.4305,-2.4073,-2.3793,-2.3734,-2.3497,-2.3198,-2.3138,-2.315,-2.315,-2.315,-2.333,-2.3569,-2.3667,-2.3428,-2.3262,-2.3456,-2.3496,-2.3683,-2.4221,-2.4313,0.0,0.0,0.0,0.0,0.0,0.0,0.0,0.0,0.0,0.0,-2.3078,0.0,0.0,0.0,0.0,0.0,0.0,0.0,0.0,0.0,0.0,-2.6341,-2.72,0.0,-2.7159,-2.7401,-2.7539,-2.7625,-2.7625,-2.7625,-2.7625,-2.7625,-2.7625,-2.7625,-2.7625,-2.7625,-2.7625,-2.7625,-2.7625,-2.7625,-2.7625,-2.7625,-2.7715,-2.7889,0.0,0.0,0.0,0.0,0.0,0.0,-3.6671,-3.7322,-3.7752,-3.7517,-3.7907,-3.861,-3.9689,-4.0167,-4.0365,-4.0328,-3.9835,-3.9298,-3.8833,-3.7897,-3.7091,-3.6502,-3.6293,-3.5993,-3.5622,-3.5622,-3.5622,0.0,0.0,0.0,0.0,0.0,0.0,0.0,0.0,0.0,0.0,-3.0981,-3.0337,-2.9751,-2.8934,-2.851,-2.8299,-2.8137,-2.8088,-2.8024,-2.7695,-2.758,-2.7479,-2.7004,-2.6,-2.4948,-2.4948,-2.4708,-2.4408,-2.4292,-2.4176,-2.4118,-2.4002,-2.4015,-2.4015,-2.4015,-2.4015,-2.4073,-2.4274,-2.3916,-2.378,-2.4629,-2.4818,-2.4808,-2.4902,-2.4946,-2.4734,0.0,0.0,0.0,0.0,0.0,-2.3078,-2.3078,0.0,0.0,0.0,-2.3078,0.0,0.0,-2.3078,0.0,0.0,0.0,0.0,-2.4107,0.0,-2.6337,-2.72,-2.7254,-2.7328,-2.7401,-2.7539,-2.7625,-2.7625,-2.7625,-2.7625,-2.7625,-2.7625,-2.7625,-2.7625,-2.7625,-2.7625,-2.7625,-2.7625,-2.7625,-2.7625,-2.7625,-2.7964,-2.8592,0.0,0.0,0.0,0.0,0.0,0.0,0.0,-3.7763,-3.8172,-3.8603,-3.8669,-3.896,-3.9743,-4.0423,-4.0703,-4.0384,-4.0601,-4.0257,-3.9049,-3.8415,-3.7683,-3.6731,-3.6377,-3.6036,-3.5728,-3.5622,-3.5622,0.0,0.0,0.0,0.0,0.0,0.0,0.0,0.0,-3.329,-3.259,-3.2085,-3.1635,-3.126,-3.0593,-3.0242,-3.0047,-2.9881,-2.9847,-2.9735,-2.9154,-2.8885,-2.8774,-2.8149,-2.7195,-2.6229,-2.5974,-2.5687,-2.5453,-2.5314,-2.4991,-2.4708,-2.465,-2.4465,-2.435,-2.435,-2.4465,-2.4664,-2.4721,-2.4867,-2.501,-2.4983,-2.5273,-2.5659,-2.598,-2.5758,-2.5341,0.0,0.0,0.0,0.0,0.0,0.0,0.0,0.0,-2.3078,0.0,-2.31,-2.3075,0.0,0.0,0.0,0.0,0.0,0.0,-2.463,0.0,-2.6332,-2.7185,-2.7262,-2.7416,-2.764,-2.769,-2.7775,-2.7974,-2.789,-2.779,-2.774,-2.774,-2.7675,-2.7625,-2.7625,-2.7625,-2.7625,-2.7625,-2.7625,-2.7625,-2.7625,-2.8008,-2.8697,-3.591,0.0,-3.6857,0.0,-3.7736,-3.8227,-3.8227,-3.8475,-3.8877,-3.9583,-3.9456,-3.9502,-4.0004,-4.0731,-4.1042,-4.0706,-4.113,-4.0791,-3.9278,-3.8806,-3.8019,-3.6811,-3.6444,0.0,-3.5817,-3.5728,-3.5622,-3.5622,-3.5622,0.0,0.0,0.0,0.0,0.0,-3.4728,-3.4337,-3.3656,-3.3233,-3.2908,-3.2613,-3.2012,-3.1678,-3.1534,-3.1421,-3.1339,-3.1275,-3.0767,-3.0354,-2.999,-2.9391,-2.8635,-2.7784,-2.7108,-2.6692,-2.6428,-2.6297,-2.5879,-2.5495,-2.5439,-2.5258,-2.5007,-2.5007,-2.5203,-2.5384,-2.5439,-2.577,-2.6014,-2.5833,-2.609,-2.6515,-2.6967,-2.6583,-2.5951,-2.5353,0.0,0.0,0.0,0.0,0.0,0.0,-2.3132,-2.3132,-2.3132,-2.3081,-2.32,0.0,0.0,0.0,0.0,0.0,0.0,0.0,0.0,0.0,0.0,-2.7321,-2.7548,-2.779,-2.784,-2.8005,-2.825,-2.8152,-2.8005,-2.7855,-2.784,-2.774,-2.7625,-2.7625,-2.7625,-2.7625,-2.7625,-2.7625,-2.7625,-2.7625,-2.8128,-2.8951,-3.662,-3.6772,-3.7009,-3.777,-3.8497,-3.8988,-3.8988,-3.9597,-4.0104,-4.0288,-4.0271,-4.0451,-4.0943,-4.1346,-4.1587,-4.1569,-4.1233,-4.0597,-3.9651,-3.8951,-3.7998,0.0,0.0,-3.6293,-3.5817,-3.5817,-3.5728,-3.5622,0.0,0.0,-3.5622,0.0,-3.556,-3.556,-3.556,-3.5532,-3.5407,-3.4533,-3.4046,-3.3719,-3.2888,-3.2517,-3.238,-3.238,-3.238,-3.238,-3.2364,-3.1905,-3.1237,-3.0965,-3.036,-2.9556,-2.8288,-2.76,-2.7246,-2.7108,-2.6878,-2.6669,-2.651,-2.6404,-2.6283,-2.6283,-2.6283,-2.6336,-2.6457,-2.651,-2.6703,-2.7407,-2.7594,-2.7594,-2.7568,-2.7137,-2.6576,-2.598,0.0,0.0,0.0,0.0,0.0,-2.3109,-2.3109,-2.3109,-2.3109,-2.3109,0.0,0.0,0.0,0.0,0.0,0.0,0.0,-2.5893,-2.6451,0.0,-2.7181,-2.7476,-2.7664,-2.779,-2.7905,-2.8168,-2.8411,-2.8411,-2.8266,-2.8005,-2.7855,-2.774,-2.7625,-2.7625,-2.7625,-2.7625,-2.7625,-2.7625,-2.7625,-2.7625,-2.8412,-2.9564,-3.6721,-3.7601,-3.8362,-3.8599,-3.9242,-3.9732,-3.9732,-3.9935,-4.0138,-4.0188,-4.0188,-4.0221,-4.037,-4.0776,-4.1059,0.0,-4.1235,-4.0954,0.0,-3.9587,-3.881,-3.7679,-3.6951,-3.6402,-3.6079,-3.5993,-3.5844,-3.5728,0.0,0.0,0.0,-3.5622,-3.5622,-3.5622,-3.5622,-3.5577,-3.5532,-3.5222,-3.5031,-3.4906,-3.4489,-3.4296,-3.425,-3.4157,-3.4093,-3.4044,-3.3532,-3.3201,-3.2838,-3.1726,-3.1178,-3.0784,-2.9819,-2.9027,-2.8352,-2.7997,-2.77,-2.7464,-2.7378,-2.721,-2.7108,-2.7108,-2.721,-2.721,-2.721,-2.71,-2.71,-2.7518,-2.7578,-2.7571,-2.7587,-2.7189,-2.6721,-2.6565,-2.5865,0.0,0.0,0.0,0.0,0.0,-2.4421,-2.4421,0.0,-2.4368,0.0,0.0,0.0,0.0,0.0,0.0,0.0,0.0,-2.7021,0.0,-2.7476,-2.7556,-2.778,-2.8088,-2.8201,-2.8525,-2.9029,-2.9152,-2.9013,-2.859,-2.8398,-2.8155,-2.7974,-2.784,-2.774,-2.774,-2.7625,-2.7625,-2.7625,-2.7625,-2.8427,-2.9579,-3.7499,-3.8362,-3.9089,-3.9343,-3.9766,-4.007,-4.007,-4.007,-4.007,-4.007,-4.007,-4.007,-4.007,-4.0337,0.0,-4.071,-4.0977,-4.085,-4.0175,-3.9947,-3.9234,-3.8041,-3.7411,-3.6762,-3.6225,0.0,0.0,-3.5817,-3.5888,-3.5905,-3.5817,-3.5667,-3.5622,-3.5622,-3.5622,-3.5622,-3.5577,-3.5549,-3.552,-3.552,-3.5367,-3.5274,-3.5274,-3.5211,-3.5165,-3.5098,-3.4647,-3.4297,-3.3879,-3.2634,-3.2024,-3.1573,-3.0725,-3.0054,-2.9483,-2.8996,-2.8622,-2.8336,-2.8255,-2.811,-2.7947,-2.7947,-2.8012,-2.8061,-2.7913,-2.7694,-2.7504,-2.7564,-2.761,-2.7585,-2.7584,-2.7342,-2.7122,-2.7103,-2.664,-2.6136,-2.5702,0.0,0.0,0.0,0.0,0.0,0.0,-2.5313,-2.5369,0.0,0.0,0.0,0.0,0.0,0.0,-2.7074,-2.7454,0.0,-2.7619,-2.778,-2.8,-2.8255,-2.8732,-2.9106,-2.9499,-2.9677,-2.9483,-2.9059,-2.8764,-2.8494,-2.8235,-2.8005,-2.784,-2.779,-2.7625,-2.7625,-2.7655,-2.7859,-2.8652,-2.9609,-3.8717,-3.9039,0.0,0.0,-4.007,0.0,-4.007,-4.007,-4.007,-4.007,-4.007,-4.007,-4.007,-4.007,-4.0138,-4.0305,0.0,0.0,0.0,-3.9978,-3.9434,-3.7955,-3.7815,-3.7307,-3.6225,-3.6225,-3.6079,-3.5861,-3.5861,-3.5861,-3.5817,-3.5711,-3.5622,-3.5622,-3.5622,-3.5622,-3.5622,-3.5622,-3.5622,-3.5622,-3.5622,-3.5622,-3.5622,-3.5622,-3.5622,-3.5622,-3.5622,-3.5131,-3.4387,-3.3609,-3.2807,-3.1974,-3.1048,-3.0733,-3.0609,-3.0027,-2.9528,-2.9166,-2.9166,-2.8966,-2.8779,-2.8779,-2.8779,-2.8732,-2.8606,-2.8309,-2.7963,-2.7722,-2.7689,-2.7667,-2.768,-2.7625,-2.7584,-2.7595,-2.7187,-2.6875,-2.6842,0.0,0.0,0.0,0.0,0.0,0.0,-2.5997,-2.5986,0.0,0.0,0.0,0.0,0.0,-2.7045,-2.7587,-2.7593,-2.7645,-2.765,-2.8134,-2.8396,-2.8387,-2.939,-2.9853,-2.9837,-2.9984,-2.981,-2.9396,-2.909,-2.8795,-2.8444,-2.8152,-2.7955,-2.779,-2.7675,-2.7625,-2.77,-2.8353,-2.9011,-2.9669,0.0,0.0,-3.9868,-4.0054,-4.007,-4.007,-4.007,-4.007,-4.007,-4.007,-4.007,-4.007,-4.007,-4.007,-4.0121,-4.0121,-4.0288,-4.0417,-4.0439,-4.0181,-3.9643,-3.8831,-3.8238,-3.7474,-3.6437,-3.6419,-3.6461,-3.6478,-3.6377,-3.6276,-3.6174,-3.5975,-3.5975,-3.6036,-3.5932,-3.5975,-3.6036,-3.5861,-3.5773,-3.5711,-3.5622,-3.5622,-3.5622,-3.5622,-3.5622,-3.5622,-3.5728,-3.5297,-3.455,-3.3828,-3.3104,-3.2315,-3.1433,-3.1117,-3.0975,-3.0351,-3.0081,-2.9995,-2.9941,-2.9913,-2.9853,-2.9853,-2.9677,-2.9528,-2.9483,-2.9039,-2.8576,-2.8529,-2.8341,-2.8194,-2.822,-2.7898,-2.762,-2.7584,-2.7476,-2.7432,-2.7424,-2.7275,0.0,0.0,-2.7214,-2.7214,-2.7214,-2.7176,-2.705,0.0,0.0,0.0,0.0,-2.6776,-2.7056,-2.7587,-2.7619,-2.7775,-2.8221,-2.8327,-2.8637,-2.9055,-2.9951,-3.0342,-3.0342,-3.0551,-3.051,-3.0172,-2.9766,-2.9454,-2.9213,-2.8573,-2.825,-2.8088,-2.7725,-2.7625,-2.77,-2.8353,-2.9011,-2.9669,-3.9428,-3.9817,-4.007,-4.007,-4.007,-4.007,-4.007,-4.007,-4.007,-4.007,-4.007,-4.007,-4.007,-4.007,-4.007,-4.007,-4.0188,-4.0337,-4.0583,-4.0474,-4.0006,-3.9068,-3.8674,-3.7899,-3.662,-3.6626,-3.6708,-3.6846,-3.665,-3.6509,-3.6409,-3.6301,-3.6293,-3.6335,-3.6301,-3.6318,-3.6335,-3.6122,-3.6036,-3.5949,-3.5844,-3.58,-3.58,-3.5844,-3.5844,-3.5905,-3.5975,-3.5583,-3.4888,-3.418,-3.3407,-3.2629,-3.1781,-3.1445,-3.1269,-3.0885,-3.0642,-3.0452,-3.0443,-3.0401,-3.0359,-3.0359,-3.0215,-3.0097,-2.9962,-2.968,-2.9335,-2.9,-2.9009,-2.8998,-2.8763,-2.8304,-2.7905,-2.7659,-2.7615,-2.7584,-2.7571,-2.7616,0.0,-2.7573,-2.7587,-2.7587,-2.7587,-2.758,-2.7484,-2.7203,-2.7189,0.0,-2.7189,-2.7174,-2.7291,-2.7593,-2.7585,-2.7838,-2.8396,-2.903,-2.9473,-2.9767,-3.0393,-3.0692,-3.0692,-3.0871,-3.0773,-3.0468,-3.013,-2.9782,-2.935,-2.87,-2.8332,-2.8088,-2.7725,-2.7625,-2.7745,-2.8682,-2.928,-2.9714,-3.9952,-4.007,-4.007,-4.007,-4.007,-4.007,-4.007,-4.007,-4.007,-4.007,-4.007,-4.007,-4.007,-4.007,-4.0138,-4.0138,-4.0138,-4.0288,-4.0485,-4.0776,-4.032,-3.8955,-3.9058,-3.836,-3.676,-3.6829,-3.6948,-3.7087,-3.6834,-3.6736,-3.6736,-3.6632,-3.6609,-3.6632,-3.6673,-3.6673,-3.6609,-3.6468,-3.6343,-3.6251,-3.6148,-3.6105,-3.6105,-3.6208,-3.6251,-3.6276,-3.6205,-3.5769,-3.5087,-3.4363,-3.3581,-3.2815,-3.21,-3.1726,-3.1538,-3.1389,-3.1117,-3.0814,-3.0773,-3.0692,-3.0609,-3.0609,-3.0609,-3.0535,-3.0294,-3.0269,-3.011,-2.9464,-2.9669,-2.981,-2.9339,-2.8811,-2.8355,-2.7801,-2.7728,-2.7685,-2.759,0.0,-2.761,-2.761,-2.761,-2.7625,-2.7625,-2.7599,-2.7593,-2.7593,-2.7601,-2.7631,-2.7631,-2.7622,-2.7584,-2.7615,-2.7663,-2.8056,-2.8732,-2.996,-3.0573,-3.046,-3.0757,-3.0912,-3.0912,-3.0992,-3.0855,-3.0551,-3.0316,-2.9913,-2.9335,-2.8748,-2.8301,-2.8005,-2.7725,-2.7625,-2.779,-2.9086,-2.9579,-2.9759,-4.0054,-4.007,-4.007,-4.007,-4.007,-4.007,-4.007,-4.007,-4.007,-4.007,-4.007,-4.007,-4.007,-4.007,-4.0138,-4.0238,-4.0387,-4.0485,-4.0485,-4.0884,-4.0485,-3.8955,-3.9143,-3.8467,-3.6823,-3.7066,-3.7334,-3.7503,-3.7337,-3.7299,-3.7264,-3.7091,-3.7129,-3.7321,-3.7188,-3.715,-3.7226,-3.6956,-3.6678,-3.655,-3.6509,-3.6468,-3.6419,-3.6509,-3.655,-3.6464,-3.5968,-3.5329,-3.4596,-3.397,-3.3248,-3.2546,-3.2232,-3.202,-3.1802,-3.1617,-3.1483,-3.1346,-3.1151,-3.1112,-3.1112,-3.1112,-3.1032,-3.0935,-3.0861,-3.0807,-3.0684,-3.0361,-3.0333,-3.0293,-2.9837,-2.9377,-2.881,-2.8326,-2.8273,-2.8122,-2.7652,0.0,-2.7585,-2.7585,-2.758,-2.7625,-2.7625,-2.759,-2.759,-2.759,-2.7604,-2.7604,-2.7604,-2.7595,-2.759,-2.7588,-2.8048,-2.892,-3.0166,-3.0777,-3.1058,-3.1057,-3.0996,-3.0975,-3.0975,-3.1112,-3.1072,-3.0895,-3.0493,-3.0054,-2.9677,-2.8842,-2.835,-2.8137,-2.7725,-2.7625,-2.779,-2.9086,-2.9579,-2.9759,-4.007,-4.007,-4.007,-4.007,-4.007,-4.007,-4.007,-4.007,-4.007,-4.007,-4.007,-4.007,-4.007,-4.007,-4.0138,-4.0305,-4.0517,-4.0741,-4.0884,-4.1163,-4.0647,-3.9238,-3.9353,-3.8753,-3.7276,-3.7392,-3.7558,-3.7739,-3.7613,-3.7595,-3.7685,-3.7577,-3.7631,-3.7792,-3.7703,-3.7685,-3.7631,-3.7431,-3.7226,-3.7034,-3.6956,-3.6878,-3.6895,-3.7017,-3.6808,-3.6403,-3.6237,-3.5456,-3.4456,-3.4166,-3.3541,-3.2802,-3.2687,-3.2454,-3.2197,-3.1966,-3.1709,-3.1479,-3.1402,-3.1308,-3.1235,-3.1235,-3.1173,-3.1112,-3.1112,-3.1106,-3.1043,-3.0912,-3.089,-3.0734,-3.0284,-3.0022,-2.9637,-2.8896,-2.8795,0.0,0.0,-2.8042,-2.792,-2.7635,-2.758,-2.7625,-2.7625,-2.7625,-2.7625,-2.7625,-2.7625,-2.7625,-2.7625,-2.76,-2.772,-2.803,-2.8811,-2.964,-3.0471,-3.095,-3.1197,-3.12,-3.1122,-3.1112,-3.1112,-3.1112,-3.0975,-3.0814,-3.0368,-2.9881,-2.9348,-2.8732,-2.8268,-2.794,-2.7675,-2.7625,-2.779,-2.9086,-2.9579,-2.9759,-4.007,-4.007,-4.007,-4.007,-4.007,-4.007,-4.007,-4.007,-4.007,-4.007,-4.007,-4.007,-4.007,-4.007,-4.0188,-4.0404,-4.0693,-4.1007,-4.1346,-4.1525,-4.0954,-3.9552,-3.9244,-3.8655,-3.7649,-3.7685,-3.781,-3.8003,-3.7898,-3.7898,-3.8038,-3.8003,-3.8054,-3.8119,-3.8135,-3.8119,-3.802,-3.7898,-3.7721,-3.7523,-3.745,-3.7413,-3.7413,-3.7578,-3.7131,-3.6433,-3.6425,-3.557,-3.4424,-3.4274,-3.3774,-3.3178,-3.3117,-3.2866,-3.2573,-3.2369,-3.2038,-3.1651,-3.1538,-3.1389,-3.1295,-3.1295,-3.1252,-3.119,-3.119,-3.119,-3.1207,-3.1196,-3.1183,-3.1079,-3.0742,-3.0658,-3.0418,-2.9544,0.0,0.0,0.0,-2.8442,-2.8195,-2.764,-2.76,-2.7625,-2.7625,-2.7625,-2.7625,-2.7625,-2.7625,-2.7625,-2.7625,-2.76,-2.7898,-2.8541,-2.9521,-3.026,-3.0651,-3.1012,-3.1196,-3.119,-3.119,-3.119,-3.119,-3.1055,-3.0855,-3.0609,-3.0156,-2.9617,-2.8997,-2.8573,-2.8137,-2.779,-2.7625,-2.7625,-2.779,-2.9086,-2.9579,-2.9759,-4.007,-4.007,-4.007,-4.007,-4.007,-4.007,-4.007,-4.007,-4.007,-4.007,-4.007,-4.007,-4.007,-4.007,-4.0221,-4.0648,-4.0853,-4.1237,-4.1788,-4.2103,-4.1474,-3.9736,-3.8429,-3.7738,-3.7703,-3.788,-3.807,-3.8274,-3.8274,-3.8289,-3.835,-3.8289,-3.8354,-3.846,-3.8415,-3.8382,-3.8368,-3.8289,-3.8156,-3.7949,-3.8,-3.8,-3.7949,-3.8034,-3.7546,-3.6768,-3.6159,-3.5405,-3.4552,-3.3894,-3.3575,-3.3481,-3.3393,-3.3196,-3.2943,-3.2813,-3.2519,-3.2144,-3.1728,-3.1466,-3.1295,-3.1295,-3.1252,-3.119,-3.119,-3.119,-3.119,-3.1207,-3.1196,-3.1207,-3.115,-3.1141,-3.0974,-3.0458,0.0,0.0,-2.9102,-2.8669,-2.8174,-2.7671,-2.759,-2.7625,-2.7625,-2.7625,-2.7625,-2.7625,-2.7625,-2.7625,-2.7625,-2.7605,-2.8054,-2.9005,-2.996,-3.0652,-3.1148,-3.1177,-3.1196,-3.119,-3.119,-3.119,-3.119,-3.1055,-3.0814,-3.0485,-3.0027,-2.9483,-2.8858,-2.8414,-2.8039,-2.779,-2.7625,-2.7625,-2.779,-2.9086,-2.9579,-2.9759,-4.007,-4.007,-4.007,-4.007,-4.007,-4.007,-4.007,-4.007,-4.007,-4.007,-4.007,-4.0121,-4.0188,-4.0238,-4.0387,-4.0793,-4.1088,-4.1418,-4.1874,-4.1805,-4.1196,-4.0047,-3.8563,-3.781,-3.788,-3.7949,-3.8104,-3.8307,-3.8307,-3.8354,-3.8478,-3.8433,-3.8496,-3.8609,-3.8578,-3.8528,-3.8478,-3.8415,-3.8368,-3.8252,-3.8285,-3.8285,-3.8198,-3.7772,-3.7093,-3.6292,-3.5615,-3.4822,-3.4091,-3.3835,-3.3671,-3.3633,-3.3605,-3.3462,-3.3268,-3.3037,-3.2752,-3.242,-3.2109,-3.1748,-3.1466,-3.1445,-3.1308,-3.119,-3.119,-3.119,-3.119,-3.119,-3.1185,-3.1202,-3.1202,-3.1217,-3.1031,-3.0567,0.0,-3.0114,-2.9649,-2.9136,-2.8513,-2.7697,-2.7591,-2.7595,-2.76,-2.7615,-2.758,-2.761,-2.7625,-2.7625,-2.7625,-2.7944,-2.8417,-2.9087,-3.0032,-3.074,-3.118,-3.119,-3.1185,-3.119,-3.1219,-3.1196,-3.1196,-3.084,-3.0501,-3.0156,-2.9528,-2.8997,-2.8573,-2.8137,-2.7825,-2.7675,-2.7625,-2.7625,-2.779,-2.9086,-2.9579,-2.9759,-4.007,-4.007,-4.007,-4.007,-4.007,-4.007,-4.007,-4.007,-4.007,-4.007,-4.007,-4.0138,-4.0305,-4.0337,-4.0534,-4.0965,-4.1255,-4.1569,-4.1934,-4.1368,-4.0668,-3.995,-3.8671,-3.802,-3.8018,-3.8052,-3.8171,-3.8322,-3.8354,-3.8433,-3.8559,-3.8559,-3.8609,-3.8707,-3.8707,-3.8658,-3.8559,-3.8559,-3.8528,-3.8496,-3.8496,-3.835,-3.8058,-3.754,-3.6692,-3.5685,-3.5192,-3.4486,-3.3807,-3.3807,-3.378,-3.3726,-3.3726,-3.3643,-3.352,-3.3286,-3.2993,-3.2705,-3.242,-3.2038,-3.1654,-3.1538,-3.1363,-3.119,-3.119,-3.119,-3.119,-3.119,-3.119,-3.119,-3.119,-3.1179,-3.1099,-3.0778,-3.07,-3.0566,-3.0168,-2.9653,-2.9027,-2.8171,-2.7963,-2.7859,-2.7849,-2.7689,-2.759,-2.758,-2.7595,-2.7595,-2.7595,-2.7947,-2.8448,-2.9075,-2.9895,-3.0615,-3.1206,-3.119,-3.119,-3.119,-3.1196,-3.1116,-3.0952,-3.0676,-3.0264,-2.9837,-2.9166,-2.8685,-2.8299,-2.794,-2.774,-2.7625,-2.7625,-2.7625,-2.779,-2.9086,-2.9579,-2.9759,-4.007,-4.007,-4.007,-4.007,-4.007,-4.007,-4.007,-4.007,-4.007,-4.007,-4.007,-4.0138,-4.0305,-4.0436,-4.071,-4.1163,-4.1328,-4.1596,-4.2044,-4.0888,-3.9914,-3.9333,-3.859,-3.8156,-3.8101,-3.8238,-3.8322,-3.8382,-3.8478,-3.8559,-3.8707,-3.8707,-3.8707,-3.8707,-3.8707,-3.8707,-3.8707,-3.8707,-3.8707,-3.8707,-3.8689,-3.8212,-3.7507,-3.7477,-3.645,-3.499,-3.499,-3.4486,-3.3807,-3.3807,-3.3807,-3.3807,-3.3807,-3.3753,-3.3643,-3.3452,-3.3256,-3.3024,-3.2623,-3.2197,-3.1839,-3.1576,-3.1363,-3.119,-3.119,-3.119,-3.119,-3.119,-3.119,-3.119,-3.119,-3.1179,-3.1207,-3.1207,-3.1206,-3.105,-3.0558,-3.0152,-2.9691,-2.9148,-2.8717,-2.84,-2.8396,-2.7923,-2.7603,-2.762,-2.762,-2.762,-2.762,-2.7618,-2.8038,-2.9077,-2.9624,-3.0299,-3.1191,-3.1194,-3.119,-3.119,-3.1213,-3.0935,-3.0506,-3.0493,-3.0179,-2.9589,-2.9042,-2.8559,-2.8186,-2.789,-2.774,-2.7625,-2.7625,-2.7625,-2.779,-2.9086,-2.9579,-2.9759,-4.007,-4.007,-4.007,-4.007,-4.007,-4.007,-4.007,-4.007,-4.007,-4.007,-4.007,-4.0238,-4.0551,-4.0662,-4.0913,-4.1453,-4.1498,-4.12,-4.0481,-3.9761,-3.9139,-3.8604,-3.8334,-3.8207,-3.8256,-3.8241,-3.8307,-3.8382,-3.8415,-3.8528,-3.8707,-3.8707,-3.8707,-3.8707,-3.8707,-3.8707,-3.8707,-3.8707,-3.8707,-3.8652,-3.8083,-3.7698,-3.7349,-3.6193,-3.5459,-3.4917,-3.4376,-3.4009,-3.3807,-3.3807,-3.3807,-3.3807,-3.3807,-3.3807,-3.3753,-3.3643,-3.3462,-3.3226,-3.283,-3.2403,-3.2002,-3.1614,-3.1363,-3.119,-3.119,-3.119,-3.119,-3.119,-3.119,-3.119,-3.119,-3.1224,-3.1202,-3.1202,-3.1183,-3.1046,-3.0558,-3.041,-3.0162,-2.9729,-2.9556,-2.9305,-2.892,-2.8466,-2.8148,-2.816,-2.7806,-2.7595,-2.7595,-2.7584,-2.7893,-2.8604,-2.9102,-2.977,-3.0707,-3.1057,-3.1183,-3.1183,-3.1213,-3.0941,-3.051,-3.019,-2.9765,-2.9231,-2.8715,-2.8314,-2.789,-2.7725,-2.7625,-2.7625,-2.7625,-2.7625,-2.779,-2.9086,-2.9579,-2.9759,-4.007,-4.007,-4.007,-4.007,-4.007,-4.007,-4.007,-4.007,-4.007,-4.007,-4.0138,-4.0288,-4.0648,-4.0836,-4.1146,-4.156,-4.1367,-4.0732,-3.9669,-3.9165,-3.8672,-3.8207,-3.8207,-3.8241,-3.8387,-3.8322,-3.8336,-3.8446,-3.8446,-3.8528,-3.8707,-3.8707,-3.8707,-3.8707,-3.8707,-3.8707,-3.8707,-3.8707,-3.8524,-3.8175,-3.7679,-3.7092,-3.6395,-3.5404,-3.4789,-3.4468,-3.3972,-3.3807,-3.3807,-3.3807,-3.3807,-3.3807,-3.3807,-3.3807,-3.3807,-3.3726,-3.3577,-3.3345,-3.2988,-3.2603,-3.2197,-3.1783,-3.1445,-3.1213,-3.119,-3.119,-3.119,-3.119,-3.119,-3.119,-3.119,-3.119,-3.119,-3.119,-3.1196,-3.1099,-3.0811,-3.0766,-3.0701,-3.0425,-3.0238,-3.0011,-2.9691,-2.9041,-2.8498,-2.8097,-2.7803,-2.759,-2.759,-2.7584,-2.7856,-2.8378,-2.8685,-2.9164,-2.9955,-3.0434,-3.0784,-3.0899,-3.0925,-3.0681,-3.026,-2.9806,-2.9323,-2.8811,-2.8286,-2.8008,-2.7886,-2.769,-2.7625,-2.7625,-2.7625,-2.7625,-2.7745,-2.8786,-2.9355,-2.9729,-4.007,-4.007,-4.007,-4.007,-4.007,-4.007,-4.007,-4.007,-4.0121,-4.0138,-4.0238,-4.0453,-4.0697,-4.1041,-4.1346,-4.1604,-4.0961,-4.0176,-3.9341,-3.8883,-3.8456,-3.802,-3.8122,-3.8289,-3.8478,-3.8415,-3.8415,-3.851,-3.851,-3.8559,-3.8707,-3.8707,-3.8707,-3.8707,-3.8707,-3.8707,-3.8707,-3.8707,-3.823,-3.7477,-3.7434,-3.6431,-3.499,-3.4917,-3.4449,-3.3807,-3.3807,-3.3807,-3.3807,-3.3807,-3.3807,-3.3807,-3.3807,-3.3807,-3.3807,-3.3726,-3.3633,-3.3462,-3.3117,-3.2802,-3.2456,-3.2038,-3.1637,-3.1334,-3.1213,-3.1173,-3.119,-3.119,-3.119,-3.119,-3.119,-3.119,-3.119,-3.119,-3.1179,-3.119,-3.119,-3.1187,-3.1189,-3.1206,-3.0833,-3.0549,-3.0543,-2.9733,-2.8756,-2.7797,-2.7743,-2.7719,-2.7655,-2.7648,-2.7883,-2.8311,-2.8338,-2.856,-2.903,-2.9526,-2.9976,-3.0458,-3.0396,-3.0196,-2.981,-2.9273,-2.8779,-2.8384,-2.7814,-2.7724,-2.7946,-2.7705,-2.7625,-2.7625,-2.7625,-2.7625,-2.7649,-2.8308,-2.8981,-2.9669,-4.007,-4.007,-4.007,-4.007,-4.007,-4.007,-4.007,-4.007,-4.0138,-4.0238,-4.0387,-4.0614,-4.1041,-4.1255,-4.1498,-4.1858,-4.0654,-3.9446,-3.8513,-3.8217,-3.8078,-3.8086,-3.8252,-3.8401,-3.8415,-3.8354,-3.8368,-3.851,-3.851,-3.8559,-3.8707,-3.8707,-3.8707,-3.8707,-3.8707,-3.8707,-3.8707,-3.8707,-3.823,-3.7452,-3.6798,-3.5936,-3.4917,-3.4302,-3.3954,-3.3807,-3.3807,-3.3807,-3.3807,-3.3807,-3.3807,-3.3807,-3.3807,-3.3807,-3.3807,-3.378,-3.3726,-3.3605,-3.3393,-3.3135,-3.2866,-3.2352,-3.202,-3.1733,-3.1283,-3.1206,-3.1184,-3.1173,-3.119,-3.119,-3.119,-3.119,-3.119,-3.119,-3.1207,-3.1185,-3.1185,-3.1219,-3.1213,-3.12,-3.1086,-3.1048,-3.1065,-3.0271,-2.9462,-2.8809,-2.8779,-2.8618,-2.8238,-2.8235,-2.8073,-2.7803,-2.7765,-2.8005,-2.8556,-2.87,-2.9153,-3.0008,-2.9595,-2.9353,-2.9278,-2.8779,-2.8491,-2.8354,-2.7815,-2.7635,-2.7705,-2.7625,-2.7625,-2.7625,-2.7625,-2.7625,-2.7619,-2.775,-2.8598,-2.9744,-4.007,-4.007,-4.007,-4.007,-4.007,-4.007,-4.007,-4.0138,-4.0238,-4.0387,-4.0614,-4.0884,-4.1237,-4.1525,-4.156,-4.1456,-4.001,-3.8911,-3.8426,-3.806,-3.7951,-3.8052,-3.8204,-3.8322,-3.8336,-3.834,-3.8354,-3.8446,-3.8478,-3.8559,-3.8609,-3.8658,-3.8707,-3.8707,-3.8707,-3.8707,-3.867,-3.8285,-3.7661,-3.6835,-3.6028,-3.5183,-3.4394,-3.3972,-3.3807,-3.3807,-3.3807,-3.3807,-3.3807,-3.3807,-3.3807,-3.3807,-3.3807,-3.3807,-3.3807,-3.3807,-3.3753,-3.3671,-3.3491,-3.3316,-3.3037,-3.2555,-3.23,-3.2003,-3.1435,-3.1244,-3.1206,-3.1213,-3.119,-3.119,-3.119,-3.119,-3.119,-3.119,-3.119,-3.119,-3.119,-3.119,-3.1207,-3.1219,-3.1179,-3.1133,-3.0899,-3.0445,-3.0004,-2.9528,-2.9466,-2.925,-2.8778,-2.8521,-2.8152,-2.7629,-2.7599,-2.7758,-2.8042,-2.8015,-2.8258,-2.8795,-2.8795,-2.8654,-2.8386,-2.813,-2.8012,-2.8016,-2.773,-2.7615,-2.7625,-2.7625,-2.7625,-2.7625,-2.7625,-2.7625,-2.759,-2.7586,-2.8457,-2.9759,-4.007,-4.007,-4.007,-4.007,-4.007,-4.0138,-4.0121,-4.0238,-4.0387,-4.0566,-4.0884,-4.1146,-4.1463,-4.1664,-4.141,-4.0465,-3.9349,-3.8625,-3.8463,-3.8151,-3.7985,-3.8052,-3.8189,-3.8241,-3.8307,-3.8307,-3.8322,-3.8382,-3.8478,-3.851,-3.851,-3.8658,-3.8707,-3.8707,-3.8707,-3.8615,-3.845,-3.7771,-3.6945,-3.6009,-3.5284,-3.4523,-3.3807,-3.3807,-3.3807,-3.3807,-3.3807,-3.3807,-3.3807,-3.3807,-3.3807,-3.3807,-3.3807,-3.3807,-3.3807,-3.3807,-3.3753,-3.3671,-3.352,-3.3357,-3.3129,-3.2705,-3.2472,-3.2179,-3.1545,-3.1338,-3.1223,-3.1213,-3.119,-3.119,-3.119,-3.119,-3.119,-3.119,-3.119,-3.119,-3.119,-3.119,-3.119,-3.119,-3.1207,-3.1038,-3.067,-3.0626,-3.0458,-3.0027,-2.9964,-2.9667,-2.9154,-2.8635,-2.8155,-2.7648,-2.7625,-2.762,-2.762,-2.7575,-2.761,-2.761,-2.8048,-2.8051,-2.7622,-2.7588,-2.7614,-2.7585,-2.7585,-2.7615,-2.7625,-2.7625,-2.7625,-2.7625,-2.7625,-2.7625,-2.7575,-2.7584,-2.8487,-2.9858,-4.007,-4.007,-4.007,-4.007,-4.007,-4.0138,-4.0255,-4.0387,-4.0566,-4.0884,-4.1146,-4.148,-4.1788,-4.1458,-4.0544,-3.8894,-3.8881,-3.8654,-3.7954,-3.8142,-3.8289,-3.835,-3.835,-3.8336,-3.8307,-3.8307,-3.8322,-3.8382,-3.8478,-3.851,-3.851,-3.8658,-3.8707,-3.8707,-3.8707,-3.8303,-3.7672,-3.7562,-3.6597,-3.5155,-3.5045,-3.4523,-3.3807,-3.3807,-3.3807,-3.3807,-3.3807,-3.3807,-3.3807,-3.3807,-3.3807,-3.3807,-3.3807,-3.3807,-3.3807,-3.3726,-3.3698,-3.3661,-3.3481,-3.3393,-3.3256,-3.2737,-3.2557,-3.2301,-3.1728,-3.1521,-3.1423,-3.123,-3.119,-3.119,-3.119,-3.119,-3.119,-3.119,-3.119,-3.119,-3.119,-3.119,-3.119,-3.119,-3.1179,-3.119,-3.1099,-3.1115,-3.09,-3.0441,-3.012,-2.9688,-2.9118,-2.8654,-2.8132,-2.7613,-2.7614,-2.762,-2.762,-2.7615,-2.7595,-2.7595,-2.7645,-2.7665,-2.759,-2.76,-2.758,-2.761,-2.761,-2.761,-2.7625,-2.7625,-2.7625,-2.7625,-2.7625,-2.7625,-2.7604,-2.7602,-2.8666,-3.0187,-4.007,-4.007,-4.007,-4.007,-4.007,-4.0138,-4.0305,-4.0502,-4.0728,-4.1071,-4.1391,-4.1586,-4.1458,-4.0599,-3.9711,-3.892,-3.8707,-3.845,-3.8088,-3.8238,-3.8368,-3.8382,-3.8382,-3.8401,-3.8336,-3.8354,-3.8368,-3.8382,-3.8415,-3.8446,-3.8446,-3.8627,-3.8707,-3.8689,-3.823,-3.7826,-3.7452,-3.6505,-3.5697,-3.4954,-3.4523,-3.4119,-3.3807,-3.3807,-3.3807,-3.3807,-3.3807,-3.3807,-3.3807,-3.3807,-3.3807,-3.3807,-3.3807,-3.3807,-3.3807,-3.3726,-3.3698,-3.3643,-3.3357,-3.3286,-3.3178,-3.2672,-3.2489,-3.2266,-3.1728,-3.1538,-3.144,-3.123,-3.119,-3.119,-3.119,-3.119,-3.119,-3.119,-3.119,-3.119,-3.119,-3.119,-3.119,-3.119,-3.1185,-3.1219,-3.1219,-3.1187,-3.1024,-3.0551,-3.0146,-2.9661,-2.9141,-2.8887,-2.8545,-2.8057,-2.8048,-2.7898,-2.7625,-2.7585,-2.758,-2.7625,-2.7625,-2.761,-2.758,-2.761,-2.7625,-2.7625,-2.7625,-2.7625,-2.7625,-2.7625,-2.7625,-2.7625,-2.7625,-2.7625,-2.7604,-2.7595,-2.8104,-2.8981]}]]